[[{"header":{"parameterUnit":"m.s-1","parameterCategory":1,"la1":30.6,"la2":29.2853,"lo1":-89.7004,"lo2":-87.6739,"dy":0.0162,"dx":0.0183,"nx":112,"ny":82,"refTime":"2023-06-28T12:00:00:Z","depth":0,"parameterNumber":2,"parameterNumberName":"U-component_of_WINDS"},"data":[0.0,0.0,0.0,0.0,0.0,0.0,0.0,0.0,0.0,0.0,0.0,0.0,0.0,0.0,0.0,0.0,0.0,0.0,0.0,0.0,0.0,0.0,0.0,0.0,0.0,0.0,0.0,0.0,0.0,0.0,0.0,0.0,0.0,0.0,0.0,0.0,0.0,0.0,0.0,0.0,0.0,0.0,0.0,0.0,0.0,0.0,0.0,0.0,0.0,0.0,0.0,0.0,0.0,0.0,0.0,0.0,0.0,0.0,0.0,0.0,0.0,0.0,0.0,0.0,0.0,0.0,0.0,0.0,0.0,0.0,0.0,0.0,0.0,0.0,0.0,0.0,0.0,0.0,0.0,0.0,0.0,0.0,0.0,0.0,0.0,0.0,0.0,0.0,0.0,0.0,0.0,-4.6434,-5.361,-5.7997,-5.7997,-5.5445,-5.0401,-4.2322,0.0,0.0,0.0,0.0,0.0,0.0,0.0,0.0,0.0,0.0,0.0,0.0,0.0,0.0,0.0,0.0,0.0,0.0,0.0,0.0,0.0,0.0,0.0,0.0,0.0,0.0,0.0,0.0,0.0,0.0,0.0,0.0,0.0,0.0,0.0,0.0,0.0,0.0,0.0,0.0,0.0,0.0,0.0,0.0,0.0,0.0,0.0,0.0,0.0,0.0,0.0,0.0,0.0,0.0,0.0,0.0,0.0,0.0,0.0,0.0,0.0,0.0,0.0,0.0,0.0,0.0,0.0,0.0,0.0,0.0,0.0,0.0,0.0,0.0,0.0,0.0,0.0,0.0,0.0,0.0,0.0,0.0,0.0,0.0,0.0,0.0,0.0,0.0,0.0,0.0,0.0,0.0,0.0,0.0,0.0,0.0,0.0,0.0,0.0,0.0,0.0,0.0,0.0,0.0,-4.2139,-5.1132,-5.5647,-5.7997,-5.7997,-5.3904,-4.8746,-4.2683,0.0,0.0,0.0,0.0,0.0,0.0,0.0,0.0,0.0,0.0,0.0,0.0,0.0,0.0,0.0,0.0,0.0,0.0,0.0,0.0,0.0,0.0,0.0,0.0,0.0,0.0,0.0,0.0,0.0,0.0,0.0,0.0,0.0,0.0,0.0,0.0,0.0,0.0,0.0,0.0,0.0,0.0,0.0,0.0,0.0,0.0,0.0,0.0,0.0,0.0,0.0,0.0,0.0,0.0,0.0,0.0,0.0,0.0,0.0,0.0,0.0,0.0,0.0,0.0,0.0,0.0,0.0,0.0,0.0,0.0,0.0,0.0,0.0,0.0,0.0,0.0,0.0,0.0,0.0,0.0,0.0,0.0,0.0,0.0,0.0,0.0,0.0,0.0,0.0,0.0,0.0,0.0,0.0,0.0,0.0,0.0,0.0,0.0,0.0,0.0,0.0,0.0,0.0,-4.091,-4.5498,-5.3041,-5.6345,-5.7813,-5.7391,-5.372,-4.8691,-4.2155,-3.7631,0.0,0.0,0.0,0.0,0.0,0.0,0.0,0.0,0.0,0.0,0.0,0.0,0.0,0.0,0.0,0.0,0.0,0.0,0.0,0.0,0.0,0.0,0.0,0.0,0.0,0.0,0.0,0.0,0.0,0.0,0.0,0.0,0.0,0.0,0.0,0.0,0.0,0.0,0.0,0.0,0.0,0.0,0.0,0.0,0.0,0.0,0.0,0.0,0.0,0.0,0.0,0.0,0.0,0.0,0.0,0.0,0.0,0.0,0.0,0.0,0.0,0.0,0.0,0.0,0.0,0.0,0.0,0.0,0.0,0.0,0.0,0.0,0.0,0.0,0.0,0.0,0.0,0.0,0.0,0.0,0.0,0.0,0.0,0.0,0.0,0.0,0.0,0.0,0.0,0.0,0.0,0.0,0.0,0.0,0.0,0.0,0.0,0.0,0.0,0.0,0.0,0.0,-4.5351,-4.9003,-5.4142,-5.6675,-5.7666,-5.6877,-5.3151,-4.8088,-4.1616,-3.602,0.0,0.0,0.0,0.0,0.0,0.0,0.0,0.0,0.0,0.0,0.0,0.0,0.0,0.0,0.0,0.0,0.0,0.0,0.0,0.0,0.0,0.0,0.0,0.0,0.0,0.0,0.0,0.0,0.0,0.0,0.0,0.0,0.0,0.0,0.0,0.0,0.0,0.0,0.0,0.0,0.0,0.0,0.0,0.0,0.0,0.0,0.0,0.0,0.0,0.0,0.0,0.0,0.0,0.0,0.0,0.0,0.0,0.0,0.0,0.0,0.0,0.0,0.0,0.0,0.0,0.0,0.0,0.0,0.0,0.0,0.0,0.0,0.0,0.0,0.0,0.0,0.0,0.0,0.0,0.0,0.0,0.0,0.0,0.0,0.0,0.0,0.0,0.0,0.0,0.0,0.0,0.0,0.0,0.0,0.0,0.0,0.0,0.0,0.0,0.0,0.0,0.0,-4.6654,-5.1756,-5.5133,-5.7005,-5.7666,-5.6877,-5.1039,-4.5659,-4.1473,-3.3911,0.0,0.0,0.0,0.0,0.0,0.0,0.0,0.0,0.0,0.0,0.0,0.0,0.0,0.0,0.0,0.0,0.0,0.0,0.0,0.0,0.0,0.0,0.0,0.0,0.0,0.0,0.0,0.0,0.0,0.0,0.0,0.0,0.0,0.0,0.0,0.0,0.0,0.0,0.0,0.0,0.0,0.0,0.0,0.0,0.0,0.0,0.0,0.0,0.0,0.0,0.0,0.0,0.0,0.0,0.0,0.0,0.0,0.0,0.0,0.0,0.0,0.0,0.0,0.0,0.0,0.0,0.0,0.0,0.0,0.0,0.0,0.0,0.0,0.0,0.0,0.0,0.0,0.0,0.0,0.0,0.0,0.0,0.0,0.0,0.0,0.0,0.0,0.0,0.0,0.0,0.0,0.0,0.0,0.0,0.0,0.0,0.0,0.0,0.0,0.0,0.0,0.0,-4.4672,-4.937,0.0,-5.5537,-5.5959,-5.4675,-5.1389,-4.6607,-4.0052,0.0,0.0,0.0,0.0,0.0,0.0,0.0,0.0,0.0,0.0,0.0,0.0,0.0,0.0,0.0,0.0,0.0,0.0,0.0,0.0,0.0,0.0,0.0,0.0,0.0,0.0,0.0,0.0,0.0,0.0,0.0,0.0,0.0,0.0,0.0,0.0,0.0,0.0,0.0,0.0,0.0,0.0,0.0,0.0,0.0,0.0,0.0,0.0,0.0,0.0,0.0,0.0,0.0,0.0,0.0,0.0,0.0,0.0,0.0,0.0,0.0,0.0,0.0,0.0,0.0,0.0,0.0,0.0,0.0,0.0,0.0,0.0,0.0,0.0,0.0,0.0,0.0,0.0,0.0,0.0,0.0,0.0,0.0,0.0,0.0,0.0,0.0,0.0,0.0,0.0,0.0,0.0,0.0,0.0,0.0,0.0,0.0,0.0,0.0,0.0,0.0,0.0,-3.8982,-4.3479,-4.7865,0.0,-5.4106,-5.4564,-5.2968,-5.0398,-4.586,-3.8796,0.0,0.0,0.0,0.0,0.0,0.0,0.0,0.0,0.0,0.0,0.0,0.0,0.0,0.0,0.0,0.0,0.0,0.0,0.0,0.0,0.0,0.0,0.0,0.0,0.0,0.0,0.0,0.0,0.0,0.0,0.0,0.0,0.0,0.0,0.0,0.0,0.0,0.0,0.0,0.0,0.0,0.0,0.0,0.0,0.0,0.0,0.0,0.0,0.0,0.0,0.0,0.0,0.0,0.0,0.0,0.0,0.0,0.0,0.0,0.0,0.0,0.0,0.0,0.0,0.0,0.0,0.0,0.0,0.0,0.0,0.0,0.0,0.0,0.0,0.0,0.0,0.0,0.0,0.0,0.0,0.0,0.0,0.0,0.0,0.0,0.0,0.0,0.0,0.0,0.0,0.0,0.0,0.0,0.0,0.0,0.0,0.0,0.0,0.0,0.0,0.0,0.0,-3.8377,-4.359,-4.8012,-5.0508,-5.2913,-5.3702,-5.2087,-4.7517,-4.2667,0.0,0.0,0.0,0.0,0.0,0.0,0.0,0.0,0.0,0.0,0.0,0.0,0.0,0.0,0.0,0.0,0.0,0.0,0.0,0.0,0.0,0.0,0.0,0.0,0.0,0.0,0.0,0.0,0.0,0.0,0.0,0.0,0.0,0.0,0.0,0.0,0.0,0.0,0.0,0.0,0.0,0.0,0.0,0.0,0.0,0.0,0.0,0.0,0.0,0.0,0.0,0.0,0.0,0.0,0.0,0.0,0.0,0.0,0.0,0.0,0.0,0.0,0.0,0.0,0.0,0.0,0.0,0.0,0.0,0.0,0.0,0.0,0.0,0.0,0.0,0.0,0.0,0.0,0.0,0.0,0.0,0.0,0.0,0.0,0.0,0.0,0.0,0.0,0.0,0.0,0.0,0.0,0.0,0.0,0.0,0.0,0.0,0.0,0.0,0.0,0.0,0.0,0.0,-3.7606,-4.2286,-4.6324,-4.8783,-5.0215,-5.0563,-4.9481,-4.704,-4.3014,-3.7059,0.0,0.0,0.0,0.0,0.0,0.0,0.0,0.0,0.0,0.0,0.0,0.0,0.0,0.0,0.0,0.0,0.0,0.0,0.0,0.0,0.0,0.0,0.0,0.0,0.0,0.0,0.0,0.0,0.0,0.0,0.0,0.0,0.0,0.0,0.0,0.0,0.0,0.0,0.0,0.0,0.0,0.0,0.0,0.0,0.0,0.0,0.0,0.0,0.0,0.0,0.0,0.0,0.0,0.0,0.0,0.0,0.0,0.0,0.0,0.0,0.0,0.0,0.0,0.0,0.0,0.0,0.0,0.0,0.0,0.0,0.0,0.0,0.0,0.0,0.0,0.0,0.0,0.0,0.0,0.0,0.0,0.0,0.0,0.0,0.0,0.0,0.0,0.0,0.0,0.0,0.0,0.0,0.0,0.0,0.0,0.0,0.0,0.0,0.0,0.0,0.0,0.0,-3.6721,-4.0671,-4.4177,-4.6617,-4.7902,-4.8251,-4.7407,-4.5865,-4.2282,-3.601,0.0,0.0,0.0,0.0,0.0,0.0,0.0,0.0,0.0,0.0,0.0,0.0,0.0,0.0,0.0,0.0,0.0,0.0,0.0,0.0,0.0,0.0,0.0,0.0,0.0,0.0,0.0,0.0,0.0,0.0,0.0,0.0,0.0,0.0,0.0,0.0,0.0,0.0,0.0,0.0,0.0,0.0,0.0,0.0,0.0,0.0,0.0,0.0,0.0,0.0,0.0,0.0,0.0,0.0,0.0,0.0,0.0,0.0,0.0,0.0,0.0,0.0,0.0,0.0,0.0,0.0,0.0,0.0,0.0,0.0,0.0,0.0,0.0,0.0,0.0,0.0,0.0,0.0,0.0,0.0,0.0,0.0,0.0,0.0,0.0,0.0,0.0,0.0,0.0,0.0,0.0,0.0,0.0,0.0,0.0,0.0,0.0,0.0,0.0,0.0,0.0,0.0,-3.5771,-3.9001,-4.1902,-4.4342,-4.5957,-4.6581,-4.5847,-4.4305,-4.0886,-3.5063,0.0,0.0,0.0,0.0,0.0,0.0,0.0,0.0,0.0,0.0,0.0,0.0,0.0,0.0,0.0,0.0,0.0,0.0,0.0,0.0,0.0,0.0,0.0,0.0,0.0,0.0,0.0,0.0,0.0,0.0,0.0,0.0,0.0,0.0,0.0,0.0,0.0,0.0,0.0,0.0,0.0,0.0,0.0,0.0,0.0,0.0,0.0,0.0,0.0,0.0,0.0,0.0,0.0,0.0,0.0,0.0,0.0,0.0,0.0,0.0,-3.8397,0.0,0.0,0.0,0.0,0.0,0.0,0.0,0.0,0.0,0.0,0.0,0.0,0.0,0.0,0.0,0.0,0.0,0.0,0.0,0.0,0.0,0.0,0.0,0.0,0.0,0.0,0.0,0.0,0.0,0.0,0.0,0.0,0.0,0.0,0.0,0.0,0.0,0.0,0.0,0.0,0.0,-3.4931,-3.8138,-4.1075,-4.3497,-4.4635,-4.5131,-4.4984,-4.3479,-4.0522,-3.5776,0.0,0.0,0.0,0.0,0.0,0.0,0.0,0.0,0.0,0.0,0.0,0.0,0.0,0.0,0.0,0.0,0.0,0.0,0.0,0.0,0.0,0.0,0.0,0.0,0.0,0.0,0.0,0.0,0.0,0.0,0.0,0.0,0.0,0.0,0.0,0.0,0.0,0.0,0.0,0.0,0.0,0.0,0.0,0.0,0.0,0.0,0.0,0.0,0.0,0.0,0.0,0.0,0.0,0.0,0.0,0.0,0.0,0.0,0.0,0.0,0.0,-3.9794,0.0,0.0,0.0,0.0,0.0,0.0,0.0,0.0,0.0,0.0,0.0,0.0,0.0,0.0,0.0,0.0,0.0,0.0,0.0,0.0,0.0,0.0,0.0,0.0,0.0,0.0,0.0,0.0,0.0,0.0,0.0,0.0,0.0,0.0,0.0,0.0,0.0,0.0,0.0,0.0,-3.4601,-3.7533,-4.0102,-4.2139,-4.3075,-4.3552,-4.3552,-4.2066,-3.9671,-3.621,-3.3186,0.0,0.0,0.0,0.0,0.0,0.0,0.0,0.0,0.0,0.0,0.0,0.0,0.0,0.0,0.0,0.0,0.0,0.0,0.0,0.0,0.0,0.0,0.0,0.0,0.0,0.0,0.0,0.0,0.0,0.0,0.0,0.0,0.0,0.0,0.0,0.0,0.0,0.0,0.0,0.0,0.0,0.0,0.0,0.0,0.0,0.0,0.0,0.0,0.0,0.0,0.0,0.0,0.0,0.0,0.0,-5.0058,-5.1074,-5.1152,-5.0293,-4.7109,-4.4585,-4.2623,0.0,0.0,0.0,0.0,0.0,0.0,0.0,0.0,0.0,0.0,0.0,0.0,0.0,0.0,0.0,0.0,0.0,0.0,0.0,0.0,0.0,0.0,0.0,0.0,0.0,-3.614,-3.5716,0.0,0.0,0.0,0.0,0.0,0.0,0.0,0.0,0.0,0.0,0.0,0.0,-3.4325,-3.7077,-3.9258,-4.0728,-4.1607,-4.2084,-4.2084,-4.0744,-3.8872,-3.645,-3.3893,-3.0536,0.0,0.0,0.0,0.0,0.0,0.0,0.0,0.0,0.0,0.0,0.0,0.0,0.0,0.0,0.0,0.0,0.0,0.0,0.0,0.0,0.0,0.0,0.0,0.0,0.0,0.0,0.0,0.0,0.0,0.0,0.0,0.0,-3.6411,-3.7373,0.0,0.0,0.0,0.0,0.0,0.0,0.0,0.0,0.0,0.0,0.0,0.0,0.0,0.0,-4.9336,-5.2402,-5.3301,-5.207,-5.5976,-5.664,-5.4512,-5.6133,-5.6816,-5.6601,-5.4629,0.0,-4.4483,-4.3487,0.0,0.0,0.0,0.0,0.0,0.0,0.0,0.0,0.0,0.0,0.0,0.0,0.0,0.0,0.0,0.0,0.0,0.0,0.0,0.0,0.0,0.0,-3.8276,-3.7726,-3.7992,-3.7845,0.0,-3.4596,-3.3256,-3.1439,0.0,0.0,0.0,0.0,0.0,0.0,0.0,0.0,-3.3715,-3.6725,-3.9056,-3.9955,-4.0781,-4.126,-4.126,-4.0414,-3.8872,-3.645,-3.4587,-3.181,-2.7846,-2.6215,0.0,0.0,0.0,0.0,0.0,0.0,0.0,0.0,0.0,0.0,0.0,0.0,0.0,0.0,0.0,0.0,0.0,0.0,0.0,0.0,0.0,0.0,0.0,0.0,0.0,0.0,0.0,0.0,0.0,-3.7615,-4.0085,-3.9469,-3.9835,-3.9431,0.0,0.0,0.0,0.0,0.0,0.0,0.0,0.0,0.0,-4.8535,-5.0762,-5.2754,-5.4512,-5.6953,-5.8027,-5.7773,-5.9687,-6.0019,-5.8926,-5.9687,-6.0039,-5.9961,-5.8711,-5.5624,-5.1186,-4.7366,-4.3953,-4.0906,0.0,0.0,0.0,0.0,0.0,-3.7853,-3.9354,0.0,0.0,0.0,0.0,0.0,0.0,0.0,0.0,0.0,0.0,0.0,0.0,0.0,0.0,-4.0556,-4.1055,-4.0965,-3.935,-3.8065,-3.634,0.0,-3.322,-3.2669,-2.9659,0.0,0.0,0.0,0.0,0.0,-3.4197,-3.6964,-3.8836,-3.9184,-3.9955,-4.0432,-4.0432,-3.9258,-3.8098,-3.7052,-3.4981,-3.227,-2.8831,-2.7166,-2.5405,0.0,0.0,0.0,0.0,0.0,0.0,0.0,0.0,0.0,0.0,0.0,0.0,0.0,0.0,0.0,0.0,0.0,0.0,0.0,0.0,0.0,0.0,0.0,0.0,0.0,0.0,0.0,0.0,-4.1046,-4.3104,-4.1381,-4.2893,-4.2816,0.0,0.0,0.0,0.0,0.0,0.0,-4.793,-5.0051,-5.1973,-5.3652,-5.5801,-5.7676,-5.9199,-6.0449,-6.1289,-6.1699,-6.1699,-6.1699,-6.1699,-6.1699,-6.1582,-6.1328,-6.0469,-5.8769,-5.6191,-5.0989,-4.7079,-4.416,-4.1704,-4.0571,0.0,-4.0681,-4.0585,-4.0604,-4.2874,-4.3278,-4.2489,-4.0816,0.0,-3.8661,-3.5151,0.0,0.0,0.0,0.0,-3.619,-3.8601,0.0,-4.0668,-4.2131,-4.2686,-4.2488,-4.1111,-4.0322,-3.8817,0.0,-3.5275,-3.4871,-3.1421,0.0,0.0,0.0,0.0,-3.3054,-3.5059,-3.7297,-3.8707,-3.8707,-3.9239,-3.9496,-3.9294,-3.819,-3.7327,-3.6905,-3.4926,-3.2493,-2.9614,-2.7802,-2.5872,-2.3727,0.0,0.0,0.0,0.0,0.0,0.0,0.0,0.0,0.0,0.0,0.0,0.0,0.0,0.0,0.0,0.0,0.0,0.0,0.0,0.0,0.0,0.0,0.0,0.0,0.0,0.0,0.0,0.0,0.0,-4.3162,-4.7278,0.0,0.0,0.0,0.0,-4.6535,-4.9137,-5.146,-5.3309,-5.5987,-5.8223,-5.9883,-6.0879,-6.1816,-6.2734,-6.2832,-6.248,-6.1699,-6.1699,-6.1699,-6.1699,-6.1699,-6.125,-6.043,-5.9609,-5.8242,-5.6387,-5.3594,-5.0328,-4.6936,-4.5129,-4.3812,-4.2816,-4.2027,-4.2239,-4.2816,-4.2162,-4.1904,-4.1981,-4.2681,-4.1258,-3.9062,-3.7761,-3.6778,0.0,0.0,-3.7803,-3.8669,-4.0641,-4.0738,-4.0538,-4.1455,-4.1428,-4.0985,-4.0139,-3.9918,-3.9148,0.0,-3.5555,-3.4509,-3.2784,0.0,-3.2417,-3.2417,-3.3793,-3.5151,-3.6101,-3.7679,-3.8707,-3.8707,-3.8744,-3.845,-3.7694,-3.7547,-3.6817,-3.5224,-3.4302,-3.2734,-3.0338,-2.8024,-2.6068,-2.4488,-2.3038,0.0,0.0,0.0,0.0,0.0,0.0,0.0,0.0,0.0,0.0,0.0,0.0,0.0,0.0,0.0,0.0,0.0,0.0,0.0,0.0,0.0,0.0,0.0,0.0,0.0,0.0,0.0,0.0,-4.8779,-5.1356,0.0,0.0,-4.8336,-4.9104,-5.1634,-5.3805,-5.6077,-5.8491,-6.0659,-6.2153,-6.289,-6.3769,-6.4082,-6.3848,-6.4394,-6.3945,-6.2539,-6.2539,-6.1953,-6.0859,-6.0859,-6.041,-5.957,-5.873,-5.7695,-5.6445,-5.4375,-5.1714,-4.8747,-4.6986,-4.564,-4.4662,-4.4355,-4.4432,-4.4662,-4.4355,-4.4239,-4.4028,-4.2701,-4.0912,-3.9115,-3.8151,-3.7648,-3.7582,-3.8462,-3.8837,-3.9399,-4.1163,-4.1516,-4.1479,-4.1837,-4.1906,-4.1515,-4.0175,-3.99,-3.9478,-3.8102,-3.7184,-3.6266,-3.5165,-3.4509,-3.4142,-3.4142,-3.5114,-3.6138,-3.6978,-3.801,-3.8707,-3.8707,-3.823,-3.7823,-3.7529,-3.6042,-3.4633,-3.3537,-3.221,-3.0536,-2.8389,-2.684,-2.5416,-2.4144,-2.2915,-2.2296,0.0,0.0,0.0,0.0,0.0,0.0,0.0,0.0,0.0,0.0,0.0,0.0,0.0,0.0,0.0,0.0,0.0,0.0,0.0,0.0,0.0,0.0,0.0,0.0,0.0,0.0,-5.2375,-5.2327,-5.5145,-5.603,-5.3433,-5.3222,-5.4299,-5.6876,-5.8534,-6.048,-6.2896,-6.4274,-6.5043,-6.5176,-6.5742,-6.5488,-6.4316,-6.4863,-6.4297,-6.2558,-6.2558,-6.1797,-6.039,-6.039,-5.9805,-5.873,-5.8144,-5.7246,-5.6055,-5.4609,-5.2366,-4.973,-4.8225,-4.6984,-4.599,-4.571,-4.5594,-4.5594,-4.5594,-4.5421,-4.4844,-4.2874,-4.1296,-4.0046,-3.9469,-3.9084,-3.9084,-4.0239,-4.0169,-3.9992,-4.1302,-4.1411,-4.1161,-4.1092,-4.1089,-4.0799,-3.9735,-3.9496,-3.9331,-3.8799,-3.8267,-3.7658,-3.6835,-3.6229,-3.583,-3.583,-3.634,-3.7015,-3.7804,-3.8377,-3.8597,-3.8322,-3.7823,-3.7162,-3.6317,-3.5,-3.3642,-3.2284,-3.0944,-2.9424,-2.768,-2.6277,-2.5042,-2.3929,-2.2849,-2.2296,-2.2296,0.0,0.0,0.0,0.0,0.0,0.0,0.0,0.0,0.0,0.0,0.0,0.0,0.0,0.0,0.0,0.0,0.0,0.0,0.0,0.0,0.0,0.0,0.0,-4.5614,-5.1568,-5.5222,-5.3703,-5.8646,-6.0562,-5.6376,-5.8954,-6.1243,-6.2159,-6.3242,-6.4622,-6.6348,-6.6741,-6.6914,-6.6894,-6.6875,-6.6035,-6.4316,-6.4277,-6.3379,-6.166,-6.166,-6.1191,-6.0312,-6.0312,-5.9414,-5.7851,-5.7832,-5.6855,-5.5195,-5.4297,-5.2377,-4.9896,-4.8881,-4.7824,-4.6768,-4.5922,-4.5594,-4.5594,-4.5594,-4.5056,-4.4201,-4.3393,-4.2547,-4.1827,-4.1808,-4.1181,-4.0843,-4.2547,-4.1797,-4.0622,-4.1141,-4.0469,-3.9548,-3.9205,-3.8913,-3.8726,-3.8707,-3.8707,-3.8707,-3.8707,-3.8707,-3.845,-3.7676,-3.7547,-3.7547,-3.7547,-3.7547,0.0,-3.8597,-3.8707,-3.8395,-3.7621,-3.7492,-3.6483,-3.4045,-3.4454,-3.383,-3.1452,-3.0503,-2.9515,-2.8325,-2.6461,-2.4945,-2.3877,-2.2832,-2.2296,-2.2296,0.0,0.0,0.0,0.0,0.0,0.0,0.0,0.0,0.0,0.0,0.0,0.0,0.0,0.0,0.0,0.0,0.0,0.0,0.0,0.0,0.0,0.0,-4.9846,-5.0952,-5.4857,-5.8319,-6.03,-6.2531,-6.3455,-6.2262,-6.2435,-6.3243,-6.4743,-6.5238,-6.6011,-6.7211,-6.7501,-6.7404,-6.6914,-6.6289,-6.543,-6.4316,-6.3672,-6.248,-6.0762,-6.0762,-6.0,-5.8594,-5.8594,-5.7988,-5.6914,-5.6289,-5.5371,-5.4238,-5.2734,-5.1282,-4.9908,-4.8896,-4.752,-4.6054,-4.5731,-4.5594,-4.5594,-4.5594,-4.5441,-4.5094,-4.4239,-4.3412,-4.2624,-4.1981,-4.1181,-4.0593,-4.1073,-4.0881,-4.0519,-4.0674,-4.0613,-4.0306,-3.9625,-3.9505,-3.9405,-3.8836,-3.8707,-3.8707,-3.8707,-3.8707,-3.8634,-3.8414,-3.8377,-3.8377,-3.8377,0.0,0.0,-3.867,-3.8707,-3.8615,-3.8395,-3.7331,-3.6101,-3.4784,-3.2729,-3.0742,0.0,-2.7486,-2.6306,-2.5387,-2.461,-2.3821,-2.3055,-2.2542,-2.2296,0.0,0.0,0.0,0.0,0.0,0.0,0.0,0.0,0.0,0.0,0.0,0.0,0.0,0.0,0.0,0.0,0.0,0.0,0.0,0.0,0.0,0.0,-5.0033,-5.4414,-5.7069,-5.9146,-6.1262,-6.357,-6.4916,-6.5647,-6.5647,-6.5532,-6.5859,-6.6878,-6.6815,-6.6986,-6.7561,-6.7516,-6.7137,-6.6387,-6.5859,-6.5019,-6.3769,-6.3242,-6.2129,-6.039,-6.039,-5.9512,-5.789,-5.789,-5.7422,0.0,-5.5683,-5.4805,-5.3867,-5.2129,-5.0662,0.0,0.0,0.0,0.0,0.0,-4.5594,-4.5594,-4.5594,-4.5594,-4.5402,-4.4182,-4.347,-4.2931,-4.2058,-4.1181,-4.0573,-4.0931,-4.0785,-4.0496,-4.0496,-4.0396,-4.0179,-3.9712,-3.9495,-3.9276,-3.8799,-3.8707,-3.8707,-3.8707,0.0,0.0,-3.8248,-3.8487,-3.8707,-3.8707,-3.8414,-3.8193,0.0,-3.79,-3.7551,-3.7187,-3.6307,-3.5147,-3.361,-3.2087,0.0,0.0,0.0,-2.5826,-2.4512,-2.384,0.0,0.0,0.0,-2.2296,0.0,0.0,0.0,0.0,-2.2296,-2.2296,0.0,0.0,0.0,0.0,0.0,0.0,0.0,0.0,0.0,0.0,0.0,0.0,0.0,0.0,0.0,0.0,-5.3759,-5.7953,-6.2781,-6.3519,-6.3878,-6.4647,-6.6128,-6.709,-6.709,-6.7898,-6.8442,-6.8552,-6.7948,-6.7625,-6.7736,0.0,0.0,0.0,0.0,-6.4551,-6.3027,-6.289,-6.1973,-6.0254,-6.0254,-5.9375,-5.7754,-5.7754,-5.7285,-5.6406,-5.5527,-5.4668,-5.3711,-5.1875,-5.0117,-4.8452,-4.746,-4.6976,-4.674,-4.5913,-4.5594,0.0,0.0,0.0,0.0,-4.372,-4.3104,-4.2816,-4.2019,-4.1181,-4.0669,-4.145,-4.1104,-4.0496,-4.0496,-4.0072,-3.9645,-3.9611,-3.9149,-3.875,-3.8707,-3.8707,-3.8707,-3.8707,-3.8707,-3.8469,-3.7768,-3.8138,-3.856,-3.856,-3.797,0.0,-3.7492,-3.6886,-3.6101,-3.5243,0.0,0.0,-3.1733,-3.2027,-3.1335,-2.9005,-2.8117,-2.6849,-2.5082,-2.4011,-2.3608,-2.3962,-2.2945,-2.2381,-2.2296,-2.2296,-2.2296,-2.2296,-2.2296,-2.2296,0.0,0.0,0.0,0.0,0.0,0.0,0.0,0.0,0.0,0.0,0.0,0.0,0.0,0.0,0.0,-5.2633,-5.6982,-6.0877,-6.3916,-6.4955,-6.5455,-6.5628,-6.6513,-6.709,-6.709,-6.7898,-6.8686,-6.9398,-6.8204,-6.7784,-6.8617,-6.6709,0.0,-6.5605,-6.4238,-6.334,-6.3008,-6.2305,-6.1094,-5.9433,0.0,0.0,-5.6855,-5.6855,-5.6387,-5.5508,-5.4629,-5.3769,-5.2773,-5.0371,-4.8245,-4.6465,-4.6231,-4.604,-4.5847,-4.567,-4.5594,-4.5594,-4.5594,-4.5152,-4.4489,-4.4162,-4.3143,-4.2019,-4.1846,-4.1181,0.0,-4.0708,-4.0631,-4.0496,-4.0496,-4.0258,-3.9951,-3.9656,-3.9308,-3.8957,-3.875,-3.8707,-3.8707,-3.8707,-3.8707,-3.8652,-3.8487,-3.8046,-3.7731,-3.7731,-3.7603,-3.7492,-3.7492,-3.7364,-3.696,-3.6138,-3.5426,-3.4289,-3.2509,-3.1317,-2.9916,-2.8136,-2.7273,-2.6654,-2.6278,-2.5482,-2.4827,-2.4317,-2.3563,-2.2885,-2.2296,-2.2296,-2.2296,-2.2296,-2.2296,-2.2296,0.0,0.0,0.0,0.0,0.0,0.0,0.0,0.0,0.0,0.0,0.0,-4.2516,0.0,0.0,-5.2792,-5.6757,-6.0028,-6.2801,-6.4955,-6.5628,-6.5897,-6.5897,-6.6609,-6.7263,-6.7705,-6.8552,-6.9052,-6.9052,-6.84,-6.7667,-6.6888,-6.586,-6.4955,-6.4223,-6.3416,-6.2793,-6.2344,-6.1484,-6.043,-5.9199,-5.8769,-5.7851,-5.6601,-5.6601,-5.6367,-5.5879,-5.457,-5.375,-5.3125,-5.0137,-4.8012,-4.6599,-4.6099,-4.5789,-4.5594,-4.5594,-4.5594,-4.5594,-4.5594,-4.5037,-4.422,-4.3835,-4.2835,-4.1712,-4.1277,-4.0854,-4.0496,-4.0496,-4.0496,-4.0496,-4.0496,-4.0304,-4.0061,-3.9891,-3.9481,-3.9058,-3.8937,-3.8788,-3.8707,-3.8707,-3.8707,-3.8579,-3.8175,-3.7768,-3.7639,-3.8043,-3.7419,-3.6905,-3.6905,-3.617,-3.5477,-3.5092,-3.4669,-3.3903,-3.2693,-3.1115,-2.9512,-2.7897,-2.742,-2.7016,-2.662,-2.5895,-2.5149,-2.4399,-2.3743,-2.3038,-2.2296,-2.2296,-2.2296,-2.2296,-2.2296,-2.2296,0.0,0.0,0.0,0.0,0.0,0.0,0.0,0.0,-4.001,-4.2286,-4.4654,-4.7425,-5.0979,-5.377,-5.6749,-6.0465,-6.2462,-6.4109,-6.5686,-6.5743,-6.5647,-6.5647,-6.6513,-6.7378,-6.809,-6.8936,-6.9167,-6.8442,-6.8208,-6.7182,-6.516,-6.4836,-6.4139,-6.2831,-6.274,-6.2304,-6.1465,-6.0742,-5.9902,-5.8945,-5.8242,-5.7441,-5.6601,-5.6601,-5.6426,-5.5996,-5.4258,-5.3418,-5.3047,-5.0293,-4.845,-4.7316,-4.6511,-4.5972,-4.5635,-4.5612,-4.5594,-4.5594,-4.5594,-4.5037,-4.4162,-4.3355,-4.2508,-4.1643,-4.0766,-4.0496,-4.0496,-4.0496,-4.0496,-4.0496,-4.0496,-4.0339,-4.0158,-4.011,-3.9679,-3.9251,-3.9139,-3.8919,-3.8762,-3.8704,-3.8707,-3.8487,-3.7841,-3.7731,-3.7915,-3.8395,-3.7349,-3.6468,-3.6321,-3.511,-3.4156,-3.3825,-3.3807,-3.3421,-3.2449,-3.1035,-2.9641,-2.8356,-2.8117,-2.7805,-2.7328,-2.6507,-2.5615,-2.4655,-2.4033,-2.326,-2.2296,-2.2296,-2.2296,-2.2296,-2.2296,-2.2296,-3.5044,-3.6102,-3.786,-3.9918,-4.0416,-4.1352,0.0,0.0,-4.6526,-4.8288,-5.0563,-5.2727,-5.4258,-5.6963,-5.9708,-6.2005,-6.354,-6.4782,-6.5763,-6.5224,-6.4743,-6.4743,-6.6128,-6.7128,-6.7244,-6.8032,-6.85,-6.8417,-6.7032,-6.6136,-6.5964,-6.385,-6.2685,-6.2808,-6.2059,-6.1307,-6.0547,-6.0449,-5.9609,-5.8047,-5.7949,-5.7441,-5.6601,-5.6601,-5.5762,-5.4199,-5.2441,-5.1289,-5.0605,-5.0215,-4.9017,-4.7398,-4.7274,-4.6636,-4.5749,-4.5643,-4.5594,-4.5594,-4.5594,-4.5037,-4.4162,-4.3355,-4.2508,-4.1643,-4.0766,-4.0496,-4.0496,-4.0496,-4.0496,-4.0496,-4.0496,-4.0481,-4.0389,-4.0158,-4.0032,-3.9838,-3.9225,-3.9072,-3.8985,-3.875,-3.8707,-3.867,-3.8579,-3.8579,-3.8358,-3.7731,-3.7474,-3.7107,-3.6376,-3.6138,-3.544,-3.3954,-3.3807,-3.3183,-3.1672,-3.0705,-3.0118,-2.9934,-2.9262,-2.9152,-2.9769,-2.8686,-2.7264,-2.5509,-2.51,-2.4038,-2.2296,-2.2296,-2.2296,-2.2296,-2.2296,-2.2296,-3.72,-3.8766,-4.0653,0.0,-4.3535,-4.5278,-4.7957,-4.893,-4.9848,-5.1958,-5.3555,-5.518,-5.7091,-5.9344,-6.1193,0.0,-6.3542,-6.4551,-6.4416,-6.3666,-6.2954,-6.2454,-6.3455,-6.457,-6.5551,-6.5974,-6.6186,-6.6186,-6.5532,-6.4747,-6.3825,-6.2849,-6.2195,-6.1938,-6.1654,-6.1145,-6.041,-5.9941,-5.9101,-5.789,-5.7383,-5.6953,-5.6582,-5.6074,-5.4883,-5.3164,-5.1933,-5.0937,-5.0117,-4.9101,-4.8222,-4.7452,-4.6864,-4.6368,-4.5946,-4.577,-4.5665,-4.5537,-4.5017,-4.4605,-4.4085,-4.2777,-4.2104,-4.1643,-4.0766,-4.0496,-4.0496,-4.0496,-4.0496,-4.0496,-4.0496,-4.0496,-4.0473,-4.0356,-4.0204,-4.0022,-3.9742,-3.9541,-3.9308,-3.9004,-3.8919,-3.8884,-3.8719,-3.8707,-3.8597,-3.8248,-3.7804,-3.7382,-3.7052,-3.6156,-3.5096,-3.3917,-3.3807,-3.333,-3.221,-3.1788,-3.1403,-3.0925,-3.0136,-2.9861,-3.0191,-2.905,-2.7518,-2.5646,-2.5263,-2.4181,-2.2296,-2.2296,-2.2296,-2.2296,-2.2296,-2.2296,-3.878,-4.0665,0.0,-4.4121,-4.6489,-4.8838,-5.027,-5.1389,-5.2619,-5.4363,-5.5188,-5.632,-5.8625,-6.0239,-6.1516,-6.2284,-6.3647,-6.4378,-6.3762,-6.2762,-6.1793,-6.0896,-6.0954,-6.1608,-6.3051,-6.3839,-6.4243,-6.4243,-6.4032,-6.3378,-6.2159,-6.1964,-6.1675,-6.1233,-6.113,-6.0726,-5.9995,-5.9218,-5.8398,-5.7539,-5.6894,-5.6601,-5.6562,-5.5449,-5.4121,-5.2637,-5.1543,-5.0742,-5.0078,-4.8574,-4.7812,-4.7539,-4.6804,-4.6337,-4.608,-4.5944,-4.5783,-4.5525,-4.4611,-4.4297,-4.4028,-4.2335,-4.1788,-4.1643,-4.0766,-4.0342,-4.0227,-4.0439,-4.0169,-3.9919,-4.0381,-4.0342,-4.0227,-4.0458,-4.0356,-4.0186,-4.011,-3.9912,-3.9634,-3.9302,-3.916,-3.9036,-3.8826,-3.8747,-3.8707,-3.8707,-3.8193,-3.7749,-3.7529,-3.6248,-3.5041,-3.4229,-3.4137,-3.3733,-3.2693,-3.2601,-3.2344,-3.177,-3.0779,-3.0301,-3.0522,-2.9265,-2.777,-2.6106,-2.5531,-2.4417,-2.2781,-2.2437,-2.2296,-2.2296,-2.2296,-2.2296,-3.8669,0.0,-4.3057,-4.6214,-4.9444,-5.2068,-5.2913,-5.4326,-5.5464,-5.5559,-5.5596,-5.6249,-5.833,-5.9178,-6.0484,-6.3289,-6.4219,-6.4589,-6.457,-6.3128,-6.1793,-6.0896,-5.9396,-5.8742,0.0,-6.1897,-6.3327,-6.3327,-6.2627,-6.2159,-6.2101,-6.1293,-6.0899,-6.1006,-6.0384,-5.9699,-5.8945,-5.8274,-5.75,-5.664,-5.6601,-5.6601,-5.6543,-5.4824,-5.3555,-5.2617,-5.0957,-5.0215,-5.0137,-4.9238,-4.8359,-4.7598,-4.7578,-4.6964,-4.6108,-4.6084,-4.5959,-4.5653,-4.4649,-4.4297,-4.4028,-4.2335,-4.1788,-4.1643,-4.0766,-3.9958,-3.9496,-4.0285,-3.9335,-3.845,-4.0073,-3.9919,-3.9534,-4.0304,-4.0489,-4.0425,-4.0158,-4.0091,-3.9992,-3.9645,-3.9314,-3.9099,-3.9085,-3.8869,-3.8707,-3.8707,-3.8689,-3.8377,-3.7603,-3.6776,-3.5936,-3.5059,-3.4968,-3.4325,-3.2729,-3.2601,-3.2583,-3.2564,-3.1091,-3.0558,-3.1342,-2.9831,-2.8438,-2.7272,-2.6142,-2.5033,-2.3944,-2.2829,-2.2296,-2.2296,-2.2296,-2.2296,-4.0113,0.0,-4.6269,-4.9536,-5.1977,-5.4087,-5.5959,-5.64,-5.6235,-5.5702,-5.4748,-5.406,-5.4232,-5.577,-5.737,-5.8331,-6.051,-6.207,-6.207,-6.1089,-5.9858,-5.8454,-5.83,0.0,0.0,0.0,0.0,-6.155,-6.0839,-6.0627,-6.1204,-6.0954,-6.0618,-6.0222,-6.0067,-5.9382,-5.8125,-5.7962,-5.7461,-5.6601,-5.6601,-5.5683,-5.4004,-5.4004,-5.3203,-5.1738,-5.0078,-4.9336,-4.9238,-4.7773,-4.6992,-4.6738,-4.6738,-4.6523,-4.6224,-4.6122,-4.5688,-4.499,-4.3936,-4.3879,-4.3932,-4.1662,-4.1335,-4.1643,-4.0766,-3.9938,-3.9361,-3.9631,-3.9304,-3.8996,-3.9554,-3.99,-4.0169,-4.0439,-4.0496,-4.0473,-4.0381,-4.0364,-4.0276,-3.9983,-3.9829,-3.969,-3.9462,-3.9171,-3.8909,-3.8719,-3.8707,-3.8414,-3.7603,-3.6813,-3.5973,-3.5096,-3.4509,-3.3977,-3.344,-3.3403,-3.3403,-3.3403,-3.188,-3.1109,-3.1397,-2.9861,-2.8212,-2.6549,-2.6135,-2.5129,-2.3467,-2.2851,-2.2577,-2.2563,-2.2388,-2.2296,-4.2341,-4.546,-4.882,-5.238,-5.4271,-5.5666,-5.7226,-5.673,-5.5629,-5.4528,-5.2784,-5.1432,-5.1355,-5.2326,-5.3569,-5.4893,-5.6799,-5.8511,-5.9723,-5.9165,-5.8434,-5.7953,-5.8127,0.0,0.0,0.0,0.0,-6.0223,-6.0108,-6.0204,-6.0762,-6.08,-6.0468,-5.9727,-5.9537,-5.8859,-5.7611,-5.7434,-5.695,-5.6133,-5.6133,-5.4922,-5.2715,-5.2969,-5.2305,-5.0879,-4.918,-4.8437,-4.832,-4.6894,-4.6308,-4.6308,-4.6308,-4.6113,-4.5859,-4.6084,-4.5402,-4.4253,-4.347,-4.3323,-4.3142,-4.1155,-4.0873,-4.1239,-4.0669,-3.9938,-3.9304,-3.9304,-3.9092,-3.8911,-3.9227,-3.9688,-4.015,-4.0439,-4.0496,-4.0496,-4.0496,-4.0496,-4.0457,-4.0286,-4.0167,-4.0022,-3.9808,-3.9389,-3.9049,-3.8869,-3.8762,-3.8505,-3.7991,-3.7477,-3.6725,-3.5591,-3.5,-3.4449,-3.3844,-3.3807,-3.3807,-3.3807,-3.2559,-3.1696,-3.1415,-3.0136,-2.8569,-2.6743,-2.6312,-2.5272,-2.3626,-2.2995,-2.2647,-2.255,-2.2374,-2.2296,-4.5259,-4.7884,-5.0637,-5.4678,-5.6198,-5.6748,-5.6748,-5.5464,-5.3812,-5.2142,-4.9848,-4.8458,0.0,0.0,-4.9413,-5.3086,-5.3499,-5.4528,-5.7896,-5.7692,-5.7769,0.0,0.0,0.0,0.0,0.0,0.0,-5.9435,0.0,-6.0742,-6.08,-6.08,-6.0377,-5.9473,-5.8829,-5.8122,-5.7342,-5.6714,-5.6011,-5.5234,-5.5273,-5.4355,-5.2617,-5.1777,-5.0957,-5.0098,-4.8359,-4.7598,-4.7539,-4.666,-4.6308,-4.6308,-4.6308,-4.5781,-4.5176,-4.5996,-4.5169,-4.3575,-4.3311,-4.2683,-4.1841,-4.0841,-4.0512,-4.0512,-4.0496,-3.9938,-3.9304,-3.9304,-3.87,-3.8257,-3.9092,-3.9323,-3.9554,-4.0323,-4.0496,-4.0496,-4.0496,-4.0496,-4.0496,-4.0496,-4.0285,-4.011,-4.0101,-3.9576,-3.9152,-3.9139,-3.888,-3.8723,-3.8707,-3.867,-3.8046,-3.6523,-3.6321,-3.5642,-3.4009,-3.3862,-3.3844,-3.3807,-3.3041,-3.2247,-3.1433,-3.0632,-2.9439,-2.7835,-2.67,-2.5577,-2.4461,-2.3277,-2.2586,-2.2349,-2.231,-2.2296,-4.8508,-5.0875,-5.2949,-5.5794,-5.6198,-5.5904,-5.5904,-5.4197,-5.1958,-4.9719,-4.7315,-4.535,0.0,0.0,0.0,-5.0367,-5.3486,0.0,-5.8842,-5.9569,0.0,-6.0416,0.0,-5.9281,-5.9473,-5.9319,0.0,0.0,-5.9704,-6.0108,-6.0762,-6.08,-6.0127,-5.8646,-5.8539,-5.7799,-5.6303,-5.6366,-5.5698,-5.4336,-5.498,-5.4043,-5.1719,-5.1504,-5.0957,-5.0098,-4.8359,-4.7598,-4.7539,-4.666,-4.6308,-4.6308,-4.6308,-4.6152,-4.5996,-4.6211,-4.5195,-4.3666,-4.3536,-4.2871,-4.1913,-4.0963,-4.0655,-4.0636,-4.0523,-3.9938,-3.9304,-3.9304,-3.915,-3.9015,-3.9246,-3.9746,-4.0246,-4.0458,-4.0496,-4.0496,-4.0496,-4.0496,-4.0496,-4.0496,-4.043,-4.0339,-4.0129,-3.9972,-3.9765,-3.9517,-3.9192,-3.8937,-3.8719,-3.8175,-3.7658,-3.7235,-3.6666,-3.5862,-3.4784,-3.4692,-3.4435,-3.3844,-3.3041,-3.2247,-3.1433,-3.0632,-2.9439,-2.7835,-2.6933,-2.6034,-2.5131,-2.3755,-2.3051,-2.297,-2.2508,-2.2296,-5.1041,-5.3298,-5.5207,-5.6895,-5.6455,-5.5339,-5.4252,-5.2123,-4.9572,-4.6764,-4.4562,0.0,-4.1956,0.0,0.0,0.0,0.0,0.0,-5.7324,-5.8569,-5.955,0.0,-6.0358,0.0,-6.0069,-6.0069,-6.0069,0.0,-6.0069,-6.0281,-6.0762,-6.08,-6.0031,-5.8357,-5.8373,-5.7592,-5.5915,-5.6236,-5.5569,-5.3915,-5.4471,-5.3555,-5.1387,-5.0644,-5.0058,-4.9531,0.0,-4.7031,-4.6992,-4.6504,-4.6308,-4.6308,-4.6308,-4.6074,-4.5723,-4.5723,-4.4629,-4.3125,-4.3099,-4.2474,-4.159,-4.095,-4.0715,-4.068,-4.061,-4.0236,-3.9746,-3.94,-3.9554,-3.9746,-3.94,-3.99,-4.0496,-4.0496,-4.0496,-4.0496,-4.0496,-4.0496,-4.0496,-4.0496,-4.0496,-4.0457,-4.0313,-4.0177,-4.0051,-3.9859,-3.9522,-3.9205,-3.8909,-3.8387,-3.7896,-3.7547,-3.6795,-3.5954,-3.5078,-3.4674,-3.427,-3.3825,-3.3385,-3.2779,-3.1953,-3.1146,-2.9971,-2.8356,-2.7548,-2.6669,-2.5692,-2.4509,-2.3803,-2.3523,-2.2798,-2.2412,-5.3203,-5.5225,-5.6969,-5.7666,-5.6547,-5.4638,-5.2215,-4.9682,-4.6948,-4.3809,0.0,-4.0912,-4.0802,-4.0569,-4.1642,-4.5468,0.0,-4.9778,-5.5267,-5.6703,-5.8119,-6.0666,-6.0858,-6.0839,-6.0954,-6.0858,-6.08,-6.08,-6.08,-6.08,-6.08,-6.0685,-5.9858,-5.8184,-5.803,-5.7234,-5.5761,-5.6028,-5.5308,-5.3601,-5.374,-5.2889,-5.1149,-4.9609,-4.8828,-4.8612,0.0,0.0,-4.6308,-4.6308,-4.6308,-4.6308,-4.6308,-4.584,-4.5156,-4.5039,-4.3965,-4.2558,-4.2441,-4.1875,-4.1151,-4.0911,-4.0794,-4.0735,-4.0713,-4.0636,-4.038,-3.9687,-3.9973,-4.0342,-3.965,-3.9977,-4.0496,-4.0496,-4.0496,-4.0496,-4.0496,-4.0496,-4.0496,-4.0496,-4.0496,-4.0496,-4.0496,-4.0313,-4.0187,-4.0301,-3.9948,-3.9602,-3.9413,-3.9007,-3.8474,-3.7731,-3.6942,-3.6101,-3.5261,-3.4431,-3.3917,-3.3807,-3.3807,-3.344,-3.2619,-3.1935,-3.0797,-2.9189,-2.8374,-2.7419,-2.6312,-2.5459,-2.4802,-2.4261,-2.3345,-2.2781,-5.5574,-5.6492,-5.684,-5.6969,-5.5299,-5.2986,-5.0583,-4.7572,0.0,0.0,-4.0763,-3.99,-3.9239,-4.0131,-4.2279,-4.6318,-4.8267,0.0,0.0,0.0,-5.9011,0.0,0.0,0.0,0.0,0.0,0.0,0.0,0.0,0.0,-6.08,-6.0127,-5.8954,-5.7291,-5.653,-5.574,-5.4924,-5.498,-5.4186,-5.2552,-5.269,-5.182,-5.0041,-4.9266,-4.8453,-4.7609,0.0,0.0,-4.6308,-4.6308,-4.6308,-4.6308,-4.6308,-4.6211,-4.5996,-4.5273,-4.4355,-4.3379,-4.2656,-4.1875,-4.1171,-4.1021,-4.0955,-4.0933,-4.0817,-4.0722,-4.0636,-4.0507,-4.0479,-4.0477,-4.0323,-4.04,-4.0496,-4.0496,-4.0496,-4.0496,-4.0496,-4.0496,-4.0496,-4.0496,-4.0496,-4.0496,-4.0496,-4.0465,-4.0691,-4.1393,-4.0654,-4.0231,-4.0836,-3.9815,-3.8892,-3.8517,-3.7768,-3.696,-3.6138,-3.5279,-3.4509,-3.3844,-3.3807,-3.344,-3.2619,-3.2472,-3.1641,-3.0026,-2.9207,-2.837,-2.75,-2.6418,-2.5846,-2.5703,-2.4621,-2.3954,-5.6271,-5.7116,-5.7317,-5.6914,-5.4675,-5.183,-4.8948,0.0,0.0,0.0,-3.9551,-3.9166,-3.8781,-3.968,0.0,-4.4477,-4.6108,0.0,0.0,0.0,0.0,0.0,0.0,0.0,0.0,0.0,0.0,0.0,0.0,0.0,-6.0127,-5.8896,-5.7819,-5.7041,-5.6145,-5.5353,-5.4591,-5.4675,-5.3865,-5.2188,-5.1914,-5.1086,-4.977,-4.8557,-4.7789,-4.7362,0.0,0.0,-4.6308,-4.6308,-4.6308,-4.6308,-4.6308,-4.6308,-4.6133,-4.4805,-4.4062,-4.3516,-4.2226,-4.1523,-4.1191,-4.1127,-4.1054,-4.099,-4.092,-4.0824,-4.0738,-4.0701,-4.0642,-4.0602,-4.0519,-4.0496,-4.0496,-4.0496,-4.0496,-4.0496,-4.0496,-4.0854,-4.1181,-4.1181,-4.1546,-4.17,-4.1258,-4.1546,-4.1681,-4.12,-4.1033,-4.0919,-4.0692,-3.9913,-3.9244,-3.8952,-3.8201,-3.7488,-3.6974,-3.5752,-3.4839,-3.4454,-3.4027,-3.3623,-3.3238,-3.243,-3.1604,-3.0834,-2.961,-2.8803,-2.8429,-2.7463,-2.6906,-2.6682,-2.5122,-2.4254,-5.6418,-5.7391,-5.7776,-5.6785,-5.4124,-5.0875,-4.759,-4.4342,0.0,0.0,-3.856,-3.8505,-3.867,-3.9074,-4.0161,0.0,-4.3713,-4.6234,0.0,0.0,0.0,0.0,0.0,0.0,0.0,0.0,0.0,0.0,0.0,0.0,0.0,-5.7734,-5.6907,-5.6733,-5.5876,-5.5049,-5.4222,-5.4146,-5.3323,-5.1796,-5.1107,-5.0314,-4.9388,-4.7889,-4.7147,-4.7025,0.0,0.0,0.0,-4.6289,-4.6308,-4.6308,-4.6308,-4.6308,-4.6094,-4.4336,-4.3691,-4.3457,-4.1777,-4.1191,-4.1191,-4.1191,-4.1128,-4.103,-4.103,-4.0955,-4.0836,-4.0781,-4.0729,-4.0687,-4.0574,-4.0527,-4.0496,-4.0496,-4.0496,-4.0554,-4.0746,-4.1316,-4.1865,-4.2038,-4.2624,-4.2874,-4.22,-4.2643,-4.2643,-4.1266,-4.1489,-4.1481,-4.0587,-4.0058,-3.966,-3.9339,-3.8262,-3.7544,-3.7504,-3.5807,-3.4821,-3.5004,-3.4234,-3.3715,-3.355,-3.2485,-3.1672,-3.1146,-3.0081,-2.9335,-2.9005,-2.8374,-2.7924,-2.7622,-2.5751,-2.469,-5.6565,-5.7391,-5.7629,-5.6088,-5.328,-5.005,-4.6764,0.0,-4.0728,-3.9056,-3.812,-3.7841,-3.8579,-3.8157,-3.8866,-4.2352,0.0,-4.5412,0.0,0.0,0.0,0.0,0.0,0.0,0.0,0.0,0.0,0.0,0.0,0.0,0.0,-5.708,-5.6637,-5.5838,-5.503,-5.4184,-5.3337,-5.2549,-5.1722,-5.0827,-5.0094,-4.9223,-4.8225,-4.7523,-4.6746,-4.5943,0.0,0.0,0.0,-4.6247,-4.6308,-4.6308,-4.6308,-4.6308,-4.6094,-4.4336,-4.3691,-4.3457,-4.1777,-4.1191,-4.1191,-4.1191,-4.1191,-4.1171,-4.1171,-4.1082,-4.0988,-4.0962,-4.0848,-4.0697,-4.068,-4.0582,-4.0496,-4.0496,-4.0496,-4.0727,-4.1508,-4.1731,-4.2019,-4.2835,-4.3047,-4.3066,-4.2989,-4.3047,-4.3047,-4.2893,-4.2258,-4.1769,-4.1668,-4.0929,-4.0311,-4.0032,-3.7872,-3.6732,-3.7437,-3.5293,-3.4215,-3.4949,-3.4234,-3.3476,-3.2729,-3.3275,-3.2559,-3.0356,-3.087,-3.0467,-2.9005,-2.8932,-2.8865,-2.8805,-2.7171,-2.6059,-5.5317,-5.6675,-5.7005,-5.5868,-5.317,-4.9939,-4.6654,0.0,-4.0636,-3.9038,-3.8046,-3.7749,-3.856,-3.8028,-3.8136,-4.0063,-4.0207,0.0,-4.6018,0.0,0.0,0.0,0.0,0.0,0.0,0.0,0.0,0.0,0.0,0.0,0.0,-5.4703,-5.478,-5.4972,-5.4164,-5.3299,-5.2423,-5.2077,-5.1241,-4.9923,-4.909,-4.8234,-4.7355,-4.6584,-4.6079,-4.5809,0.0,0.0,0.0,-4.617,-4.6225,-4.6308,-4.6308,-4.6308,-4.6094,-4.4336,-4.3691,-4.3457,-4.1777,-4.1191,-4.1191,-4.1191,-4.1191,-4.1191,-4.1191,-4.1151,-4.1104,-4.1023,-4.0939,-4.0855,-4.079,-4.0688,-4.0596,-4.0527,-4.0496,-4.0593,-4.0931,-4.1835,-4.2701,-4.3028,-4.3912,-4.4432,-4.3912,-4.3816,-4.3489,-4.247,-4.2019,-4.1604,-4.1085,-4.0567,-4.0213,-4.011,-3.8588,-3.761,-3.7719,-3.5763,-3.4656,-3.4986,-3.4234,-3.366,-3.3348,-3.3151,-3.2394,-3.0944,-3.076,-3.0118,-2.9005,-2.9005,-2.9005,-2.8957,-2.7636,-2.6886,-5.3261,-5.5115,-5.5904,-5.5078,-5.2619,-4.9554,0.0,0.0,-4.0636,-3.9038,-3.7863,-3.7401,-3.8193,-3.7694,-3.7419,-3.8212,0.0,-3.9748,-4.2944,0.0,0.0,0.0,0.0,0.0,0.0,0.0,0.0,0.0,0.0,0.0,0.0,-5.2722,-5.2972,-5.4087,-5.328,-5.2414,-5.1548,-5.1298,-5.0452,-4.9009,-4.8144,-4.7451,-4.6865,-4.599,-4.564,0.0,0.0,0.0,0.0,-4.6075,-4.6168,-4.6227,-4.5996,-4.5918,-4.5703,-4.3965,-4.332,-4.3105,-4.1699,-4.1191,-4.1191,-4.1191,-4.1191,-4.1191,-4.1191,-4.1191,-4.1171,-4.1081,-4.1026,-4.0964,-4.0824,-4.0757,-4.0707,-4.0582,-4.0559,-4.0622,-4.0831,-4.2047,-4.3162,-4.3412,-4.4624,-4.5421,-4.4778,-4.4682,-4.4201,-4.2758,-4.2335,-4.1873,-4.0989,-4.0722,-4.05,-4.0252,-3.9431,-3.8765,-3.8434,-3.6406,-3.5256,-3.5495,-3.4444,-3.3697,-3.3458,-3.3115,-3.2467,-3.1415,-3.0834,-3.0173,-2.9354,-2.9115,-2.9005,-2.8957,-2.7923,-2.7139,-5.0398,-5.2601,-5.4234,-5.3424,-5.1353,-4.8673,0.0,0.0,-4.0636,-3.9038,-3.7422,-3.656,-3.7364,-3.6835,-3.6593,-3.7382,-3.9114,0.0,-4.3108,0.0,0.0,0.0,0.0,0.0,0.0,0.0,0.0,0.0,0.0,0.0,0.0,0.0,-5.1491,-5.3164,-5.2365,-5.1529,-5.0731,-4.9856,-4.8971,-4.8105,-4.7298,-4.6904,-4.6865,-4.599,0.0,0.0,0.0,0.0,0.0,-4.6027,-4.6108,-4.6037,-4.531,-4.5019,-4.4805,-4.3066,-4.2402,-4.2305,-4.1484,-4.1191,-4.1191,-4.1191,-4.1191,-4.1191,-4.1191,-4.1191,-4.1191,-4.1191,-4.1103,-4.0964,-4.0824,-4.0797,-4.0788,-4.0713,-4.0697,-4.09,-4.1624,-4.2489,-4.3335,-4.4124,-4.4998,-4.5594,-4.5594,-4.5594,-4.5287,-4.4412,-4.3605,-4.2777,-4.1904,-4.1788,-4.1442,-4.0585,-4.0248,-3.9945,-3.9603,-3.7078,-3.582,-3.6634,-3.4866,-3.344,-3.2656,-3.3366,-3.3018,-3.1433,-3.1397,-3.0993,-3.0191,-2.939,-2.9005,-2.8987,-2.8172,-2.6764,-4.6856,-4.8416,-4.9351,-4.9094,-4.7608,-4.5663,-4.3552,-4.1625,-3.9974,-3.8927,-3.7863,-3.7382,-3.8175,-3.7661,-3.7566,-3.8924,-3.9657,0.0,0.0,0.0,0.0,0.0,0.0,0.0,0.0,0.0,0.0,0.0,0.0,0.0,0.0,0.0,-5.0943,-5.1471,-5.0644,-4.9779,-4.8933,-4.8644,-4.8105,-4.7278,-4.7019,-4.6586,-4.599,-4.5729,0.0,0.0,0.0,0.0,0.0,-4.4985,-4.4764,-4.4415,-4.474,-4.4563,-4.3965,-4.2812,-4.2402,-4.2285,-4.1484,-4.1191,-4.1191,-4.1191,-4.1191,-4.1191,-4.1191,-4.1191,-4.1191,-4.1191,-4.1171,-4.1104,-4.0964,-4.0947,-4.0908,-4.0792,-4.0731,-4.0763,-4.0997,-4.2121,-4.3181,-4.3431,-4.4624,-4.5594,-4.5594,-4.5114,-4.4624,-4.4335,-4.3624,-4.2797,-4.1904,-4.1788,-4.147,-4.0593,-4.0422,-4.0027,-3.9194,-3.707,-3.5792,-3.5881,-3.4729,-3.3888,-3.3453,-3.366,-3.3293,-3.2247,-3.1678,-3.0999,-3.021,-2.939,-2.9005,-2.8987,-2.8172,-2.7468,-4.3883,-4.5351,-4.6195,-4.6195,-4.5223,-4.3754,-4.1827,-4.0377,-3.9129,-3.8028,-3.7386,-3.7107,-3.7261,-3.7165,-3.7382,-3.8377,-3.8796,0.0,0.0,0.0,0.0,0.0,0.0,0.0,0.0,0.0,0.0,0.0,0.0,0.0,0.0,0.0,-4.9913,-4.9279,-4.9356,-4.8836,-4.7663,-4.7663,-4.724,-4.6413,-4.6413,-4.6124,-4.5594,0.0,0.0,0.0,0.0,0.0,0.0,-4.4112,-4.3786,-4.3477,-4.3682,-4.3537,-4.3061,-4.2182,-4.1892,-4.1875,-4.1367,-4.1191,-4.1191,-4.1191,-4.1191,-4.1191,-4.1191,-4.1191,-4.1191,-4.1191,-4.1191,-4.1171,-4.1102,-4.1078,-4.1049,-4.0911,-4.0848,-4.0805,-4.0752,-4.2046,-4.3194,-4.3153,-4.4515,-4.5657,-4.5612,-4.5152,-4.4778,-4.4778,-4.3835,-4.2893,-4.2354,-4.2,-4.147,-4.0593,-4.0785,-4.0584,-3.9595,-3.7976,-3.6962,-3.6793,-3.5871,-3.5053,-3.4467,-3.4436,-3.4002,-3.3073,-3.1953,-3.1146,-3.065,-2.9537,-2.9005,-2.8987,-2.8172,-2.764,0.0,-4.313,-4.4287,-4.4287,-4.3663,-4.2486,-4.0246,-3.9111,0.0,-3.6615,-3.6303,-3.6083,-3.5389,-3.5844,-3.6376,-3.6597,-3.7217,0.0,0.0,0.0,0.0,0.0,0.0,0.0,0.0,0.0,0.0,0.0,0.0,0.0,0.0,0.0,0.0,-4.6942,-4.8413,-4.8432,-4.6817,-4.6817,-4.6394,-4.5594,-4.5594,-4.5594,-4.5594,0.0,0.0,0.0,0.0,0.0,0.0,-4.3374,-4.3066,-4.2954,-4.2349,-4.214,-4.2104,-4.1306,-4.108,-4.1191,-4.1191,-4.1191,-4.1191,-4.1191,-4.1191,-4.1191,-4.1191,-4.1191,-4.1191,-4.1191,-4.1191,-4.1191,-4.1191,-4.1191,-4.1171,-4.1031,-4.1017,-4.0962,-4.085,-4.2128,-4.3276,-4.316,-4.4518,-4.5664,-4.5539,-4.5565,-4.5575,-4.5518,-4.4239,-4.3201,-4.3028,-4.2354,-4.1527,-4.0593,-4.1219,-4.1373,-4.0573,-3.9527,-3.8888,-3.8812,-3.7744,-3.661,-3.5452,-3.5391,-3.4884,-3.382,-3.221,-3.1342,-3.1231,-2.9721,-2.9005,-2.8987,-2.8117,-2.731,-3.9056,0.0,-4.012,-4.012,-3.9515,-3.8759,0.0,-3.7437,-3.6762,-3.6376,-3.6303,-3.6615,-3.7643,-3.7,-3.711,-3.9554,-3.9606,-4.0003,0.0,0.0,0.0,0.0,0.0,0.0,0.0,0.0,0.0,0.0,0.0,0.0,0.0,0.0,0.0,-4.6923,-4.7278,-4.699,-4.5913,-4.5913,-4.5806,-4.5594,-4.5594,-4.5594,-4.5594,0.0,0.0,0.0,0.0,0.0,0.0,-4.2198,-4.18,-4.1342,-4.1823,-4.167,-4.1136,-4.1037,-4.1023,-4.1055,-4.1151,-4.1191,-4.1191,-4.1191,-4.1191,-4.1191,-4.1191,-4.1191,-4.1191,-4.1191,-4.1191,-4.1191,-4.1191,-4.1191,-4.1191,-4.1151,-4.1078,-4.0992,-4.0959,-4.1724,-4.2399,-4.2368,-4.3674,-4.4802,-4.4754,-4.5232,-4.5364,-4.4701,-4.4844,-4.4316,-4.2354,-4.2508,-4.22,-4.0669,-4.0689,-4.0727,-4.0516,-3.9707,-3.8824,-3.7953,-3.6833,-3.5692,-3.4559,-3.4302,-3.4065,-3.3807,-3.221,-3.0797,-2.9555,-2.9189,-2.9005,-2.8968,-2.7537,-2.6778,-3.7367,-3.8138,-3.8799,-3.9166,-3.8652,-3.7936,-3.7584,-3.656,-3.5605,-3.522,-3.5459,-3.5862,-3.6358,-3.6046,-3.6413,-3.856,-3.8836,0.0,0.0,0.0,0.0,0.0,0.0,0.0,0.0,0.0,0.0,0.0,0.0,0.0,0.0,0.0,0.0,0.0,-4.6297,-4.6086,-4.5594,-4.5594,-4.5594,-4.5594,-4.5594,-4.5402,-4.4998,0.0,0.0,0.0,0.0,0.0,-4.1769,-4.1373,-4.0973,-4.0668,-4.1131,-4.1073,-4.0767,-4.0848,-4.0922,-4.1019,-4.1081,-4.115,-4.1191,-4.1191,-4.1191,-4.1191,-4.1191,-4.1191,-4.1191,-4.1191,-4.1191,-4.1191,-4.1191,-4.1191,-4.1191,-4.1191,-4.1149,-4.1082,-4.1082,-4.1709,-4.2225,-4.2208,-4.3226,-4.4045,-4.393,-4.4578,-4.4905,-4.4372,-4.4393,-4.3951,-4.2566,-4.2104,-4.1554,-4.0593,-4.0496,-4.0342,-3.9977,-3.9554,-3.9046,-3.8424,-3.7436,-3.6312,-3.5019,-3.4829,-3.4117,-3.2737,-3.1476,-3.0246,-2.9005,-2.9005,-2.9005,-2.8968,-2.7732,-2.7145,-3.6376,-3.7569,-3.8836,-3.9386,-3.9111,-3.8469,-3.7529,-3.6119,-3.4766,-3.3972,-3.4344,-3.4656,-3.41,-3.4546,0.0,0.0,0.0,0.0,0.0,0.0,0.0,0.0,0.0,0.0,0.0,0.0,0.0,0.0,0.0,0.0,0.0,0.0,0.0,0.0,-4.5577,-4.5594,-4.5594,-4.5594,-4.5594,-4.5594,-4.5479,-4.5017,-4.4297,-4.4162,0.0,0.0,0.0,0.0,-4.1546,-4.0804,-4.0496,-4.0496,-4.0496,-4.0574,-4.0667,-4.0692,-4.0809,-4.0933,-4.0834,-4.0883,-4.0976,-4.0996,-4.0996,-4.1035,-4.1152,-4.1191,-4.1191,-4.1191,-4.1191,-4.1191,-4.1191,-4.1191,-4.1191,-4.1191,-4.1191,-4.1191,-4.1191,-4.1738,-4.2206,-4.2142,-4.2804,-4.3296,-4.3073,-4.3724,-4.4197,-4.3957,-4.3451,-4.3008,-4.2739,-4.1527,-4.065,-4.0516,-4.0496,-4.0169,-3.9381,-3.9188,-3.9034,-3.8911,-3.8177,-3.7067,-3.5584,-3.5526,-3.4183,-3.1323,-3.0612,-2.9841,-2.9005,-2.9005,-2.9005,-2.8987,-2.8172,-2.7798,-3.6758,-3.7991,-3.8579,-3.8006,-3.8285,-3.8303,-3.6817,-3.5701,-3.4766,-3.3972,-3.3899,-3.4156,0.0,-3.4931,-3.55,0.0,0.0,0.0,0.0,0.0,0.0,0.0,0.0,0.0,0.0,0.0,0.0,0.0,0.0,0.0,0.0,0.0,0.0,0.0,0.0,-4.5594,-4.5594,-4.5594,-4.5594,-4.5594,-4.4855,-4.4432,-4.4278,-4.3585,-4.2816,0.0,0.0,0.0,-4.0689,-4.0554,-4.0496,-4.0496,-4.0496,-4.0512,-4.0537,-4.0668,-4.0726,-4.0665,-4.0098,-3.9905,-3.9958,-4.0057,-4.0098,-4.0234,-4.0976,-4.1191,-4.1191,-4.1191,-4.1191,-4.1191,-4.1191,-4.1191,-4.1191,-4.1191,-4.1191,-4.1191,-4.1191,-4.1308,-4.1387,-4.1366,-4.1883,-4.2323,-4.2289,-4.2854,-4.306,-4.2297,-4.272,-4.2566,-4.1093,-4.1316,-4.1316,-4.0573,-4.0496,-4.0169,-3.9381,-3.8623,-3.7873,-3.7161,-3.6752,-3.5729,-3.3854,-3.3777,-3.2818,-3.0753,-3.0604,-3.0039,-2.9005,-2.9005,-2.9005,-2.8987,-2.8172,-2.7798,-3.4412,-3.5771,-3.671,-3.6817,-3.8102,-3.8927,-3.7327,-3.5954,-3.5041,-3.5128,-3.4431,0.0,0.0,0.0,-3.6523,0.0,0.0,0.0,0.0,0.0,0.0,0.0,0.0,0.0,0.0,0.0,0.0,0.0,0.0,0.0,0.0,0.0,0.0,0.0,0.0,0.0,-4.4893,-4.447,-4.447,-4.4902,-4.4047,-4.3393,-4.2951,-4.2566,-4.1912,0.0,0.0,-4.0873,-4.0496,-4.0496,-4.0496,-4.0496,-4.0496,-4.0496,-4.0519,-4.0662,-4.0394,-4.002,-4.0232,-4.0031,-3.9792,-4.0316,-4.0543,-4.0684,-4.1074,-4.1191,-4.1191,-4.1191,-4.1191,-4.1191,-4.1191,-4.1191,-4.1191,-4.1191,-4.1191,-4.1191,-4.1191,-4.1191,-4.1191,-4.1191,-4.1415,-4.1595,-4.1521,-4.2087,-4.2408,-4.1968,-4.2194,-4.2104,-4.1316,-4.1143,-4.0777,-3.9938,-3.9842,-3.9323,-3.8007,-3.7526,-3.6942,-3.6096,-3.5361,-3.4539,-3.3655,-3.2609,-3.1647,-3.0779,-3.0339,-2.9869,-2.9377,-2.927,-2.9232,-2.9203,-2.868,-2.8448,-3.2381,-3.3647,-3.4821,-3.5312,-3.7404,-3.9071,-3.8025,-3.6633,-3.583,-3.6688,-3.5679,0.0,0.0,-3.5701,0.0,0.0,0.0,0.0,0.0,0.0,0.0,0.0,0.0,0.0,0.0,0.0,0.0,0.0,0.0,0.0,0.0,0.0,0.0,0.0,0.0,0.0,-4.3892,-4.3085,-4.3131,-4.4008,-4.3181,-4.245,-4.1788,-4.1585,-4.1123,-4.0496,-4.0496,-4.0496,-4.0496,-4.0496,-4.0496,-4.0496,-4.0496,-4.0381,-4.0223,-4.0327,-3.9817,-3.9151,-3.9694,-3.9633,-3.9441,-4.0135,-4.0582,-4.0896,-4.1092,-4.1171,-4.1191,-4.1191,-4.1191,-4.1191,-4.1191,-4.1191,-4.1191,-4.1191,-4.1191,-4.1191,-4.1191,-4.1191,-4.1191,-4.1191,-4.1171,-4.1126,-4.1021,-4.1442,-4.1717,-4.1477,-4.1499,-4.1397,-4.0992,-4.0673,-4.0112,-3.9111,-3.9188,-3.8527,-3.6577,-3.6231,-3.575,-3.4942,-3.4059,-3.3498,-3.3326,-3.1882,-3.096,-3.0691,-3.0076,-2.9756,-2.9705,-2.9551,-2.9474,-2.9455,-2.9214,-2.9089,-3.2381,-3.3238,-3.3715,-3.3041,-3.5293,-3.7841,-3.8469,-3.7936,-3.7547,-3.8358,0.0,0.0,0.0,0.0,0.0,0.0,0.0,0.0,0.0,0.0,0.0,0.0,0.0,0.0,0.0,0.0,0.0,0.0,0.0,0.0,0.0,0.0,0.0,0.0,0.0,0.0,-4.2736,-4.1867,-4.201,-4.3181,-4.2316,-4.1865,-4.1769,-4.095,-4.0554,-4.0496,-4.0496,-4.0496,-4.0496,-4.0496,-4.0496,-4.0496,-4.0496,-4.0035,-3.94,-3.9395,-3.8857,-3.8019,-3.7392,-3.7621,-3.8253,-3.8428,-3.9098,-3.9966,-4.0766,-4.1103,-4.1191,-4.1191,-4.1191,-4.1191,-4.1191,-4.1191,-4.1191,-4.1191,-4.1191,-4.1191,-4.1191,-4.1191,-4.1191,-4.1191,-4.1103,-4.1019,-4.0996,-4.0938,-4.0638,-3.9886,-4.0343,-4.0196,-3.8564,-3.9616,-3.9881,-3.8277,-3.8815,-3.8296,-3.5808,-3.4834,-3.4007,-3.3141,-3.3013,-3.2622,-3.1891,-3.1725,-3.1142,-3.0098,-3.0003,-2.9893,-2.9705,-2.9687,-2.9678,-2.967,-2.9465,-2.9372,-3.0889,-3.1696,-3.2467,-3.3164,-3.4284,-3.555,-3.6909,-3.7364,-3.7731,-3.8524,-3.8469,0.0,0.0,0.0,0.0,0.0,0.0,0.0,0.0,0.0,0.0,0.0,0.0,0.0,0.0,0.0,0.0,0.0,0.0,0.0,0.0,0.0,0.0,0.0,0.0,0.0,0.0,-4.0179,-3.9739,-4.0184,-4.0014,-4.0043,-4.0219,-3.99,-4.0035,-4.0496,-4.0496,-4.0496,-4.0496,-4.0496,-4.0496,-4.0496,-4.0496,-4.0015,-3.9304,-3.9304,-3.8411,-3.7303,-3.8104,-3.8298,-3.8338,-3.9451,-4.0049,-4.0442,-4.0773,-4.0964,-4.1055,-4.0966,-4.1019,-4.1083,-4.1171,-4.0801,-4.0527,-4.1074,-4.0781,-4.0547,-4.1074,-4.1191,-4.1191,-4.1191,-4.1151,-4.0951,-4.0405,-4.02,-3.9825,-3.8984,-3.9062,-3.8966,-3.8306,-3.8684,-3.8575,-3.7436,-3.7089,-3.6334,-3.4814,-3.3891,-3.3045,-3.2218,-3.216,-3.2025,-3.1718,-3.1173,-3.0681,-3.0254,-3.0254,-3.0221,-3.0135,-2.9973,-2.9821,-2.9696,-2.9484,-2.931,-2.898,-2.9641,-3.0589,-3.1953,-3.2871,-3.399,-3.6174,-3.7309,-3.8322,-3.9882,-3.9405,-3.8707,-3.8707,0.0,0.0,0.0,0.0,0.0,0.0,0.0,0.0,0.0,0.0,0.0,0.0,0.0,0.0,0.0,0.0,0.0,0.0,0.0,0.0,0.0,0.0,0.0,0.0,-3.8446,-3.7777,-3.7602,-3.7707,-3.8118,-3.8769,-3.885,-3.9188,-3.9727,-3.9996,-4.0131,-4.015,-4.04,-4.0496,-4.0458,-3.9919,-3.9381,-3.8854,-3.8584,-3.7565,-3.6481,-3.77,-3.8118,-3.8278,-3.9161,-3.9846,-4.0304,-4.0051,-4.0052,-4.0126,-4.0048,-4.0075,-4.0164,-4.0256,-4.0051,-3.9938,-4.0293,-4.0137,-4.0059,-4.0664,-4.1016,-4.1113,-4.084,-4.0781,-4.0508,-3.9648,-3.9408,-3.9062,-3.8183,-3.8215,-3.8144,-3.7618,-3.7901,-3.7836,-3.6985,-3.5827,-3.4757,-3.3859,-3.3006,-3.2179,-3.1346,-3.1288,-3.1288,-3.1288,-3.0712,-3.0404,-3.0404,-3.0404,-3.0404,-3.0404,-3.0209,-3.0066,-2.9931,-2.9687,-2.9494,-2.6833,-2.72,-2.7989,-2.8822,-3.084,-3.3476,-3.6776,-3.812,-3.9606,-4.2818,-4.0928,-3.8707,-3.8726,0.0,0.0,0.0,0.0,0.0,0.0,0.0,0.0,0.0,0.0,0.0,0.0,0.0,0.0,0.0,0.0,0.0,0.0,0.0,0.0,0.0,0.0,0.0,0.0,-3.669,-3.6412,-3.5885,-3.5603,-3.6227,-3.76,-3.7859,-3.7988,-3.8046,-3.8911,-3.9284,-3.9361,-4.015,-4.0477,-4.0304,-3.8642,-3.7988,-3.7873,-3.7019,-3.6192,-3.55,-3.5519,-3.6596,-3.7853,-3.6981,-3.7926,-3.9243,-3.8429,-3.8242,-3.8289,-3.8309,-3.8289,-3.8293,-3.8293,-3.8984,-3.9483,-3.8768,-3.9258,-3.9883,-3.9883,-4.0566,-4.0918,-4.0059,-3.9883,-3.9609,-3.873,-3.8594,-3.8281,-3.7422,-3.7915,-3.7773,-3.6116,-3.728,-3.7925,-3.6977,-3.532,-3.3914,-3.2968,-3.2166,-3.1333,-3.0462,-3.0404,-3.0404,-3.0404,-3.0404,-3.0404,-3.0404,-3.0404,-3.0404,-3.0404,-3.0404,-3.0404,-3.0398,-3.011,-2.9999,-2.7658,-2.7622,-2.8393,-3.0913,-3.2491,-3.4449,-3.8319,-3.8502,-3.8597,0.0,-4.0598,-3.9717,-4.027,0.0,0.0,0.0,0.0,0.0,0.0,0.0,0.0,0.0,0.0,0.0,0.0,0.0,0.0,0.0,0.0,0.0,0.0,0.0,0.0,0.0,0.0,0.0,0.0,0.0,-3.5143,-3.4408,-3.3954,-3.4779,-3.6686,-3.6774,-3.7244,-3.8007,-3.8277,-3.8392,-3.8392,-3.8642,-3.8738,-3.8681,-3.818,-3.7623,-3.7038,-3.6788,-3.6192,-3.5577,-3.6154,-3.6673,-3.7142,-3.7507,-3.7973,-3.8368,-3.8137,-3.8147,-3.821,-3.8115,-3.8167,-3.8089,-3.7463,-3.752,-3.7848,-3.8346,-3.8226,-3.8173,-3.8847,-3.9199,-3.9297,-3.9043,-3.8984,-3.8711,-3.7832,-3.7695,-3.7383,-3.6523,-3.6561,-3.6515,-3.5965,-3.6315,-3.6256,-3.5313,-3.4758,-3.3833,-3.2322,-3.1972,-3.1459,-3.0525,-3.0463,-3.0456,-3.041,-3.0404,-3.0404,-3.0404,-3.0404,-3.0404,-3.0404,-3.0404,-3.0305,-3.0122,-3.0047,-2.9924,-2.6993,-2.7321,-2.8576,-3.1794,-3.3715,-3.5679,-3.9111,0.0,0.0,0.0,0.0,-4.0139,0.0,0.0,0.0,0.0,0.0,0.0,0.0,0.0,0.0,0.0,0.0,0.0,0.0,0.0,0.0,0.0,0.0,0.0,0.0,0.0,0.0,0.0,0.0,0.0,0.0,0.0,0.0,-3.2847,-3.2514,-3.3127,-3.4538,-3.5063,-3.5865,-3.6876,-3.7298,-3.7617,-3.7824,-3.7574,-3.77,-3.793,-3.7276,-3.6885,-3.6654,-3.6346,-3.5923,-3.5577,-3.6058,-3.6423,-3.6731,-3.6949,-3.7219,-3.743,-3.7103,-3.7051,-3.7121,-3.7023,-3.707,-3.7003,-3.6489,-3.6329,-3.651,-3.7166,-3.7258,-3.7355,-3.7921,-3.8339,-3.8496,-3.8144,-3.8086,-3.7812,-3.6934,-3.6777,-3.6601,-3.6074,-3.5996,-3.5995,-3.5947,-3.5631,-3.5209,-3.4606,-3.3916,-3.3067,-3.1981,-3.1569,-3.1145,-3.0587,-3.0545,-3.0513,-3.0477,-3.0428,-3.0404,-3.0404,-3.0404,-3.0404,-3.0404,-3.0404,-3.0144,-2.9659,-3.0003,-2.9904,-2.5655,-2.6696,-2.8613,-3.1977,-3.4743,-3.7221,-3.9478,-4.1699,-4.3259,-4.3203,0.0,0.0,0.0,0.0,0.0,0.0,0.0,0.0,0.0,0.0,0.0,0.0,0.0,0.0,0.0,0.0,0.0,0.0,0.0,0.0,0.0,0.0,0.0,0.0,0.0,0.0,0.0,0.0,0.0,0.0,-3.1286,-3.1407,-3.1696,-3.3089,-3.4222,-3.5117,-3.6086,-3.6837,-3.7306,-3.6769,-3.6978,-3.7466,-3.5974,-3.5769,-3.6269,-3.5615,-3.5385,-3.5385,-3.5462,-3.5981,-3.6462,-3.5731,-3.5981,-3.6442,-3.5635,-3.5442,-3.5481,-3.5404,-3.5442,-3.55,-3.55,-3.5442,-3.5432,-3.5631,-3.637,-3.7063,-3.7068,-3.7743,-3.8125,-3.7324,-3.7187,-3.6934,-3.6133,-3.5996,-3.5976,-3.5898,-3.5879,-3.5859,-3.5762,-3.5078,-3.4529,-3.4407,-3.2963,-3.1954,-3.1813,-3.109,-3.0623,-3.0614,-3.0614,-3.0611,-3.0603,-3.0472,-3.0408,-3.0408,-3.039,-3.0404,-3.0404,-3.0404,-2.9981,-2.9242,-3.0019,-2.9987,-2.7129,-2.7541,-2.887,-3.3353,-3.6817,-3.9423,-4.0579,-4.1242,-4.1442,-4.0799,0.0,0.0,0.0,0.0,0.0,0.0,0.0,0.0,0.0,0.0,0.0,0.0,0.0,0.0,0.0,0.0,0.0,0.0,0.0,0.0,0.0,0.0,0.0,0.0,0.0,0.0,-3.1397,-3.1397,-3.1085,0.0,-3.0467,-3.0484,-3.0597,-3.2362,-3.3763,-3.4803,-3.5031,-3.5201,-3.5324,-3.5412,-3.516,-3.4679,-3.4548,-3.416,-3.3776,-3.4295,-3.4468,-3.4584,-3.525,-3.5615,-3.5731,-3.5558,-3.5615,-3.5596,-3.4737,-3.4968,-3.5365,-3.4661,-3.4968,-3.55,-3.55,-3.4988,-3.4661,-3.5367,-3.5755,-3.595,-3.6012,-3.6255,-3.6423,-3.6247,-3.6245,-3.6211,-3.6035,-3.5996,-3.5762,-3.5078,-3.498,-3.4726,-3.4043,-3.3809,-3.3437,-3.2791,-3.2381,-3.1873,-3.1166,-3.0931,-3.0788,-3.0684,-3.068,-3.0642,-3.0606,-3.0513,-3.0477,-3.0477,-3.0428,-3.0404,-3.0404,-3.0404,-3.0308,-3.0115,-3.0308,-3.0308,-2.6593,-2.778,-3.0118,-3.4981,0.0,-4.0487,-4.0524,-4.023,-3.9717,0.0,0.0,0.0,0.0,0.0,0.0,0.0,0.0,0.0,0.0,0.0,0.0,0.0,0.0,0.0,0.0,0.0,0.0,0.0,0.0,0.0,0.0,0.0,0.0,0.0,0.0,0.0,-2.9108,-2.9108,-2.9072,-2.9053,-2.9053,-2.9457,-3.0258,-3.1748,-3.2745,-3.3325,-3.3457,-3.3418,-3.3335,-3.361,-3.3523,-3.3241,-3.3374,-3.3229,-3.2968,-3.341,-3.3583,-3.3699,-3.4584,-3.4603,-3.4308,-3.4737,-3.4603,-3.418,-3.3718,-3.418,-3.4776,-3.434,-3.4834,-3.5404,-3.4988,-3.4545,-3.4205,-3.4257,-3.4328,-3.4628,-3.5463,-3.5441,-3.5339,-3.5727,-3.5887,-3.5948,-3.5948,-3.5623,-3.5078,-3.4219,-3.4082,-3.3906,-3.3457,-3.3066,-3.2656,-3.2246,-3.1836,-3.1211,-3.0351,-3.0273,-3.0253,-3.0188,-3.0168,-3.0338,-3.0731,-3.0288,-2.9995,-2.9927,-2.9486,-2.9245,-2.9245,-2.9611,-2.9583,-2.9217,-3.0038,-3.0173,-2.568,-2.8077,-3.1623,-3.5822,-3.8579,0.0,-3.9423,-3.8652,-3.7826,0.0,0.0,0.0,0.0,0.0,0.0,0.0,0.0,0.0,0.0,0.0,0.0,0.0,0.0,0.0,0.0,0.0,0.0,0.0,0.0,0.0,0.0,0.0,0.0,0.0,0.0,-2.7273,-2.6602,-2.6602,-2.6924,-2.7585,-2.7585,-2.8282,-2.9616,-3.0509,-3.1213,-3.1745,-3.1962,-3.195,-3.1756,-3.2022,-3.2191,-3.226,-3.2319,-3.2332,-3.2364,-3.2518,-3.2595,-3.2756,-3.3621,-3.3468,-3.3026,-3.3744,-3.3487,-3.2872,-3.2737,-3.3295,-3.3955,-3.3821,-3.4391,-3.4885,-3.416,-3.3878,-3.3628,-3.3045,-3.2753,-3.3132,-3.496,-3.4887,-3.4655,-3.5332,-3.5457,-3.5445,-3.5453,-3.4893,-3.4179,-3.332,-3.3184,-3.3144,-3.2988,-3.2383,-3.1914,-3.1777,-3.1113,-3.0312,-2.9453,-2.9375,-2.9434,-2.959,-2.9609,-2.9922,-3.0644,-2.9797,-2.9164,-2.8919,-2.8323,-2.8012,-2.8008,-2.8637,-2.866,-2.8158,-2.9553,-2.9869,-2.634,-2.9433,-3.2601,0.0,-3.5624,-3.6909,0.0,0.0,0.0,0.0,0.0,0.0,0.0,0.0,0.0,0.0,0.0,0.0,0.0,0.0,0.0,0.0,0.0,0.0,0.0,0.0,0.0,0.0,0.0,0.0,0.0,0.0,-2.6859,-2.6759,-2.6759,0.0,-2.6602,-2.6602,-2.6638,-2.6759,-2.6759,-2.6869,-2.709,-2.7224,-2.8809,-3.147,-3.1489,-3.1489,-3.1476,-3.1745,-3.1464,-3.0888,-3.1119,-3.0774,-3.0223,-3.0978,-3.1369,-3.1649,-3.2516,-3.2847,-3.291,-3.3045,-3.2987,-3.2776,-3.2064,-3.2429,-3.2929,-3.2237,-3.2622,-3.3218,-3.3103,-3.2564,-3.2179,-3.2756,-3.1794,-3.142,-3.3853,-3.4362,-3.4361,-3.4478,-3.3996,-3.3573,-3.364,-3.3552,-3.3231,-3.2461,-3.2363,-3.209,-3.1328,-3.1133,-3.0781,-3.0039,-2.9844,-2.9414,-2.8555,-2.8476,-2.8809,-2.9551,-2.9609,-2.9648,-2.9766,-2.8925,-2.8104,-2.7322,-2.7818,-2.8097,-2.8097,-2.8185,-2.8508,-2.9027,-2.9254,-2.9665,-2.7032,-2.8629,-3.032,0.0,-3.3348,-3.4229,-3.4229,0.0,0.0,0.0,0.0,0.0,0.0,0.0,0.0,0.0,0.0,0.0,0.0,0.0,0.0,0.0,0.0,0.0,0.0,0.0,0.0,0.0,0.0,0.0,0.0,-2.6602,-2.6392,-2.5933,-2.5944,0.0,-2.5254,-2.5254,-2.5474,-2.5933,-2.6374,-2.6602,-2.6602,-2.6602,-2.7365,-2.8705,-2.8705,-2.8962,-2.9389,-2.9499,-2.9697,-2.9934,-3.0056,-2.9936,-2.9742,-3.0129,-3.033,-3.0528,-3.1398,-3.1516,-3.1364,-3.1842,-3.1776,-3.1423,-3.1077,-3.1564,-3.216,-3.1795,-3.2275,-3.2795,-3.2333,-3.1968,-3.1679,-3.1519,-3.0942,-3.0846,-3.2449,-3.2817,-3.3007,-3.3534,-3.3365,-3.3008,-3.2599,-3.2511,-3.2246,-3.1425,-3.1292,-3.1027,-3.0224,-3.0128,-2.9799,-2.8965,-2.8867,-2.8516,-2.7656,-2.7578,-2.7734,-2.8125,-2.8144,-2.8359,-2.8848,-2.8027,-2.7383,-2.7012,-2.6809,-2.6697,-2.6697,-2.7145,-2.7789,-2.8595,-2.9057,-2.9718,-2.6736,0.0,-2.7985,-2.9738,-3.0944,-3.1739,0.0,0.0,0.0,0.0,0.0,0.0,0.0,0.0,0.0,0.0,0.0,0.0,0.0,0.0,0.0,0.0,0.0,0.0,0.0,0.0,0.0,0.0,0.0,0.0,-2.5865,-2.5947,-2.5713,-2.5117,-2.5099,-2.4805,-2.4208,-2.419,-2.4511,-2.5099,-2.5695,-2.5988,-2.5988,-2.5988,-2.5988,-2.6007,-2.6418,-2.6943,-2.7493,-2.7493,-2.8083,-2.8994,-2.8994,-2.9199,-2.9514,-2.9514,-2.9579,-2.9729,-3.0368,-3.0292,-3.0026,-3.0681,-3.0624,-3.0292,-3.0235,-3.0714,-3.1271,-3.1271,-3.1693,-3.2052,-3.1513,-3.1371,-3.1212,-3.0558,-3.0404,-3.0635,-3.1506,-3.1698,-3.1914,-3.2613,-3.2575,-3.2226,-3.1637,-3.1534,-3.1326,-3.07,-3.0431,-3.01,-2.954,-2.9274,-2.8838,-2.8,-2.7924,-2.7574,-2.6717,-2.6639,-2.6757,-2.6973,-2.6992,-2.7285,-2.7949,-2.7344,-2.6894,-2.668,-2.5971,-2.5632,-2.5632,-2.6226,-2.6959,-2.7805,-2.8639,-2.9466,0.0,-2.5782,0.0,-2.6867,-2.8033,0.0,0.0,0.0,0.0,0.0,0.0,0.0,0.0,0.0,0.0,0.0,0.0,0.0,0.0,0.0,0.0,0.0,0.0,0.0,0.0,0.0,0.0,0.0,0.0,0.0,-2.3851,-2.4154,-2.43,-2.4263,-2.4263,-2.4245,-2.419,-2.419,-2.4226,-2.4263,-2.43,-2.4318,-2.4318,-2.4318,-2.4318,-2.441,-2.5952,-2.662,-2.6657,-2.6657,-2.7137,-2.7893,-2.7893,-2.8353,-2.9033,-2.9033,-2.9192,-2.9423,-2.946,-2.9598,-2.9722,-2.9779,-2.9891,-2.9984,-2.9788,-2.9907,-3.0097,-3.0097,-3.0116,-3.0197,-3.04,-3.0462,-3.0462,-3.0404,-3.0404,-3.0635,-3.1506,-3.1698,-3.1718,-3.1768,-3.1114,-3.0543,-3.0567,-3.057,-3.0583,-3.0594,-2.9947,-2.9447,-2.941,-2.8681,-2.7848,-2.697,-2.6872,-2.6541,-2.5738,-2.5663,-2.6044,-2.6933,-2.6992,-2.7012,-2.707,-2.7012,-2.6602,-2.5781,-2.5723,-2.5683,-2.5683,-2.5742,-2.6166,-2.6978,-2.7857,-2.8651,0.0,0.0,0.0,-2.5912,-2.6358,-2.6906,0.0,0.0,0.0,0.0,0.0,0.0,0.0,0.0,0.0,0.0,0.0,0.0,0.0,0.0,0.0,0.0,0.0,0.0,0.0,0.0,0.0,0.0,0.0,0.0,-2.338,-2.3482,-2.366,-2.3876,-2.3886,-2.3986,-2.419,-2.419,-2.419,-2.419,-2.419,-2.419,-2.419,-2.419,-2.419,-2.4226,-2.4814,-2.5346,-2.5833,-2.5833,-2.63,-2.7034,-2.7034,-2.753,-2.8227,-2.8227,-2.8625,-2.9145,-2.9145,-2.893,-2.8774,-2.9326,-2.9294,-2.9112,-2.9561,-2.9738,-2.9804,-2.9804,-2.9804,-2.9853,-3.0075,-3.0143,-3.0143,-3.0143,-3.0143,-3.0219,-3.0552,-3.0733,-3.0865,-3.0865,-3.0615,-3.0402,-3.0439,-3.0449,-3.0253,-2.9728,-2.9389,-2.8836,-2.7794,-2.7397,-2.688,-2.6055,-2.5963,-2.5853,-2.5561,-2.5541,-2.5687,-2.6016,-2.6076,-2.6104,-2.6104,-2.6131,-2.6016,-2.5703,-2.5703,-2.5703,-2.5703,-2.5703,-2.6132,-2.6988,-2.7867,-2.8703,-2.4904,0.0,0.0,0.0,0.0,-2.5209,0.0,0.0,0.0,0.0,0.0,0.0,0.0,0.0,0.0,0.0,0.0,0.0,0.0,0.0,0.0,0.0,0.0,0.0,0.0,0.0,0.0,0.0,0.0,0.0,-2.3033,-2.3141,-2.3357,-2.3692,-2.3703,-2.3847,-2.4208,-2.419,-2.419,-2.419,-2.419,-2.419,-2.419,-2.419,-2.419,-2.419,-2.419,-2.4511,-2.5007,-2.5007,-2.5466,-2.619,-2.619,-2.6686,-2.7402,-2.7402,-2.7915,-2.8565,-2.829,-2.812,-2.8046,-2.8369,-2.8222,-2.8103,-2.8849,-2.912,-2.9222,-2.9513,-2.9598,-2.9662,-2.9845,-2.9901,-2.9901,-2.9901,-2.9901,-2.9901,-2.9901,-3.0095,-3.0299,-3.0373,-3.0404,-3.0308,-3.0,-2.9967,-2.9679,-2.8819,-2.8453,-2.7864,-2.6803,-2.641,-2.6033,-2.5483,-2.5431,-2.5444,-2.5451,-2.5474,-2.5485,-2.5508,-2.5547,-2.5563,-2.5563,-2.5605,-2.5634,-2.5634,-2.5634,-2.5634,-2.5634,-2.5682,-2.5996,-2.6582,-2.7461,-2.8496,0.0,0.0,0.0,0.0,0.0,0.0,0.0,0.0,0.0,0.0,0.0,0.0,0.0,0.0,0.0,0.0,0.0,0.0,0.0,0.0,0.0,0.0,0.0,0.0,0.0,0.0,0.0,0.0,0.0,-2.2682,-2.2682,-2.3009,-2.3335,-2.366,-2.3682,-2.3837,-2.417,-2.418,-2.418,-2.418,-2.4208,-2.419,-2.419,-2.419,-2.419,-2.419,-2.419,-2.419,-2.419,-2.419,-2.4658,-2.5356,-2.5356,-2.587,-2.6547,-2.6547,-2.7071,-2.764,-2.6869,-2.7108,-2.7603,-2.6851,-2.6723,-2.6972,-2.7609,-2.7935,-2.8276,-2.9132,-2.9373,-2.9397,-2.9596,-2.9677,-2.9705,-2.9696,-2.9696,-2.9696,-2.9696,-2.9826,-3.0023,-3.0317,-3.0373,-3.011,-2.9231,-2.9102,-2.8819,-2.7992,-2.714,-2.6601,-2.6563,-2.5827,-2.5308,-2.5308,-2.5308,-2.5336,-2.5387,-2.5395,-2.5418,-2.5481,-2.5506,-2.5508,-2.5508,-2.551,-2.5491,-2.5491,-2.5491,-2.5491,-2.5491,-2.5633,-2.5683,-2.5723,-2.6582,-2.793,-2.5224,0.0,0.0,0.0,0.0,0.0,0.0,0.0,0.0,0.0,0.0,0.0,0.0,0.0,0.0,0.0,0.0,0.0,0.0,0.0,0.0,0.0,0.0,0.0,0.0,0.0,0.0,0.0,0.0,-2.2398,-2.2398,-2.2691,-2.2885,-2.2972,-2.32,-2.338,-2.3488,-2.3714,-2.3837,-2.3837,-2.4084,-2.419,-2.419,-2.419,-2.419,-2.419,-2.419,-2.419,-2.419,-2.419,-2.4318,-2.453,-2.453,-2.5026,-2.5723,-2.5723,-2.6245,-2.6906,-2.6686,-2.6355,-2.6127,-2.6484,-2.6242,-2.6063,-2.7397,-2.7834,-2.8046,-2.8872,-2.8699,-2.8294,-2.8492,-2.9119,-2.9661,-2.9523,-2.9474,-2.9474,-2.9474,-2.9036,-2.8881,-2.9734,-3.0011,-2.9855,-2.902,-2.8994,-2.8607,-2.7178,-2.6755,-2.6365,-2.5731,-2.5442,-2.5308,-2.5308,-2.5308,-2.5303,-2.5336,-2.534,-2.5335,-2.535,-2.5409,-2.5428,-2.5428,-2.5465,-2.5491,-2.5491,-2.5491,-2.5491,-2.5491,-2.5543,-2.5556,-2.5575,-2.6503,-2.7554,-2.5404,-2.5152,0.0,0.0,0.0,0.0,0.0,-2.419,0.0,0.0,0.0,0.0,0.0,0.0,0.0,0.0,0.0,0.0,0.0,0.0,0.0,0.0,0.0,0.0,0.0,0.0,0.0,0.0,-2.2296,-2.2296,-2.2296,-2.245,-2.2573,-2.2695,-2.2898,-2.3057,-2.32,-2.3533,-2.3639,-2.35,-2.3827,-2.3996,-2.3996,-2.3996,-2.4074,-2.419,-2.419,-2.419,-2.419,-2.419,-2.419,-2.419,-2.419,-2.4493,-2.4897,-2.4897,-2.5411,-2.6043,-2.5713,-2.5511,-2.5411,-2.5566,-2.5273,-2.5136,-2.6403,-2.6806,-2.6972,-2.7758,-2.7658,-2.7408,-2.7853,-2.8442,-2.8958,-2.9175,-2.8976,-2.8717,-2.8717,-2.8061,-2.7828,-2.8964,-2.9017,-2.8616,-2.7773,-2.7738,-2.7364,-2.6039,-2.5848,-2.5676,-2.5155,-2.5091,-2.5091,-2.5091,-2.5091,-2.5101,-2.5163,-2.5168,-2.5214,-2.5284,-2.5339,-2.5363,-2.5363,-2.5398,-2.5431,-2.5431,-2.5431,-2.5431,-2.5431,-2.5463,-2.5491,-2.551,-2.6054,-2.6804,-2.5519,-2.5168,-2.4992,0.0,0.0,0.0,-2.4275,-2.4209,0.0,0.0,0.0,0.0,0.0,0.0,0.0,0.0,0.0,0.0,0.0,0.0,0.0,0.0,0.0,0.0,0.0,0.0,0.0,-2.2296,-2.2296,-2.2296,-2.2296,-2.2296,-2.2398,-2.2647,-2.266,-2.2802,-2.3099,-2.3432,-2.3437,-2.3153,-2.3471,-2.3631,-2.3631,-2.3631,-2.3806,-2.4084,-2.4084,-2.4084,-2.4094,-2.4141,-2.417,-2.419,-2.419,-2.419,-2.419,-2.419,-2.4658,-2.5154,-2.4456,-2.4677,-2.5154,-2.4428,-2.419,-2.4355,-2.5154,-2.5393,-2.554,-2.6264,-2.6539,-2.6741,-2.7365,-2.7603,-2.7842,-2.8565,-2.8191,-2.7658,-2.7658,-2.7034,-2.6804,-2.7935,-2.7668,-2.6986,-2.6114,-2.5997,-2.5729,-2.4917,-2.4804,-2.4804,-2.4804,-2.4804,-2.4804,-2.4804,-2.4804,-2.4849,-2.4968,-2.498,-2.5053,-2.5238,-2.5243,-2.5248,-2.5264,-2.5269,-2.5274,-2.5308,-2.5308,-2.5308,-2.5308,-2.5415,-2.5473,-2.5481,-2.5481,-2.5917,0.0,0.0,0.0,0.0,0.0,0.0,-2.4486,-2.4321,-2.419,0.0,0.0,0.0,0.0,0.0,0.0,0.0,0.0,0.0,0.0,0.0,0.0,0.0,0.0,0.0,0.0,0.0,-2.2296,-2.2296,-2.2296,-2.2296,-2.2296,-2.2296,-2.2321,-2.2374,-2.2374,-2.2415,-2.2467,-2.2738,-2.286,-2.281,-2.3129,-2.3311,-2.3311,-2.3311,-2.3335,-2.3392,-2.3392,-2.3392,-2.3414,-2.3692,-2.3966,-2.419,-2.419,-2.419,-2.419,-2.419,-2.43,-2.441,-2.4245,-2.43,-2.442,-2.4245,-2.419,-2.4355,-2.5154,-2.5393,-2.5429,-2.5595,-2.6098,-2.6484,-2.5999,-2.6337,-2.6869,-2.7024,-2.695,-2.6833,-2.6833,-2.619,-2.5709,-2.5946,-2.6526,-2.6727,-2.5889,-2.5888,-2.5729,-2.4917,-2.4804,-2.4804,-2.4804,-2.4804,-2.4804,-2.4804,-2.4804,-2.4818,-2.4835,-2.4835,-2.4849,-2.4902,-2.4908,-2.4949,-2.5046,-2.5071,-2.5122,-2.5303,-2.5308,-2.5308,-2.5308,-2.5336,-2.5375,-2.5418,-2.5418,-2.5534,0.0,0.0,0.0,-2.4962,0.0,0.0,0.0,-2.4266,-2.43,0.0,0.0,0.0,0.0,0.0,0.0,0.0,0.0,0.0,0.0,0.0,0.0,0.0,0.0,0.0,0.0,0.0,-2.2296,-2.2296,-2.2296,-2.2296,-2.2296,-2.2296,-2.2296,-2.2296,-2.2296,-2.2296,-2.2296,-2.2577,-2.2634,-2.25,-2.2802,-2.296,-2.296,-2.296,-2.3045,-2.32,-2.32,-2.32,-2.3212,-2.338,-2.3555,-2.3724,-2.4074,-2.4094,-2.3976,-2.4141,-2.4094,-2.3958,-2.4151,-2.4094,-2.3937,-2.3937,-2.3837,-2.3815,-2.4379,-2.4669,-2.4776,-2.459,-2.484,-2.5149,-2.5149,-2.5459,-2.591,-2.646,-2.6282,-2.5988,-2.5988,-2.5374,-2.4805,-2.4805,-2.5216,-2.543,-2.5014,-2.5039,-2.4978,-2.4559,-2.4503,-2.4503,-2.4503,-2.4503,-2.4503,-2.4503,-2.4503,-2.4545,-2.4639,-2.4647,-2.4693,-2.4797,-2.4804,-2.4828,-2.4897,-2.4904,-2.4955,-2.5056,-2.5056,-2.5056,-2.5056,-2.5056,-2.5157,-2.5346,-2.5346,-2.5375,0.0,0.0,0.0,0.0,0.0,-2.4708,0.0,0.0,0.0,-2.5026,0.0,0.0,0.0,0.0,0.0,0.0,0.0,0.0,0.0,0.0,0.0,0.0,0.0,0.0,0.0,0.0,-2.2296,-2.2296,-2.2296,-2.2296,-2.2296,-2.2296,-2.2296,-2.2296,-2.2296,-2.2296,-2.2296,-2.2514,-2.2514,-2.231,-2.2527,-2.2621,-2.2621,-2.2621,-2.2764,-2.3026,-2.3026,-2.3026,-2.3026,-2.3081,-2.3105,-2.3165,-2.3774,-2.3837,-2.3649,-2.3907,-2.3827,-2.3649,-2.3917,-2.3827,-2.3599,-2.3599,-2.3414,-2.3247,-2.3522,-2.3795,-2.3947,-2.3682,-2.3599,-2.3743,-2.4408,-2.457,-2.48,-2.5732,-2.5458,-2.4975,-2.4975,-2.4472,-2.4006,-2.4006,-2.4006,-2.4054,-2.418,-2.419,-2.419,-2.419,-2.419,-2.419,-2.419,-2.419,-2.419,-2.419,-2.419,-2.4275,-2.4436,-2.4435,-2.4512,-2.467,-2.4685,-2.47,-2.4738,-2.4782,-2.4804,-2.4804,-2.4804,-2.4804,-2.4804,-2.4804,-2.4948,-2.5192,-2.5192,-2.5192,0.0,0.0,0.0,0.0,-2.4884,0.0,0.0,0.0,-2.4226,-2.4318,0.0,0.0,0.0,0.0,0.0,0.0,0.0,0.0,0.0,0.0,0.0,0.0,0.0,0.0,0.0,0.0,0.0,-2.2296,-2.2296,-2.2296,-2.2296,-2.2296,-2.2296,-2.2296,-2.2296,-2.2296,-2.2296,-2.2321,-2.2321,-2.2296,-2.2321,-2.2349,-2.2349,-2.2349,-2.2377,-2.2388,-2.2388,-2.2388,-2.2415,-2.2665,-2.2759,-2.2797,-2.3165,-2.33,-2.3247,-2.3311,-2.33,-2.3247,-2.3311,-2.33,-2.3265,-2.3265,-2.3224,-2.32,-2.3253,-2.3271,-2.3311,-2.3259,-2.3265,-2.3283,-2.3372,-2.3389,-2.3419,-2.3572,-2.3519,-2.3448,-2.3448,-2.3376,-2.3305,-2.3305,-2.3305,-2.3511,-2.4094,-2.419,-2.419,-2.419,-2.419,-2.419,-2.419,-2.419,-2.419,-2.419,-2.419,-2.4209,-2.4237,-2.4237,-2.4247,-2.4275,-2.4257,-2.4339,-2.4537,-2.4708,-2.4804,-2.4804,-2.4804,-2.4804,-2.4804,-2.4804,-2.4825,-2.4861,-2.4861,-2.4861,0.0,0.0,0.0,0.0,0.0,0.0,0.0,0.0,-2.4318,0.0,0.0,0.0,0.0,0.0,0.0,0.0,0.0,0.0,0.0,0.0,0.0,0.0,0.0,0.0,0.0,0.0,0.0,0.0,0.0,-2.2296,-2.2296,-2.2296,-2.2296,-2.2296,-2.2296,-2.2296,-2.2296,-2.2296,-2.2296,-2.2296,-2.2296,-2.2296,-2.2296,-2.2296,-2.2296,-2.2296,-2.2296,-2.2296,-2.231,-2.2426,-2.2463,-2.249,-2.262,-2.2768,-2.2935,-2.3129,-2.3081,-2.2947,-2.3129,-2.3081,-2.2885,-2.2721,-2.2781,-2.291,-2.291,-2.3045,-2.3153,-2.2972,-2.294,-2.2958,-2.2923,-2.291,-2.296,-2.3153,-2.32,-2.32,-2.32,-2.32,-2.32,-2.32,-2.32,-2.33,-2.3566,-2.3785,-2.3907,-2.3907,-2.4074,-2.4141,-2.3927,-2.3907,-2.3845,-2.3649,-2.361,-2.3692,-2.3896,-2.3907,-2.3996,-2.418,-2.419,-2.4237,-2.433,-2.441,-2.4444,-2.4444,-2.4444,-2.4444,-2.4444,-2.4444,-2.4444,-2.4452,-2.4693,-2.4804,-2.4923,0.0,0.0,0.0,0.0,0.0,0.0,0.0,0.0,0.0,0.0,0.0,0.0,0.0,0.0,0.0,0.0,0.0,0.0,0.0,0.0,0.0,0.0,0.0,0.0,0.0,0.0,0.0,-2.2296,0.0,-2.2296,-2.2296,-2.2296,-2.2296,-2.2296,-2.2296,-2.2296,-2.2296,-2.2296,-2.2296,-2.2296,-2.2296,-2.2296,-2.2296,-2.2296,-2.2296,-2.2296,-2.2296,-2.2296,-2.2296,-2.2296,-2.2296,-2.2296,-2.2426,-2.2625,-2.287,-2.2807,-2.2625,-2.2883,-2.2789,-2.2563,-2.236,-2.244,-2.2586,-2.2586,-2.2768,-2.2908,-2.2665,-2.2634,-2.2651,-2.2603,-2.2586,-2.2652,-2.2908,-2.2958,-2.2958,-2.2958,-2.2958,-2.2958,-2.2958,-2.2958,-2.2958,-2.2958,-2.3288,-2.3566,-2.3566,-2.3774,-2.3837,-2.3588,-2.3566,-2.3459,-2.3242,-2.32,-2.3311,-2.3544,-2.3566,-2.3671,-2.3907,-2.3927,-2.3927,-2.3927,-2.3927,-2.3927,-2.3927,-2.3927,-2.3927,-2.3927,-2.3927,-2.3927,-2.3937,-2.4407,-2.4631,0.0,0.0,0.0,-2.4561,0.0,0.0,0.0,0.0,-2.5154,0.0,0.0,0.0,0.0,0.0,-2.3951,-2.3171,0.0,0.0,0.0,0.0,0.0,0.0,0.0,0.0,0.0,0.0,0.0,0.0,-2.2296,0.0,-2.2296,-2.2296,-2.2296,-2.2296,-2.2296,-2.2296,-2.2296,-2.2296,-2.2296,-2.2296,-2.2296,-2.2296,-2.2296,-2.2296,-2.2296,-2.2296,-2.2296,-2.2296,-2.2296,-2.2296,-2.2296,-2.2296,-2.2296,-2.231,-2.2307,-2.2307,-2.2324,-2.2307,-2.2338,-2.2324,-2.231,-2.231,-2.231,-2.2307,-2.2307,-2.2324,-2.2338,-2.2324,-2.2307,-2.2324,-2.2307,-2.2307,-2.2324,-2.2338,-2.2338,-2.2338,-2.2338,-2.2338,-2.2338,-2.2338,-2.2338,-2.2338,-2.2338,-2.2824,-2.323,-2.323,-2.3242,-2.3224,-2.323,-2.323,-2.32,-2.32,-2.32,-2.32,-2.323,-2.323,-2.3212,-2.3224,-2.3224,-2.3224,-2.3224,-2.3224,-2.3224,-2.3224,-2.3224,-2.3224,-2.3224,-2.3224,-2.3224,-2.3247,-2.3917,-2.4218,0.0,0.0,-2.4393,-2.4321,0.0,0.0,0.0,0.0,0.0,0.0,0.0,0.0,0.0,0.0,-2.4116,-2.3841,-2.4025,0.0,0.0,0.0,0.0,0.0,0.0,0.0,0.0,0.0,0.0,-2.2296,-2.2296,-2.2296,0.0,-2.2296,-2.2296,-2.2296,-2.2296,-2.2296,-2.2296,-2.2296,-2.2296,-2.2296,-2.2296,-2.2296,-2.2296,-2.2296,-2.2296,-2.2296,-2.2296,-2.2296,-2.2296,-2.2296,-2.2296,-2.2296,-2.2296,-2.2296,-2.2296,-2.2296,-2.2296,-2.2296,-2.2296,-2.2296,-2.2296,-2.2296,-2.2296,-2.2296,-2.2296,-2.2296,-2.2296,-2.2296,-2.2296,-2.2296,-2.2296,-2.2296,-2.2296,-2.2296,-2.2296,-2.2296,-2.2296,-2.2296,-2.2296,-2.2296,-2.2296,-2.2296,-2.2296,-2.247,-2.2656,-2.2835,-2.3057,-2.3117,-2.291,-2.2873,-2.2802,-2.2607,-2.2611,-2.2669,-2.286,-2.3069,-2.32,-2.32,-2.32,-2.32,-2.32,-2.32,-2.32,-2.32,-2.32,-2.32,-2.32,-2.32,-2.32,-2.32,-2.3426,-2.3544,-2.4357,-2.4303,0.0,0.0,-2.419,0.0,-2.419,0.0,0.0,0.0,0.0,0.0,0.0,0.0,0.0,-2.419,-2.419,-2.419,0.0,-2.419,0.0,0.0,0.0,0.0,0.0,0.0,-2.2296,-2.2296,-2.2296,-2.2296,0.0,0.0,-2.2296,-2.2296,-2.2296,-2.2296,-2.2296,-2.2296,-2.2296,-2.2296,-2.2296,-2.2296,-2.2296,-2.2296,-2.2296,-2.2296,-2.2296,-2.2296,-2.2296,-2.2296,-2.2296,-2.2296,-2.2296,-2.2296,-2.2296,-2.2296,-2.2296,-2.2296,-2.2296,-2.2296,-2.2296,-2.2296,-2.2296,-2.2296,-2.2296,-2.2296,-2.2296,-2.2296,-2.2296,-2.2296,-2.2296,-2.218,-2.2046,-2.2046,-2.2046,-2.2003,-2.1871,-2.1945,-2.2003,-2.1871,-2.1842,-2.1842,-2.1842,-2.1842,-2.1998,-2.2483,-2.2742,-2.2794,-2.259,-2.2563,-2.2487,-2.2324,-2.2296,-2.236,-2.2537,-2.2773,-2.287,-2.287,-2.287,-2.287,-2.287,-2.287,-2.287,-2.287,-2.287,-2.287,-2.287,-2.2703,-2.2721,-2.287,-2.283,-2.283]},{"header":{"parameterUnit":"m.s-1","parameterCategory":1,"la1":30.6,"la2":29.2853,"lo1":-89.7004,"lo2":-87.6739,"dy":0.0162,"dx":0.0183,"nx":112,"ny":82,"refTime":"2023-06-28T12:00:00:Z","depth":0,"parameterNumber":3,"parameterNumberName":"V-component_of_WINDS"},"data":[0.0,0.0,0.0,0.0,0.0,0.0,0.0,0.0,0.0,0.0,0.0,0.0,0.0,0.0,0.0,0.0,0.0,0.0,0.0,0.0,0.0,0.0,0.0,0.0,0.0,0.0,0.0,0.0,0.0,0.0,0.0,0.0,0.0,0.0,0.0,0.0,0.0,0.0,0.0,0.0,0.0,0.0,0.0,0.0,0.0,0.0,0.0,0.0,0.0,0.0,0.0,0.0,0.0,0.0,0.0,0.0,0.0,0.0,0.0,0.0,0.0,0.0,0.0,0.0,0.0,0.0,0.0,0.0,0.0,0.0,0.0,0.0,0.0,0.0,0.0,0.0,0.0,0.0,0.0,0.0,0.0,0.0,0.0,0.0,0.0,0.0,0.0,0.0,0.0,0.0,0.0,-1.6901,-1.9512,-2.1109,-2.1109,-2.018,-1.8844,-1.6992,0.0,0.0,0.0,0.0,0.0,0.0,0.0,0.0,0.0,0.0,0.0,0.0,0.0,0.0,0.0,0.0,0.0,0.0,0.0,0.0,0.0,0.0,0.0,0.0,0.0,0.0,0.0,0.0,0.0,0.0,0.0,0.0,0.0,0.0,0.0,0.0,0.0,0.0,0.0,0.0,0.0,0.0,0.0,0.0,0.0,0.0,0.0,0.0,0.0,0.0,0.0,0.0,0.0,0.0,0.0,0.0,0.0,0.0,0.0,0.0,0.0,0.0,0.0,0.0,0.0,0.0,0.0,0.0,0.0,0.0,0.0,0.0,0.0,0.0,0.0,0.0,0.0,0.0,0.0,0.0,0.0,0.0,0.0,0.0,0.0,0.0,0.0,0.0,0.0,0.0,0.0,0.0,0.0,0.0,0.0,0.0,0.0,0.0,0.0,0.0,0.0,0.0,0.0,0.0,-1.5337,-1.8611,-2.0254,-2.1109,-2.1109,-1.9619,-1.8529,-1.8063,0.0,0.0,0.0,0.0,0.0,0.0,0.0,0.0,0.0,0.0,0.0,0.0,0.0,0.0,0.0,0.0,0.0,0.0,0.0,0.0,0.0,0.0,0.0,0.0,0.0,0.0,0.0,0.0,0.0,0.0,0.0,0.0,0.0,0.0,0.0,0.0,0.0,0.0,0.0,0.0,0.0,0.0,0.0,0.0,0.0,0.0,0.0,0.0,0.0,0.0,0.0,0.0,0.0,0.0,0.0,0.0,0.0,0.0,0.0,0.0,0.0,0.0,0.0,0.0,0.0,0.0,0.0,0.0,0.0,0.0,0.0,0.0,0.0,0.0,0.0,0.0,0.0,0.0,0.0,0.0,0.0,0.0,0.0,0.0,0.0,0.0,0.0,0.0,0.0,0.0,0.0,0.0,0.0,0.0,0.0,0.0,0.0,0.0,0.0,0.0,0.0,0.0,0.0,-1.489,-1.656,-1.9305,-2.0508,-2.1042,-2.0889,-1.9553,-1.8508,-1.8057,-1.6265,0.0,0.0,0.0,0.0,0.0,0.0,0.0,0.0,0.0,0.0,0.0,0.0,0.0,0.0,0.0,0.0,0.0,0.0,0.0,0.0,0.0,0.0,0.0,0.0,0.0,0.0,0.0,0.0,0.0,0.0,0.0,0.0,0.0,0.0,0.0,0.0,0.0,0.0,0.0,0.0,0.0,0.0,0.0,0.0,0.0,0.0,0.0,0.0,0.0,0.0,0.0,0.0,0.0,0.0,0.0,0.0,0.0,0.0,0.0,0.0,0.0,0.0,0.0,0.0,0.0,0.0,0.0,0.0,0.0,0.0,0.0,0.0,0.0,0.0,0.0,0.0,0.0,0.0,0.0,0.0,0.0,0.0,0.0,0.0,0.0,0.0,0.0,0.0,0.0,0.0,0.0,0.0,0.0,0.0,0.0,0.0,0.0,0.0,0.0,0.0,0.0,0.0,-1.6506,-1.7836,-1.9706,-2.0628,-2.0989,-2.0702,-1.9345,-1.8279,-1.7826,-1.5662,0.0,0.0,0.0,0.0,0.0,0.0,0.0,0.0,0.0,0.0,0.0,0.0,0.0,0.0,0.0,0.0,0.0,0.0,0.0,0.0,0.0,0.0,0.0,0.0,0.0,0.0,0.0,0.0,0.0,0.0,0.0,0.0,0.0,0.0,0.0,0.0,0.0,0.0,0.0,0.0,0.0,0.0,0.0,0.0,0.0,0.0,0.0,0.0,0.0,0.0,0.0,0.0,0.0,0.0,0.0,0.0,0.0,0.0,0.0,0.0,0.0,0.0,0.0,0.0,0.0,0.0,0.0,0.0,0.0,0.0,0.0,0.0,0.0,0.0,0.0,0.0,0.0,0.0,0.0,0.0,0.0,0.0,0.0,0.0,0.0,0.0,0.0,0.0,0.0,0.0,0.0,0.0,0.0,0.0,0.0,0.0,0.0,0.0,0.0,0.0,0.0,0.0,-1.6981,-1.8838,-2.0067,-2.0748,-2.0989,-2.0702,-1.864,-1.747,-1.7764,-1.4877,0.0,0.0,0.0,0.0,0.0,0.0,0.0,0.0,0.0,0.0,0.0,0.0,0.0,0.0,0.0,0.0,0.0,0.0,0.0,0.0,0.0,0.0,0.0,0.0,0.0,0.0,0.0,0.0,0.0,0.0,0.0,0.0,0.0,0.0,0.0,0.0,0.0,0.0,0.0,0.0,0.0,0.0,0.0,0.0,0.0,0.0,0.0,0.0,0.0,0.0,0.0,0.0,0.0,0.0,0.0,0.0,0.0,0.0,0.0,0.0,0.0,0.0,0.0,0.0,0.0,0.0,0.0,0.0,0.0,0.0,0.0,0.0,0.0,0.0,0.0,0.0,0.0,0.0,0.0,0.0,0.0,0.0,0.0,0.0,0.0,0.0,0.0,0.0,0.0,0.0,0.0,0.0,0.0,0.0,0.0,0.0,0.0,0.0,0.0,0.0,0.0,0.0,-1.6259,-1.7969,0.0,-2.0214,-2.0368,-1.99,-1.8704,-1.7833,-1.7311,0.0,0.0,0.0,0.0,0.0,0.0,0.0,0.0,0.0,0.0,0.0,0.0,0.0,0.0,0.0,0.0,0.0,0.0,0.0,0.0,0.0,0.0,0.0,0.0,0.0,0.0,0.0,0.0,0.0,0.0,0.0,0.0,0.0,0.0,0.0,0.0,0.0,0.0,0.0,0.0,0.0,0.0,0.0,0.0,0.0,0.0,0.0,0.0,0.0,0.0,0.0,0.0,0.0,0.0,0.0,0.0,0.0,0.0,0.0,0.0,0.0,0.0,0.0,0.0,0.0,0.0,0.0,0.0,0.0,0.0,0.0,0.0,0.0,0.0,0.0,0.0,0.0,0.0,0.0,0.0,0.0,0.0,0.0,0.0,0.0,0.0,0.0,0.0,0.0,0.0,0.0,0.0,0.0,0.0,0.0,0.0,0.0,0.0,0.0,0.0,0.0,0.0,-1.4188,-1.5825,-1.7422,0.0,-1.9693,-1.986,-1.9279,-1.8343,-1.7489,-1.6819,0.0,0.0,0.0,0.0,0.0,0.0,0.0,0.0,0.0,0.0,0.0,0.0,0.0,0.0,0.0,0.0,0.0,0.0,0.0,0.0,0.0,0.0,0.0,0.0,0.0,0.0,0.0,0.0,0.0,0.0,0.0,0.0,0.0,0.0,0.0,0.0,0.0,0.0,0.0,0.0,0.0,0.0,0.0,0.0,0.0,0.0,0.0,0.0,0.0,0.0,0.0,0.0,0.0,0.0,0.0,0.0,0.0,0.0,0.0,0.0,0.0,0.0,0.0,0.0,0.0,0.0,0.0,0.0,0.0,0.0,0.0,0.0,0.0,0.0,0.0,0.0,0.0,0.0,0.0,0.0,0.0,0.0,0.0,0.0,0.0,0.0,0.0,0.0,0.0,0.0,0.0,0.0,0.0,0.0,0.0,0.0,0.0,0.0,0.0,0.0,0.0,0.0,-1.3968,-1.5919,-1.7534,-1.8384,-1.9259,-1.9546,-1.8958,-1.7295,-1.6325,0.0,0.0,0.0,0.0,0.0,0.0,0.0,0.0,0.0,0.0,0.0,0.0,0.0,0.0,0.0,0.0,0.0,0.0,0.0,0.0,0.0,0.0,0.0,0.0,0.0,0.0,0.0,0.0,0.0,0.0,0.0,0.0,0.0,0.0,0.0,0.0,0.0,0.0,0.0,0.0,0.0,0.0,0.0,0.0,0.0,0.0,0.0,0.0,0.0,0.0,0.0,0.0,0.0,0.0,0.0,0.0,0.0,0.0,0.0,0.0,0.0,0.0,0.0,0.0,0.0,0.0,0.0,0.0,0.0,0.0,0.0,0.0,0.0,0.0,0.0,0.0,0.0,0.0,0.0,0.0,0.0,0.0,0.0,0.0,0.0,0.0,0.0,0.0,0.0,0.0,0.0,0.0,0.0,0.0,0.0,0.0,0.0,0.0,0.0,0.0,0.0,0.0,0.0,-1.3687,-1.5391,-1.6918,-1.7756,-1.8277,-1.8404,-1.8009,-1.7121,-1.6458,-1.6162,0.0,0.0,0.0,0.0,0.0,0.0,0.0,0.0,0.0,0.0,0.0,0.0,0.0,0.0,0.0,0.0,0.0,0.0,0.0,0.0,0.0,0.0,0.0,0.0,0.0,0.0,0.0,0.0,0.0,0.0,0.0,0.0,0.0,0.0,0.0,0.0,0.0,0.0,0.0,0.0,0.0,0.0,0.0,0.0,0.0,0.0,0.0,0.0,0.0,0.0,0.0,0.0,0.0,0.0,0.0,0.0,0.0,0.0,0.0,0.0,0.0,0.0,0.0,0.0,0.0,0.0,0.0,0.0,0.0,0.0,0.0,0.0,0.0,0.0,0.0,0.0,0.0,0.0,0.0,0.0,0.0,0.0,0.0,0.0,0.0,0.0,0.0,0.0,0.0,0.0,0.0,0.0,0.0,0.0,0.0,0.0,0.0,0.0,0.0,0.0,0.0,0.0,-1.332,-1.4803,-1.6134,-1.6967,-1.7435,-1.7562,-1.7255,-1.6693,-1.6019,-1.5239,0.0,0.0,0.0,0.0,0.0,0.0,0.0,0.0,0.0,0.0,0.0,0.0,0.0,0.0,0.0,0.0,0.0,0.0,0.0,0.0,0.0,0.0,0.0,0.0,0.0,0.0,0.0,0.0,0.0,0.0,0.0,0.0,0.0,0.0,0.0,0.0,0.0,0.0,0.0,0.0,0.0,0.0,0.0,0.0,0.0,0.0,0.0,0.0,0.0,0.0,0.0,0.0,0.0,0.0,0.0,0.0,0.0,0.0,0.0,0.0,0.0,0.0,0.0,0.0,0.0,0.0,0.0,0.0,0.0,0.0,0.0,0.0,0.0,0.0,0.0,0.0,0.0,0.0,0.0,0.0,0.0,0.0,0.0,0.0,0.0,0.0,0.0,0.0,0.0,0.0,0.0,0.0,0.0,0.0,0.0,0.0,0.0,0.0,0.0,0.0,0.0,0.0,-1.3019,-1.4195,-1.5303,-1.6139,-1.6784,-1.7012,-1.6687,-1.6126,-1.5236,-1.3944,0.0,0.0,0.0,0.0,0.0,0.0,0.0,0.0,0.0,0.0,0.0,0.0,0.0,0.0,0.0,0.0,0.0,0.0,0.0,0.0,0.0,0.0,0.0,0.0,0.0,0.0,0.0,0.0,0.0,0.0,0.0,0.0,0.0,0.0,0.0,0.0,0.0,0.0,0.0,0.0,0.0,0.0,0.0,0.0,0.0,0.0,0.0,0.0,0.0,0.0,0.0,0.0,0.0,0.0,0.0,0.0,0.0,0.0,0.0,0.0,-0.0335,0.0,0.0,0.0,0.0,0.0,0.0,0.0,0.0,0.0,0.0,0.0,0.0,0.0,0.0,0.0,0.0,0.0,0.0,0.0,0.0,0.0,0.0,0.0,0.0,0.0,0.0,0.0,0.0,0.0,0.0,0.0,0.0,0.0,0.0,0.0,0.0,0.0,0.0,0.0,0.0,0.0,-1.2757,-1.3881,-1.495,-1.5832,-1.6246,-1.6482,-1.6373,-1.5825,-1.5151,-1.4318,0.0,0.0,0.0,0.0,0.0,0.0,0.0,0.0,0.0,0.0,0.0,0.0,0.0,0.0,0.0,0.0,0.0,0.0,0.0,0.0,0.0,0.0,0.0,0.0,0.0,0.0,0.0,0.0,0.0,0.0,0.0,0.0,0.0,0.0,0.0,0.0,0.0,0.0,0.0,0.0,0.0,0.0,0.0,0.0,0.0,0.0,0.0,0.0,0.0,0.0,0.0,0.0,0.0,0.0,0.0,0.0,0.0,0.0,0.0,0.0,0.0,-0.0912,0.0,0.0,0.0,0.0,0.0,0.0,0.0,0.0,0.0,0.0,0.0,0.0,0.0,0.0,0.0,0.0,0.0,0.0,0.0,0.0,0.0,0.0,0.0,0.0,0.0,0.0,0.0,0.0,0.0,0.0,0.0,0.0,0.0,0.0,0.0,0.0,0.0,0.0,0.0,0.0,-1.2636,-1.3661,-1.4596,-1.5337,-1.5678,-1.5852,-1.5852,-1.5311,-1.4636,-1.3854,-1.3114,0.0,0.0,0.0,0.0,0.0,0.0,0.0,0.0,0.0,0.0,0.0,0.0,0.0,0.0,0.0,0.0,0.0,0.0,0.0,0.0,0.0,0.0,0.0,0.0,0.0,0.0,0.0,0.0,0.0,0.0,0.0,0.0,0.0,0.0,0.0,0.0,0.0,0.0,0.0,0.0,0.0,0.0,0.0,0.0,0.0,0.0,0.0,0.0,0.0,0.0,0.0,0.0,0.0,0.0,0.0,0.0,0.0,0.0,0.0,0.0,-0.0632,-0.1675,0.0,0.0,0.0,0.0,0.0,0.0,0.0,0.0,0.0,0.0,0.0,0.0,0.0,0.0,0.0,0.0,0.0,0.0,0.0,0.0,0.0,0.0,0.0,0.0,0.0,-1.2975,-1.2999,0.0,0.0,0.0,0.0,0.0,0.0,0.0,0.0,0.0,0.0,0.0,0.0,-1.2536,-1.3541,-1.4289,-1.4874,-1.5144,-1.5317,-1.5317,-1.483,-1.4148,-1.3267,-1.2968,-1.2532,0.0,0.0,0.0,0.0,0.0,0.0,0.0,0.0,0.0,0.0,0.0,0.0,0.0,0.0,0.0,0.0,0.0,0.0,0.0,0.0,0.0,0.0,0.0,0.0,0.0,0.0,0.0,0.0,0.0,0.0,0.0,0.0,0.642,0.659,0.0,0.0,0.0,0.0,0.0,0.0,0.0,0.0,0.0,0.0,0.0,0.0,0.0,0.0,0.0,0.0,0.0,0.0,0.0,0.0,0.0,0.0,0.0,0.0,0.0,0.0,-0.1602,-0.1566,0.0,0.0,0.0,0.0,0.0,0.0,0.0,0.0,0.0,0.0,0.0,0.0,0.0,0.0,0.0,0.0,0.0,0.0,0.0,0.0,0.0,0.0,-1.2206,-1.194,-1.2943,-1.3774,0.0,-1.2592,-1.2104,-1.1443,0.0,0.0,0.0,0.0,0.0,0.0,0.0,0.0,-1.2271,-1.3367,-1.4215,-1.4543,-1.4843,-1.5068,-1.5068,-1.471,-1.4148,-1.3267,-1.2674,-1.245,-1.2653,-1.2086,0.0,0.0,0.0,0.0,0.0,0.0,0.0,0.0,0.0,0.0,0.0,0.0,0.0,0.0,0.0,0.0,0.0,0.0,0.0,0.0,0.0,0.0,0.0,0.0,0.0,0.0,0.0,0.0,0.0,0.6675,0.7068,0.6959,0.7024,0.6953,0.0,0.0,0.0,0.0,0.0,0.0,0.0,0.0,0.0,0.0,0.0,0.0,0.0,0.0,0.0,0.0,0.0,0.0,0.0,0.0,0.0,0.0,0.0,-0.0243,-0.0726,-0.124,-0.2496,-0.4119,0.0,0.0,0.0,0.0,0.0,-0.6675,-0.6939,0.0,0.0,0.0,0.0,0.0,0.0,0.0,0.0,0.0,0.0,0.0,0.0,0.0,0.0,-1.2641,-1.3886,-1.491,-1.4322,-1.3854,-1.3227,0.0,-1.2091,-1.1891,-1.0795,0.0,0.0,0.0,0.0,0.0,-1.2489,-1.3454,-1.4135,-1.4262,-1.4543,-1.4716,-1.4716,-1.4289,-1.382,-1.344,-1.2732,-1.2509,-1.2987,-1.2309,-1.2425,0.0,0.0,0.0,0.0,0.0,0.0,0.0,0.0,0.0,0.0,0.0,0.0,0.0,0.0,0.0,0.0,0.0,0.0,0.0,0.0,0.0,0.0,0.0,0.0,0.0,0.0,0.0,0.0,0.7238,0.76,0.725,0.7563,0.755,0.0,0.0,0.0,0.0,0.0,0.0,0.2355,0.0874,0.0,0.0,0.0,0.0,0.0,0.0,0.0,0.0,0.0,0.0,0.0,0.0,0.0,0.0,0.0,0.0,-0.0061,-0.0834,-0.2158,-0.3718,-0.4383,-0.5612,0.0,-0.7173,-0.7156,-0.716,-0.756,-0.7631,-0.7492,-0.7197,0.0,-0.6817,-0.6475,0.0,0.0,0.0,0.0,-0.9444,-0.9714,0.0,-1.2871,-1.3233,-1.449,-1.5464,-1.4963,-1.4676,-1.4128,0.0,-1.2839,-1.2692,-1.1436,0.0,0.0,0.0,0.0,-1.2031,-1.2804,-1.3621,-1.4088,-1.4088,-1.4282,-1.4376,-1.4302,-1.3853,-1.354,-1.3387,-1.2712,-1.2636,-1.334,-1.256,-1.2583,-1.363,0.0,0.0,0.0,0.0,0.0,0.0,0.0,0.0,0.0,0.0,0.0,0.0,0.0,0.0,0.0,0.0,0.0,0.0,0.0,0.0,0.0,0.0,0.0,0.0,0.0,0.0,0.0,0.0,0.0,0.7611,0.8336,0.0,0.0,0.0,0.0,0.654,0.484,0.3542,0.2735,0.0977,0.0,0.0,0.0,0.0,0.0,0.0,0.0,0.0,0.0,0.0,0.0,0.0,0.0,0.0,0.0,0.0,0.0,-0.0058,-0.1538,-0.3797,-0.3849,-0.5379,-0.755,-0.7411,-0.7448,-0.755,-0.7434,-0.7436,-0.745,-0.7526,-0.7275,-0.702,-0.7683,-0.7901,0.0,0.0,-0.9032,-1.0001,-0.9336,-1.0963,-1.283,-1.2971,-1.4063,-1.4968,-1.4609,-1.4529,-1.4249,0.0,-1.2985,-1.2603,-1.1973,0.0,-1.1839,-1.1839,-1.2342,-1.2837,-1.314,-1.3714,-1.4088,-1.4088,-1.4102,-1.3995,-1.3673,-1.362,-1.34,-1.2864,-1.2485,-1.2771,-1.3826,-1.2734,-1.2714,-1.4031,-1.3301,0.0,0.0,0.0,0.0,0.0,0.0,0.0,0.0,0.0,0.0,0.0,0.0,0.0,0.0,0.0,0.0,0.0,0.0,0.0,0.0,0.0,0.0,0.0,0.0,0.0,0.0,0.0,0.0,0.8601,0.9055,0.0,0.0,0.8523,0.8438,0.8467,0.7143,0.5708,0.4347,0.2781,0.1356,0.0069,0.0,0.0,0.0,0.0,0.0,0.0,0.0,0.0,0.0,0.0,0.0,0.0,0.0,0.0,0.0,0.0,-0.158,-0.3943,-0.3904,-0.5553,-0.7875,-0.7821,-0.7834,-0.7875,-0.7821,-0.7801,-0.7763,-0.7529,-0.7214,-0.6941,-0.7114,-0.7148,-0.7178,-0.7259,-0.7681,-0.8061,-0.8001,-0.9967,-1.1943,-1.1898,-1.3616,-1.511,-1.4623,-1.4522,-1.4369,-1.3868,-1.3534,-1.32,-1.2799,-1.2603,-1.2469,-1.2469,-1.2824,-1.3153,-1.3413,-1.3834,-1.4088,-1.4088,-1.3915,-1.372,-1.3613,-1.3074,-1.2605,-1.2248,-1.1724,-1.1684,-1.2197,-1.1985,-1.2225,-1.3041,-1.2965,-1.2905,0.0,0.0,0.0,0.0,0.0,0.0,0.0,0.0,0.0,0.0,0.0,0.0,0.0,0.0,0.0,0.0,0.0,0.0,0.0,0.0,0.0,0.0,0.0,0.0,0.0,0.0,0.9235,0.9286,0.9724,0.988,0.9422,0.9384,0.9574,1.0029,0.8031,0.6423,0.5364,0.3228,0.1419,0.0071,0.0,0.0,0.0,0.0,0.0,0.0,0.0,0.0,0.0,0.0,0.0,0.0,0.0,0.0,0.0,0.0,-0.1314,-0.3368,-0.3848,-0.5665,-0.8109,-0.8008,-0.7988,-0.7988,-0.7988,-0.7958,-0.7857,-0.756,-0.7282,-0.7061,-0.6959,-0.6892,-0.6892,-0.7095,-0.7038,-0.7142,-0.7795,-0.956,-1.127,-1.1589,-1.335,-1.485,-1.4462,-1.4376,-1.4315,-1.4122,-1.3928,-1.366,-1.3407,-1.3186,-1.3085,-1.3085,-1.3227,-1.3427,-1.3713,-1.3968,-1.4048,-1.3948,-1.372,-1.348,-1.3174,-1.2739,-1.2245,-1.175,-1.1263,-1.1148,-1.1466,-1.1665,-1.2011,-1.249,-1.2763,-1.2905,-1.2905,0.0,0.0,0.0,0.0,0.0,0.0,0.0,0.0,0.0,0.0,0.0,0.0,0.0,0.0,0.0,0.0,0.0,0.0,0.0,0.0,0.0,0.0,0.0,0.7992,0.9093,0.9737,0.9469,1.0341,1.0611,0.9941,1.0395,1.0799,1.089,0.7555,0.5583,0.5805,0.2185,0.0073,0.0,0.0,0.0,0.0,0.0,0.0,0.0,0.0,0.0,0.0,0.0,0.0,0.0,0.0,0.0,0.0,0.0,-0.08,-0.2124,-0.3472,-0.5713,-0.8194,-0.8046,-0.7988,-0.7988,-0.7988,-0.7894,-0.7794,-0.7651,-0.7502,-0.7422,-0.7419,-0.7261,-0.7156,-0.7502,-0.737,-0.7391,-0.8698,-0.9809,-1.0875,-1.1986,-1.3209,-1.4095,-1.4088,-1.4088,-1.4088,-1.4088,-1.4088,-1.3995,-1.3666,-1.362,-1.362,-1.362,-1.362,0.0,-1.4048,-1.4088,-1.3975,-1.3646,-1.36,-1.3234,-1.2392,-1.2583,-1.2355,-1.1409,-1.1102,-1.1182,-1.1696,-1.1781,-1.2032,-1.2463,-1.2754,-1.2905,-1.2905,0.0,0.0,0.0,0.0,0.0,0.0,0.0,0.0,0.0,0.0,0.0,0.0,0.0,0.0,0.0,0.0,0.0,0.0,0.0,0.0,0.0,0.0,0.8845,0.8984,0.9673,1.0283,1.0633,1.1026,1.1189,1.0978,1.1009,1.1151,1.1416,0.9169,0.7229,0.6028,0.3611,0.1544,0.0073,0.0,0.0,0.0,0.0,0.0,0.0,0.0,0.0,0.0,0.0,0.0,0.0,0.0,0.0,0.0,0.0,-0.0839,-0.2288,-0.3526,-0.5099,-0.6729,-0.7653,-0.7988,-0.7988,-0.7988,-0.7961,-0.7901,-0.7801,-0.7655,-0.7516,-0.745,-0.7261,-0.7112,-0.7196,-0.7162,-0.719,-0.7539,-0.9283,-1.0989,-1.1035,-1.2788,-1.4342,-1.4135,-1.4088,-1.4088,-1.4088,-1.4088,-1.4062,-1.3981,-1.3968,-1.3968,-1.3968,0.0,0.0,-1.4075,-1.4088,-1.4055,-1.3975,-1.3587,-1.314,-1.2703,-1.1953,-1.1189,0.0,-0.997,-0.9672,-0.9618,-1.0099,-1.0887,-1.1969,-1.2592,-1.2905,0.0,0.0,0.0,0.0,0.0,0.0,0.0,0.0,0.0,0.0,0.0,0.0,0.0,0.0,0.0,0.0,0.0,0.0,0.0,0.0,0.0,0.0,1.0066,0.9595,1.0063,1.0429,1.0802,1.1209,1.1447,1.1575,1.1575,1.1555,1.1613,1.1792,0.9167,0.7114,0.6059,0.3317,0.1245,0.0072,0.0,0.0,0.0,0.0,0.0,0.0,0.0,0.0,0.0,0.0,0.0,0.0,0.0,0.0,0.0,0.0,-0.0497,0.0,0.0,0.0,0.0,0.0,-0.7988,-0.7988,-0.7988,-0.7988,-0.7955,-0.779,-0.7665,-0.757,-0.7463,-0.7261,-0.7109,-0.7217,-0.7146,-0.7095,-0.7095,-0.9002,-1.086,-1.0641,-1.25,-1.4295,-1.4122,-1.4088,-1.4088,-1.4088,0.0,0.0,-1.3921,-1.4008,-1.4088,-1.4088,-1.3981,-1.3901,0.0,-1.3794,-1.3667,-1.3581,-1.3259,-1.2792,-1.2275,-1.1718,0.0,0.0,0.0,-0.956,-0.9501,-0.9967,0.0,0.0,0.0,-1.2905,0.0,0.0,0.0,0.0,-1.2905,-1.2905,0.0,0.0,0.0,0.0,0.0,0.0,0.0,0.0,0.0,0.0,0.0,0.0,0.0,0.0,0.0,0.0,1.045,1.0219,1.107,1.1272,1.1263,1.1399,1.166,1.183,1.183,1.1972,1.2145,1.2088,0.8493,0.6214,0.6075,0.0,0.0,0.0,0.0,0.0,0.0,0.0,0.0,0.0,0.0,0.0,0.0,0.0,0.0,0.0,0.0,0.0,0.0,0.0,-0.0164,-0.0687,-0.3059,-0.5041,-0.6621,-0.7632,-0.7988,0.0,0.0,0.0,0.0,-0.7709,-0.76,-0.755,-0.7456,-0.7261,-0.7125,-0.7309,-0.7248,-0.7095,-0.7095,-0.8746,-1.0438,-1.0567,-1.2297,-1.3913,-1.4088,-1.4088,-1.4088,-1.4088,-1.4088,-1.4001,-1.37,-1.3881,-1.4035,-1.4035,-1.3773,0.0,-1.36,-1.338,-1.314,-1.2871,0.0,0.0,-1.155,-1.1657,-1.1444,-1.0593,-1.0234,-1.0172,-1.0389,-1.0753,-1.1387,-1.2341,-1.2751,-1.2954,-1.2905,-1.2905,-1.2905,-1.2905,-1.2905,-1.2905,0.0,0.0,0.0,0.0,0.0,0.0,0.0,0.0,0.0,0.0,0.0,0.0,0.0,0.0,0.0,1.1187,1.0754,1.0734,1.127,1.1453,1.1541,1.1572,1.1728,1.183,1.183,1.1972,1.2111,1.2237,0.9813,0.7723,0.6305,0.3788,0.0,0.0072,0.0,0.0,0.0,0.0,0.0,0.0,0.0,0.0,0.0,0.0,0.0,0.0,0.0,0.0,0.0,0.0,-0.1263,-0.33,-0.3791,-0.55,-0.7672,-0.7899,-0.7988,-0.7988,-0.7988,-0.7911,-0.7845,-0.7787,-0.7607,-0.7456,-0.7426,-0.7261,0.0,-0.7132,-0.7119,-0.7095,-0.7095,-0.8145,-0.9453,-1.0394,-1.1643,-1.2893,-1.3913,-1.4088,-1.4088,-1.4088,-1.4088,-1.4068,-1.4008,-1.3848,-1.3686,-1.3686,-1.364,-1.36,-1.36,-1.3553,-1.3407,-1.3153,-1.2938,-1.2522,-1.1873,-1.1437,-1.0889,-1.0241,-0.9927,-0.98,-0.9858,-1.1047,-1.1643,-1.1534,-1.2761,-1.3213,-1.2905,-1.2905,-1.2905,-1.2905,-1.2905,-1.2905,0.0,0.0,0.0,0.0,0.0,0.0,0.0,0.0,0.0,0.0,0.0,1.5213,0.0,0.0,1.3346,1.3495,1.2076,1.1073,1.1453,1.1572,1.1619,1.1619,1.1745,1.186,1.1938,1.2088,1.2176,1.2176,1.0222,0.8533,0.7473,0.4533,0.241,0.1401,0.0484,0.0,0.0,0.0,0.0,0.0,0.0,0.0,0.0,0.0,0.0,0.0,0.0,0.0,0.0,0.0,-0.1205,-0.3054,-0.3729,-0.5622,-0.7988,-0.7988,-0.7988,-0.7988,-0.7988,-0.7891,-0.7797,-0.7729,-0.7553,-0.7402,-0.7278,-0.7204,-0.7095,-0.7095,-0.7095,-0.7095,-0.7095,-0.8017,-0.9065,-0.9623,-1.1042,-1.2456,-1.3075,-1.3688,-1.4088,-1.4088,-1.4088,-1.4041,-1.3895,-1.37,-1.3653,-1.38,-1.3573,-1.3387,-1.3387,-1.312,-1.2913,-1.2772,-1.2619,-1.2382,-1.194,-1.1363,-1.0742,-1.0154,-0.998,-0.9833,-0.9722,-1.1125,-1.1694,-1.1313,-1.2757,-1.3301,-1.2905,-1.2905,-1.2905,-1.2905,-1.2905,-1.2905,0.0,0.0,0.0,0.0,0.0,0.0,0.0,0.0,1.4563,1.5391,1.6308,1.7203,1.8115,1.6183,1.4742,1.5426,1.3134,1.1304,1.1582,1.1592,1.1575,1.1575,1.1728,1.1881,1.2006,1.2155,1.2196,1.2145,1.0574,0.9367,0.8579,0.5601,0.3572,0.2743,0.1301,0.034,0.0,0.0,0.0,0.0,0.0,0.0,0.0,0.0,0.0,0.0,0.0,0.0,0.0,0.0,-0.0793,-0.2118,-0.3201,-0.5238,-0.7637,-0.7889,-0.7988,-0.7988,-0.7988,-0.7891,-0.7787,-0.7645,-0.7495,-0.7343,-0.7142,-0.7095,-0.7095,-0.7095,-0.7095,-0.7095,-0.7095,-0.7841,-0.8627,-0.8846,-1.0308,-1.1766,-1.22,-1.3069,-1.3822,-1.4039,-1.4088,-1.4008,-1.3726,-1.3686,-1.3753,-1.3975,-1.3594,-1.3273,-1.322,-1.2779,-1.2432,-1.2311,-1.2305,-1.2164,-1.181,-1.1296,-1.0788,-1.0321,-1.0234,-1.012,-0.9947,-1.1183,-1.1707,-1.1366,-1.2711,-1.3227,-1.2905,-1.2905,-1.2905,-1.2905,-1.2905,-1.2905,1.6809,1.4816,1.3733,1.4529,1.476,1.5102,0.0,0.0,1.6934,1.7516,1.8404,1.8736,1.7695,1.6401,1.5233,1.4386,1.2639,1.1423,1.1596,1.1501,1.1416,1.1416,1.166,1.1837,1.1857,1.1996,1.2155,1.2064,1.1593,1.0549,0.8758,0.8052,0.6174,0.2811,0.2506,0.1605,0.0,0.0,0.0,0.0,0.0,0.0,0.0,0.0,0.0,0.0,0.0,0.0,0.0,0.0,-0.0802,-0.2018,-0.2167,-0.3875,-0.6379,-0.7587,-0.7988,-0.7988,-0.7988,-0.7891,-0.7787,-0.7645,-0.7495,-0.7343,-0.7142,-0.7095,-0.7095,-0.7095,-0.7095,-0.7095,-0.7095,-0.7183,-0.7577,-0.8627,-0.9104,-0.984,-1.1852,-1.2413,-1.2808,-1.3913,-1.4088,-1.4075,-1.4041,-1.4041,-1.3961,-1.3686,-1.3593,-1.346,-1.324,-1.3153,-1.2899,-1.2358,-1.2305,-1.2078,-1.1489,-1.1176,-1.0962,-1.0895,-1.0687,-1.0646,-1.0835,-1.1481,-1.1749,-1.1659,-1.2514,-1.295,-1.2905,-1.2905,-1.2905,-1.2905,-1.2905,-1.2905,1.6806,1.5417,1.4796,0.0,1.5899,1.6536,1.7455,1.7809,1.8143,1.8911,1.9492,1.988,1.9867,1.779,1.5968,0.0,1.3217,1.1382,1.1358,1.1226,1.1101,1.1012,1.1189,1.1385,1.1558,1.1633,1.167,1.167,1.1555,1.1053,1.0037,0.8903,0.7086,0.4331,0.3231,0.1801,0.0,0.0,0.0,0.0,0.0,0.0,0.0,0.0,0.0,0.0,0.0,0.0,0.0,0.0,-0.0316,-0.0932,-0.1688,-0.2684,-0.3919,-0.6077,-0.7335,-0.7978,-0.7887,-0.7865,-0.7773,-0.7543,-0.7424,-0.7343,-0.7142,-0.7095,-0.7095,-0.7095,-0.7095,-0.7095,-0.7095,-0.7095,-0.7228,-0.7753,-0.8408,-0.9148,-1.0139,-1.0826,-1.1643,-1.2814,-1.3069,-1.3294,-1.3997,-1.4088,-1.4048,-1.3921,-1.3713,-1.356,-1.344,-1.316,-1.2817,-1.2345,-1.2305,-1.2131,-1.1724,-1.157,-1.143,-1.1256,-1.0969,-1.0868,-1.0989,-1.1517,-1.1751,-1.1688,-1.2493,-1.2891,-1.2905,-1.2905,-1.2905,-1.2905,-1.2905,-1.2905,1.6511,1.5763,0.0,1.6059,1.6921,1.7776,1.8297,1.8704,1.9152,1.9786,2.0087,2.029,2.0688,1.8273,1.6124,1.5963,1.3384,1.1352,1.1243,1.1067,1.0826,1.0738,1.0748,1.0863,1.1118,1.1257,1.1328,1.1328,1.129,1.1175,1.089,0.9676,0.812,0.6166,0.4409,0.2585,0.0785,0.0258,0.0,0.0,0.0,0.0,0.0,0.0,0.0,0.0,0.0,0.0,0.0,0.0,0.0,-0.0104,-0.1072,-0.1669,-0.2213,-0.4171,-0.5977,-0.7465,-0.7716,-0.7811,-0.7763,-0.7465,-0.7415,-0.7343,-0.7142,-0.7068,-0.7048,-0.7085,-0.7038,-0.6994,-0.7075,-0.7068,-0.7048,-0.7088,-0.7753,-0.8496,-0.8846,-0.9536,-1.0481,-1.1595,-1.2066,-1.2589,-1.3464,-1.3864,-1.4088,-1.4088,-1.3901,-1.3693,-1.3613,-1.3193,-1.2797,-1.2458,-1.2425,-1.2278,-1.194,-1.1906,-1.1812,-1.1563,-1.1202,-1.1029,-1.1109,-1.1344,-1.1503,-1.1521,-1.2212,-1.2609,-1.2725,-1.2856,-1.2905,-1.2905,-1.2905,-1.2905,1.5968,0.0,1.5671,1.6878,1.7996,1.8951,1.9259,1.9773,2.0187,2.0153,2.0167,1.985,1.8812,1.7039,1.5431,1.4466,1.2628,1.1389,1.1385,1.1131,1.0826,1.0738,1.0473,1.0358,0.0,1.0914,1.1237,1.1237,1.1043,1.089,1.088,1.0739,0.9782,0.7964,0.6213,0.4436,0.2638,0.089,0.0,0.0,0.0,0.0,0.0,0.0,0.0,0.0,0.0,0.0,0.0,0.0,0.0,0.0,-0.0052,-0.0871,-0.2013,-0.2113,-0.3768,-0.6213,-0.7372,-0.7811,-0.7763,-0.7465,-0.7415,-0.7343,-0.7142,-0.7001,-0.692,-0.7058,-0.6936,-0.678,-0.7021,-0.6994,-0.6927,-0.7061,-0.7139,-0.7492,-0.8627,-0.8934,-0.9279,-1.0438,-1.1552,-1.2328,-1.237,-1.3336,-1.4088,-1.4088,-1.4082,-1.3968,-1.364,-1.334,-1.308,-1.2804,-1.277,-1.2536,-1.1953,-1.1906,-1.1899,-1.1893,-1.1316,-1.1122,-1.1369,-1.0894,-1.0774,-1.1123,-1.1537,-1.194,-1.2332,-1.2719,-1.2905,-1.2905,-1.2905,-1.2905,1.6462,0.0,1.6898,1.8029,1.8918,1.9686,2.0368,2.0528,2.0468,2.0274,1.9927,1.9476,1.8872,1.6719,1.4837,1.4544,1.2448,1.0945,1.0945,1.0772,1.0555,1.0307,1.028,0.0,0.0,0.0,0.0,1.0853,1.0727,1.069,1.0792,1.0748,0.9804,0.7928,0.6247,0.4478,0.2601,0.0885,0.0,0.0,0.0,0.0,0.0,0.0,0.0,0.0,0.0,0.0,0.0,0.0,0.0,0.0,0.0,-0.0254,-0.0756,-0.1661,-0.2594,-0.364,-0.5638,-0.6999,-0.7746,-0.7346,-0.7288,-0.7343,-0.7142,-0.6997,-0.6896,-0.6943,-0.6886,-0.6832,-0.693,-0.6991,-0.7038,-0.7085,-0.7095,-0.7228,-0.7621,-0.7709,-0.8057,-0.9231,-0.9792,-1.0265,-1.1037,-1.2163,-1.316,-1.3997,-1.4088,-1.3981,-1.364,-1.3353,-1.3093,-1.2817,-1.2603,-1.2409,-1.2171,-1.2158,-1.2158,-1.2158,-1.1603,-1.1323,-1.1389,-1.0868,-1.0653,-1.0828,-1.0959,-1.1122,-1.1319,-1.1895,-1.2163,-1.2187,-1.2666,-1.2905,1.6625,1.7167,1.7769,1.9065,1.9753,2.0261,2.0828,2.0648,2.0247,1.9846,1.9212,1.8529,1.7808,1.5624,1.3854,1.3559,1.1685,1.0317,1.0531,1.0432,1.0304,1.0219,1.0249,0.0,0.0,0.0,0.0,1.0619,1.0599,1.0616,1.0714,1.0721,1.0119,0.8793,0.7113,0.5344,0.3461,0.1755,0.0621,0.0,0.0,0.0,0.0,0.0,0.0,0.0,0.0,0.0,0.0,0.0,0.0,0.0,0.0,0.0,-0.01,-0.0955,-0.1585,-0.2368,-0.4761,-0.6233,-0.7026,-0.7072,-0.7207,-0.7272,-0.7125,-0.6997,-0.6886,-0.6886,-0.6849,-0.6861,-0.6873,-0.6953,-0.7034,-0.7085,-0.7095,-0.7095,-0.7095,-0.7095,-0.7316,-0.8105,-0.8584,-0.9148,-0.9879,-1.1295,-1.2547,-1.3336,-1.3822,-1.4015,-1.3828,-1.3641,-1.3367,-1.2998,-1.2739,-1.2538,-1.2318,-1.2305,-1.2305,-1.2305,-1.185,-1.1536,-1.1395,-1.0969,-1.0646,-1.0501,-1.0631,-1.0793,-1.0985,-1.1528,-1.1947,-1.2212,-1.2691,-1.2905,1.6473,1.7428,1.843,1.9834,2.0454,2.0655,2.0655,2.0187,1.9586,1.8978,1.8143,1.71,0.0,0.0,1.2607,1.1769,1.046,0.9737,1.0209,1.0238,1.0251,0.0,0.0,0.0,0.0,0.0,0.0,1.048,0.0,1.0711,1.0721,1.0721,1.0646,1.0487,0.8726,0.6943,0.5206,0.3407,0.165,0.0,0.0,0.0,0.0,0.0,0.0,0.0,0.0,0.0,0.0,0.0,0.0,0.0,0.0,0.0,0.0,0.0,-0.0788,-0.2236,-0.46,-0.543,-0.5694,-0.6697,-0.7007,-0.7007,-0.7095,-0.6997,-0.6886,-0.6886,-0.6824,-0.6746,-0.6849,-0.6889,-0.693,-0.7065,-0.7095,-0.7095,-0.7095,-0.7095,-0.7095,-0.7095,-0.8013,-0.8846,-0.889,-1.0697,-1.2157,-1.22,-1.3245,-1.4046,-1.4088,-1.4075,-1.3848,-1.3293,-1.322,-1.2973,-1.2378,-1.2325,-1.2318,-1.2305,-1.2067,-1.1737,-1.1402,-1.1149,-1.0715,-1.0097,-1.045,-1.0824,-1.118,-1.1574,-1.2104,-1.2774,-1.2881,-1.2905,1.7655,1.8517,1.9272,2.0307,2.0454,2.0347,2.0347,1.9726,1.8911,1.8096,1.7221,1.6394,0.0,0.0,0.0,1.2499,1.1858,0.0,1.0574,1.0504,0.0,1.0653,0.0,1.0453,1.0487,1.046,0.0,0.0,1.0527,1.0599,1.0714,1.0721,1.0602,1.0341,0.8683,0.7481,0.6851,0.3942,0.1641,0.0,0.0,0.0,0.0,0.0,0.0,0.0,0.0,0.0,0.0,0.0,0.0,0.0,0.0,0.0,0.0,0.0,-0.0197,-0.0715,-0.2234,-0.3421,-0.4451,-0.5484,-0.5849,-0.5983,-0.6827,-0.6997,-0.6886,-0.6886,-0.6859,-0.6836,-0.6876,-0.6964,-0.7051,-0.7088,-0.7095,-0.7095,-0.7095,-0.7095,-0.7095,-0.7095,-0.7356,-0.7841,-0.8759,-0.9366,-1.0053,-1.0913,-1.2029,-1.3075,-1.3997,-1.3895,-1.366,-1.3507,-1.33,-1.3053,-1.2703,-1.267,-1.2576,-1.2318,-1.2067,-1.1737,-1.1402,-1.1149,-1.0715,-1.0097,-1.0003,-0.9896,-0.9741,-1.0607,-1.1149,-1.1359,-1.2412,-1.2905,1.8577,1.9399,2.0094,2.0708,2.0548,2.0073,1.9746,1.8971,1.8043,1.7021,1.6219,0.0,1.5271,0.0,0.0,0.0,0.0,0.0,1.0301,1.0327,1.05,0.0,1.0643,0.0,1.0592,1.0592,1.0592,0.0,1.0592,1.0629,1.0714,1.0721,1.0585,1.029,0.9376,0.8415,0.7423,0.4117,0.2001,0.1059,0.0357,0.0,0.0,0.0,0.0,0.0,0.0,0.0,0.0,0.0,0.0,0.0,0.0,0.0,0.0,0.0,0.0,-0.0094,-0.0752,-0.1483,-0.2407,-0.4078,-0.4954,-0.5536,-0.616,-0.6643,-0.6964,-0.6903,-0.693,-0.6964,-0.6903,-0.6991,-0.7095,-0.7095,-0.7095,-0.7095,-0.7095,-0.7095,-0.7095,-0.7095,-0.7095,-0.7316,-0.7973,-0.854,-0.9109,-0.9753,-1.0821,-1.1986,-1.316,-1.3593,-1.3746,-1.362,-1.3347,-1.3086,-1.2811,-1.2663,-1.2516,-1.2311,-1.2151,-1.1931,-1.163,-1.1336,-1.0909,-1.0321,-1.0027,-0.9872,-0.9862,-1.0341,-1.0879,-1.1473,-1.2122,-1.2584,1.943,2.01,2.0735,2.0989,2.0581,1.9887,1.9005,1.8083,1.7088,1.5945,0.0,1.4941,1.4901,1.392,1.2831,1.2024,0.0,1.0524,0.9932,0.9998,1.0183,1.0697,1.0731,1.0727,1.0748,1.0731,1.0721,1.0721,1.0721,1.0721,1.0721,1.07,1.0555,1.0259,1.0232,0.9321,0.7403,0.4532,0.302,0.275,0.1055,0.0404,0.0558,0.0162,0.0107,0.0265,0.0,0.0,0.0,0.0,0.0,0.0,0.0,0.0,0.0,0.0,0.0,0.0,0.0,0.0,-0.0359,-0.2637,-0.4063,-0.4956,-0.5134,-0.5983,-0.6848,-0.673,-0.6913,-0.7068,-0.6947,-0.7004,-0.7095,-0.7095,-0.7095,-0.7095,-0.7095,-0.7095,-0.7095,-0.7095,-0.7095,-0.7095,-0.7095,-0.7973,-0.8679,-0.8704,-0.9637,-1.075,-1.1768,-1.3052,-1.3814,-1.3686,-1.34,-1.314,-1.2878,-1.2532,-1.2345,-1.2305,-1.2305,-1.2171,-1.1913,-1.1623,-1.1209,-1.066,-1.0327,-1.032,-1.0631,-1.0448,-1.0945,-1.2096,-1.1831,-1.2113,2.0227,2.0561,2.0688,2.0735,2.0127,1.9285,1.8348,1.7315,0.0,0.0,1.4836,1.4522,1.4282,1.4458,1.4044,1.2249,1.2202,0.0,0.0,0.0,1.0405,0.0,0.0,0.0,0.0,0.0,0.0,0.0,0.0,0.0,1.0721,1.0602,1.0395,1.0038,0.9968,0.9015,0.717,0.6568,0.5576,0.4136,0.2589,0.2376,0.339,0.1075,0.0581,0.1611,0.0,0.0,0.0,0.0,0.0,0.0,0.0,0.0,0.0,0.0,0.0,0.0,0.0,0.0,-0.0225,-0.1657,-0.2236,-0.2593,-0.3616,-0.473,-0.5711,-0.5648,-0.6366,-0.7092,-0.7065,-0.7078,-0.7095,-0.7095,-0.7095,-0.7095,-0.7095,-0.7095,-0.7095,-0.7095,-0.7095,-0.7095,-0.7095,-0.7272,-0.745,-0.7625,-0.8549,-0.9288,-0.9616,-1.137,-1.2966,-1.3924,-1.37,-1.3407,-1.3153,-1.2884,-1.2603,-1.2318,-1.2305,-1.2171,-1.1913,-1.1859,-1.1516,-1.0929,-1.0667,-1.0396,-1.0214,-1.0473,-1.0739,-1.0977,-1.1253,-1.1748,2.0481,2.0788,2.0862,2.0715,1.99,1.8865,1.7816,0.0,0.0,0.0,1.4396,1.4255,1.4115,1.4442,0.0,1.2754,1.2355,0.0,0.0,0.0,0.0,0.0,0.0,0.0,0.0,0.0,0.0,0.0,0.0,0.0,1.0602,1.0385,1.0195,0.9994,0.99,0.9325,0.8402,0.7562,0.6673,0.5715,0.4029,0.3572,0.4136,0.2704,0.2034,0.1964,0.0,0.0,0.0,0.0,0.0,0.0,0.0,0.0,0.0,0.0,0.0,0.0,0.0,0.0,-0.009,-0.0673,-0.1299,-0.1924,-0.2503,-0.3527,-0.4596,-0.5223,-0.5802,-0.634,-0.6962,-0.7095,-0.7095,-0.7095,-0.7095,-0.7095,-0.7095,-0.7204,-0.7261,-0.7261,-0.7326,-0.7353,-0.7275,-0.7326,-0.735,-0.7265,-0.7744,-0.8325,-0.8928,-1.0415,-1.1858,-1.3033,-1.2875,-1.2908,-1.3366,-1.3013,-1.2723,-1.2583,-1.2385,-1.2238,-1.2098,-1.1804,-1.1503,-1.1223,-1.0814,-1.0519,-1.0347,-1.037,-1.0565,-1.0916,-1.1185,-1.1666,2.0535,2.0889,2.1029,2.0668,1.97,1.8517,1.738,1.6194,0.0,0.0,1.4035,1.4015,1.4075,1.4222,1.4025,0.0,1.2225,1.1474,0.0,0.0,0.0,0.0,0.0,0.0,0.0,0.0,0.0,0.0,0.0,0.0,0.0,1.0115,0.997,0.994,0.9852,0.9707,0.9561,0.8213,0.7494,0.7279,0.5541,0.4845,0.5082,0.4348,0.3607,0.2825,0.0,0.0,0.0,0.0101,0.0,0.0,0.0,0.0,0.0,0.0,0.0,0.0,0.0,0.0,0.0,0.0,-0.0628,-0.1433,-0.1433,-0.2236,-0.3393,-0.4376,-0.5001,-0.5628,-0.6517,-0.6918,-0.7095,-0.7095,-0.7095,-0.7105,-0.7139,-0.7285,-0.7429,-0.746,-0.7516,-0.756,-0.7441,-0.7519,-0.7519,-0.723,-0.7316,-0.7688,-0.8488,-0.934,-1.0303,-1.1466,-1.1927,-1.2562,-1.3511,-1.3033,-1.2717,-1.2784,-1.2502,-1.2271,-1.2211,-1.1824,-1.1489,-1.1336,-1.0949,-1.0713,-1.0593,-1.0327,-1.0475,-1.0985,-1.0964,-1.1382,2.0588,2.0889,2.0975,2.0414,1.9392,1.8217,1.7021,0.0,1.4874,1.4215,1.3874,1.3726,1.4041,1.3888,1.3525,1.3049,0.0,1.1217,0.0,0.0,0.0,0.0,0.0,0.0,0.0,0.0,0.0,0.0,0.0,0.0,0.0,1.0,0.9923,0.9846,0.9703,0.9554,0.9405,0.9148,0.8888,0.8677,0.704,0.6918,0.8016,0.5257,0.4604,0.5489,0.0,0.0,0.0,0.0504,0.0,0.0,0.0,0.0,0.0,0.0,0.0,0.0,0.0,0.0,0.0,0.0,-0.009,-0.018,-0.018,-0.0986,-0.1969,-0.2102,-0.3708,-0.5403,-0.5536,-0.6337,-0.7095,-0.7095,-0.7095,-0.7136,-0.7319,-0.7405,-0.7456,-0.7553,-0.759,-0.7594,-0.758,-0.759,-0.759,-0.7563,-0.7451,-0.7412,-0.7535,-0.7447,-0.7881,-0.9104,-1.1534,-1.3233,-1.358,-1.2846,-1.2496,-1.2764,-1.2502,-1.2184,-1.1953,-1.2111,-1.185,-1.1049,-1.1236,-1.1089,-1.0593,-1.0566,-1.0577,-1.0627,-1.0091,-1.0528,2.0134,2.0628,2.0748,2.0334,1.9352,1.8176,1.6981,0.0,1.4841,1.4208,1.3848,1.3693,1.4035,1.3841,1.3598,1.3648,1.2581,0.0,1.1207,0.0,0.0,0.0,0.0,0.0,0.0,0.0,0.0,0.0,0.0,0.0,0.0,0.9646,0.9659,0.9693,0.9551,0.9398,0.9303,0.9241,0.9035,0.8747,0.805,0.7963,0.835,0.7014,0.6271,0.5929,0.0,0.0,0.0,0.1411,0.0706,0.0,0.0,0.0,0.0,0.0,0.0,0.0,0.0,0.0,0.0,0.0,0.0,0.0,0.0,-0.0314,-0.0852,-0.1612,-0.2504,-0.3395,-0.4107,-0.5176,-0.6248,-0.6918,-0.7095,-0.7112,-0.7217,-0.7377,-0.7529,-0.7587,-0.7743,-0.7834,-0.7743,-0.7726,-0.7668,-0.7489,-0.7456,-0.7336,-0.7244,-0.7794,-0.8364,-0.8846,-1.0385,-1.1723,-1.2529,-1.2577,-1.2656,-1.2777,-1.2502,-1.2251,-1.2138,-1.2107,-1.179,-1.1263,-1.1196,-1.0962,-1.0593,-1.0593,-1.0593,-1.0611,-1.0574,-1.0828,1.9386,2.006,2.0347,2.0047,1.9152,1.8036,0.0,0.0,1.4841,1.4208,1.3781,1.3567,1.3901,1.3673,1.3573,1.3908,0.0,1.201,1.1407,0.0,0.0,0.0,0.0,0.0,0.0,0.0,0.0,0.0,0.0,0.0,0.0,0.9296,0.934,0.9537,0.9395,0.9242,0.9089,0.9045,0.8896,0.8642,0.8489,0.8367,0.8316,0.8109,0.7484,0.0,0.0,0.0,0.0,0.2314,0.1461,0.0555,0.0151,0.0,0.0,0.0,0.0,0.0,0.0,0.0,0.0,0.0,0.0,0.0,0.0,0.0,-0.018,-0.1031,-0.1522,-0.2057,-0.3303,-0.4239,-0.5179,-0.6337,-0.6605,-0.6707,-0.7108,-0.7414,-0.7611,-0.7655,-0.7868,-0.7958,-0.7896,-0.7879,-0.7794,-0.7539,-0.7465,-0.7383,-0.7227,-0.7916,-0.8424,-0.8372,-0.9194,-1.0251,-1.143,-1.1961,-1.2312,-1.2396,-1.2324,-1.2265,-1.2178,-1.2094,-1.1817,-1.1395,-1.1223,-1.0982,-1.072,-1.0633,-1.0593,-1.0611,-1.0753,-1.0827,1.8343,1.9145,1.974,1.9511,1.8691,1.7716,0.0,0.0,1.4841,1.4208,1.3621,1.3307,1.3553,1.3407,1.3273,1.356,1.304,0.0,1.14,0.0,0.0,0.0,0.0,0.0,0.0,0.0,0.0,0.0,0.0,0.0,0.0,0.0,0.9079,0.9374,0.9292,0.9086,0.8888,0.8791,0.8635,0.8482,0.834,0.8323,0.8316,0.8109,0.0,0.0,0.0,0.0,0.0,0.3118,0.2013,0.1859,0.0494,0.0,0.0,0.0,0.0,0.0,0.0,0.0,0.0,0.0,0.0,0.0,0.0,0.0,0.0,0.0,-0.0897,-0.2057,-0.3303,-0.3614,-0.3927,-0.5134,-0.5403,-0.5794,-0.7106,-0.7492,-0.7641,-0.778,-0.7884,-0.7988,-0.7988,-0.7988,-0.7934,-0.7831,-0.7689,-0.7543,-0.7436,-0.7415,-0.7354,-0.7156,-0.8097,-0.9222,-1.0519,-1.0851,-1.1165,-1.1507,-1.2005,-1.2171,-1.1926,-1.2144,-1.2017,-1.1402,-1.1389,-1.1242,-1.0989,-1.0734,-1.0593,-1.0586,-1.0254,-1.0174,1.7054,1.7622,1.8023,1.7929,1.7387,1.662,1.5852,1.515,1.4549,1.4168,1.3781,1.356,1.3895,1.3707,1.3626,1.4119,1.4043,0.0,0.0,0.0,0.0,0.0,0.0,0.0,0.0,0.0,0.0,0.0,0.0,0.0,0.0,0.0,0.8925,0.9076,0.893,0.8777,0.8628,0.8577,0.8482,0.8336,0.8344,0.8214,0.8109,0.8012,0.0,0.0,0.0,0.0,0.0,0.4927,0.3523,0.1842,0.1513,0.0826,0.0,0.0,0.0,0.0,0.0,0.0,0.0,0.0,0.0,0.0,0.0,0.0,0.0,0.0,-0.0269,-0.0852,-0.2057,-0.237,-0.2681,-0.3883,-0.4821,-0.5502,-0.5944,-0.686,-0.7614,-0.7658,-0.7868,-0.7988,-0.7988,-0.7904,-0.7868,-0.7818,-0.7692,-0.7546,-0.7436,-0.7415,-0.7312,-0.7112,-0.7401,-0.8007,-0.9004,-0.963,-1.0305,-1.1099,-1.1242,-1.1545,-1.2135,-1.2251,-1.2118,-1.1737,-1.153,-1.1283,-1.0995,-1.0734,-1.0593,-1.0586,-1.0254,-1.0133,1.5972,1.6506,1.6871,1.6871,1.646,1.5925,1.5224,1.4696,1.4242,1.3841,1.3607,1.346,1.3608,1.3527,1.356,1.3968,1.4073,0.0,0.0,0.0,0.0,0.0,0.0,0.0,0.0,0.0,0.0,0.0,0.0,0.0,0.0,0.0,0.8801,0.8689,0.8703,0.8611,0.8404,0.8404,0.833,0.8184,0.8184,0.8133,0.7988,0.0,0.0,0.0,0.0,0.0,0.0,0.5954,0.4747,0.3183,0.2767,0.1806,0.0658,0.069,0.0411,0.0,0.0,0.0,0.0,0.0,0.0,0.0,0.0,0.0,0.0,0.0,0.0,-0.018,-0.0942,-0.1121,-0.1433,-0.2637,-0.3484,-0.4154,-0.4643,-0.5489,-0.6311,-0.6835,-0.71,-0.7385,-0.7889,-0.7911,-0.7896,-0.7896,-0.7729,-0.7563,-0.7468,-0.7453,-0.7312,-0.7112,-0.7146,-0.7384,-0.7876,-0.8637,-0.9344,-0.9988,-1.0243,-1.0801,-1.1784,-1.1815,-1.1874,-1.2037,-1.163,-1.1336,-1.1156,-1.0787,-1.0593,-1.0586,-1.0254,-1.006,0.0,1.5698,1.6119,1.6119,1.5892,1.5411,1.4599,1.4235,0.0,1.3327,1.3213,1.3133,1.2924,1.3046,1.324,1.332,1.35,0.0,0.0,0.0,0.0,0.0,0.0,0.0,0.0,0.0,0.0,0.0,0.0,0.0,0.0,0.0,0.0,0.833,0.8537,0.854,0.8255,0.8255,0.818,0.7988,0.7988,0.7988,0.7988,0.0,0.0,0.0,0.0,0.0,0.0,0.6289,0.567,0.5465,0.4218,0.2993,0.193,0.1849,0.1076,0.0135,0.0045,0.0,0.0,0.0,0.0,0.0,0.0,0.0,0.0,0.0,0.0,0.0,0.0,0.0,-0.0269,-0.1388,-0.1746,-0.2102,-0.3215,-0.3639,-0.4167,-0.5395,-0.5861,-0.6418,-0.7621,-0.7932,-0.7985,-0.7975,-0.7801,-0.7617,-0.7587,-0.7468,-0.7322,-0.7112,-0.7268,-0.7295,-0.7109,-0.7818,-0.831,-0.8383,-0.9192,-1.0067,-1.0966,-1.1031,-1.1461,-1.2268,-1.1724,-1.1369,-1.1329,-1.0854,-1.0593,-1.0586,-1.0234,-0.994,1.4215,0.0,1.4603,1.4603,1.4382,1.4059,0.0,1.358,1.338,1.324,1.3213,1.3327,1.3701,1.3467,1.3507,1.4445,1.4416,1.4412,0.0,0.0,0.0,0.0,0.0,0.0,0.0,0.0,0.0,0.0,0.0,0.0,0.0,0.0,0.0,0.8327,0.8336,0.8286,0.8096,0.8096,0.8025,0.7988,0.7988,0.7988,0.7988,0.0,0.0,0.0,0.0,0.0,0.0,0.7109,0.6387,0.5443,0.5228,0.4334,0.3057,0.2151,0.1612,0.1254,0.0314,0.0,0.0,0.0,0.0,0.0,0.0,0.0,0.0,0.0,0.0,0.0,0.0,0.0,-0.009,-0.0359,-0.1121,-0.1879,-0.2147,-0.3055,-0.3896,-0.422,-0.5217,-0.6097,-0.6439,-0.7316,-0.7948,-0.7882,-0.7857,-0.7814,-0.7468,-0.7495,-0.7441,-0.7125,-0.7129,-0.7136,-0.7098,-0.718,-0.7547,-0.8197,-0.9056,-0.994,-1.0813,-1.1602,-1.2105,-1.2305,-1.1724,-1.1209,-1.0794,-1.066,-1.0593,-1.0579,-1.0057,-0.9746,1.3601,1.3881,1.4122,1.4255,1.4068,1.3808,1.3633,1.3307,1.2959,1.2819,1.2906,1.3053,1.3233,1.312,1.3253,1.4035,1.4135,0.0,0.0,0.0,0.0,0.0,0.0,0.0,0.0,0.0,0.0,0.0,0.0,0.0,0.0,0.0,0.0,0.0,0.8163,0.8126,0.7988,0.7988,0.7988,0.7988,0.7988,0.7955,0.7884,0.0,0.0,0.0,0.0,0.0,0.7412,0.7295,0.6857,0.6169,0.6239,0.5544,0.433,0.3708,0.2772,0.1701,0.1031,0.0449,0.0,0.0,0.0,0.0,0.0,0.0,0.0,0.0,0.0,0.0,0.0,0.0,0.0,0.0,-0.0494,-0.0986,-0.0986,-0.1548,-0.2259,-0.2859,-0.3639,-0.4532,-0.5686,-0.6563,-0.7263,-0.7724,-0.7828,-0.775,-0.7506,-0.7424,-0.728,-0.7112,-0.7095,-0.7068,-0.7004,-0.693,-0.7105,-0.7556,-0.8,-0.8802,-1.0166,-1.0732,-1.1292,-1.1875,-1.1456,-1.1009,-1.0593,-1.0593,-1.0593,-1.0579,-1.0094,-0.988,1.324,1.3674,1.4135,1.4335,1.4235,1.4001,1.3613,1.3146,1.2697,1.2365,1.2543,1.2656,1.2412,1.2616,0.0,0.0,0.0,0.0,0.0,0.0,0.0,0.0,0.0,0.0,0.0,0.0,0.0,0.0,0.0,0.0,0.0,0.0,0.0,0.0,0.8088,0.7988,0.7988,0.7988,0.7988,0.7988,0.7968,0.7887,0.7811,0.7787,0.0,0.0,0.0,0.0,0.7326,0.7149,0.7095,0.7095,0.7095,0.6517,0.5625,0.5447,0.4109,0.228,0.1917,0.1115,0.0223,0.0045,0.0,0.0,0.0,0.0,0.0,0.0,0.0,0.0,0.0,0.0,0.0,0.0,0.0,0.0,0.0,0.0,-0.0322,-0.1472,-0.2009,-0.298,-0.5146,-0.5902,-0.6605,-0.7603,-0.7662,-0.7584,-0.7536,-0.7322,-0.7122,-0.7098,-0.7095,-0.7038,-0.69,-0.6866,-0.6839,-0.6861,-0.6861,-0.7668,-0.9369,-0.9436,-0.9963,-1.1131,-1.0916,-1.0751,-1.0593,-1.0593,-1.0593,-1.0586,-1.0254,-1.0083,1.3333,1.3828,1.4041,1.3786,1.3935,1.3941,1.34,1.3038,1.2697,1.2365,1.2338,1.2432,0.0,1.2757,1.2965,0.0,0.0,0.0,0.0,0.0,0.0,0.0,0.0,0.0,0.0,0.0,0.0,0.0,0.0,0.0,0.0,0.0,0.0,0.0,0.0,0.7988,0.7988,0.7988,0.7988,0.7988,0.7909,0.7834,0.7807,0.7685,0.755,0.0,0.0,0.0,0.7129,0.7105,0.7095,0.7095,0.7095,0.7007,0.6738,0.5761,0.5181,0.4543,0.2496,0.1699,0.1352,0.035,0.0,0.0,0.0,0.0,0.0,0.0,0.0,0.0,0.0,0.0,0.0,0.0,0.0,0.0,0.0,0.0,-0.0045,-0.0271,-0.2058,-0.3656,-0.4025,-0.5927,-0.7399,-0.7458,-0.7533,-0.7506,-0.72,-0.7285,-0.7285,-0.7109,-0.7095,-0.7038,-0.69,-0.681,-0.6678,-0.6552,-0.7352,-0.8208,-0.9111,-0.9169,-0.941,-0.9955,-0.9907,-1.0124,-1.0593,-1.0593,-1.0593,-1.0586,-1.0254,-1.0083,1.2525,1.3019,1.3407,1.34,1.3868,1.4168,1.354,1.3086,1.2797,1.2786,1.2532,0.0,0.0,0.0,1.3293,0.0,0.0,0.0,0.0,0.0,0.0,0.0,0.0,0.0,0.0,0.0,0.0,0.0,0.0,0.0,0.0,0.0,0.0,0.0,0.0,0.0,0.7916,0.7841,0.7841,0.7867,0.7767,0.7651,0.7573,0.7506,0.739,0.0,0.0,0.7207,0.7095,0.7095,0.7095,0.7095,0.7095,0.7095,0.6962,0.5805,0.5318,0.5003,0.3343,0.2317,0.1607,0.1144,0.0531,0.0,0.0,0.0,0.0,0.0,0.0,0.0,0.0,0.0,0.0,0.0,0.0,0.0,0.0,0.0,0.0,0.0,-0.0949,-0.1952,-0.2585,-0.4284,-0.5724,-0.6319,-0.7014,-0.7424,-0.7285,-0.7255,-0.719,-0.6997,-0.698,-0.6889,-0.6702,-0.6617,-0.6555,-0.6405,-0.7234,-0.7895,-0.8235,-0.8547,-0.8814,-0.9008,-0.8843,-0.8918,-0.9192,-0.9652,-0.9888,-0.9913,-1.0227,-1.0354,1.1826,1.2288,1.2717,1.2852,1.3614,1.4173,1.3793,1.3333,1.3085,1.3353,1.2986,0.0,0.0,1.3038,0.0,0.0,0.0,0.0,0.0,0.0,0.0,0.0,0.0,0.0,0.0,0.0,0.0,0.0,0.0,0.0,0.0,0.0,0.0,0.0,0.0,0.0,0.8184,0.8034,0.7897,0.776,0.7614,0.7485,0.7415,0.7333,0.7251,0.7095,0.7095,0.7095,0.7095,0.7095,0.7095,0.7095,0.7095,0.7075,0.6957,0.6072,0.564,0.5328,0.426,0.325,0.2369,0.2191,0.1373,0.0402,0.0403,0.0225,0.0,0.0,0.0,0.0,0.0,0.0,0.0,0.0,0.0,0.0,0.0,0.0,0.0,0.0,-0.0225,-0.0718,-0.1657,-0.2898,-0.4063,-0.5001,-0.6156,-0.6927,-0.686,-0.6989,-0.7028,-0.6852,-0.6866,-0.6793,-0.6491,-0.6429,-0.6344,-0.6201,-0.6775,-0.7082,-0.7046,-0.7507,-0.7827,-0.8009,-0.7813,-0.78,-0.7994,-0.8683,-0.9011,-0.9005,-0.9881,-1.0301,1.1826,1.2098,1.2271,1.2067,1.2846,1.3726,1.4001,1.3808,1.362,1.3961,0.0,0.0,0.0,0.0,0.0,0.0,0.0,0.0,0.0,0.0,0.0,0.0,0.0,0.0,0.0,0.0,0.0,0.0,0.0,0.0,0.0,0.0,0.0,0.0,0.0,0.0,0.9181,0.9042,0.8547,0.7614,0.7461,0.7429,0.7412,0.7221,0.7105,0.7095,0.7095,0.7095,0.7095,0.7095,0.7095,0.7095,0.7095,0.7014,0.6903,0.6814,0.672,0.6405,0.5214,0.4828,0.4655,0.3573,0.252,0.1658,0.1691,0.0897,0.0,0.0,0.0,0.0,0.0,0.0,0.0,0.0,0.0,0.0,0.0,0.0,0.0,0.0,-0.0897,-0.1701,-0.179,-0.2818,-0.3645,-0.3709,-0.4775,-0.547,-0.5291,-0.6319,-0.6987,-0.6749,-0.6844,-0.6753,-0.6354,-0.6142,-0.5996,-0.5844,-0.5895,-0.5862,-0.5731,-0.5773,-0.6124,-0.6811,-0.6789,-0.7177,-0.7994,-0.8059,-0.8091,-0.8124,-0.8973,-0.9402,1.1243,1.1536,1.1817,1.2071,1.2478,1.2939,1.3434,1.3553,1.3686,1.4021,1.4001,0.0,0.0,0.0,0.0,0.0,0.0,0.0,0.0,0.0,0.0,0.0,0.0,0.0,0.0,0.0,0.0,0.0,0.0,0.0,0.0,0.0,0.0,0.0,0.0,0.0,0.0,0.9925,0.9586,0.9231,0.8551,0.7829,0.7092,0.6991,0.7014,0.7095,0.7095,0.7095,0.7095,0.7095,0.7095,0.7095,0.7095,0.7011,0.6886,0.6886,0.6773,0.6536,0.6248,0.5638,0.492,0.4669,0.3856,0.2917,0.2941,0.2057,0.1254,0.2013,0.1701,0.0941,0.018,0.0,0.0,0.0,0.0,0.0,0.0,0.0,0.0,0.0,-0.0359,-0.067,-0.0661,-0.1667,-0.2479,-0.247,-0.3503,-0.4267,-0.4195,-0.5136,-0.5765,-0.5595,-0.6165,-0.6407,-0.6139,-0.5976,-0.5827,-0.5681,-0.5671,-0.5647,-0.5593,-0.5532,-0.5617,-0.5881,-0.5881,-0.6046,-0.6371,-0.692,-0.747,-0.8027,-0.8909,-0.9594,1.0548,1.0788,1.1096,1.163,1.1964,1.2371,1.3166,1.3533,1.3948,1.4516,1.4342,1.4088,1.4088,0.0,0.0,0.0,0.0,0.0,0.0,0.0,0.0,0.0,0.0,0.0,0.0,0.0,0.0,0.0,0.0,0.0,0.0,0.0,0.0,0.0,0.0,0.0,0.0,1.0753,1.0388,0.9988,0.9664,0.8713,0.7317,0.6982,0.6866,0.696,0.7007,0.7031,0.7034,0.7078,0.7095,0.7088,0.6994,0.69,0.6851,0.6803,0.6624,0.6474,0.6647,0.6165,0.5507,0.5678,0.4981,0.4058,0.4033,0.3152,0.2366,0.3196,0.2846,0.2017,0.1186,0.0786,0.0479,0.0088,0.0,0.0,0.0,0.0,0.0,0.0,0.0,0.0,0.0,-0.0688,-0.1236,-0.125,-0.2254,-0.3002,-0.2961,-0.3942,-0.4688,-0.4869,-0.5394,-0.5777,-0.5932,-0.582,-0.5674,-0.5562,-0.5552,-0.5552,-0.5552,-0.545,-0.5395,-0.5395,-0.5395,-0.5395,-0.5395,-0.6009,-0.6597,-0.7186,-0.8059,-0.8807,0.9766,0.99,1.0187,1.0526,1.1263,1.2184,1.334,1.3874,1.4416,1.5585,1.4897,1.4088,1.4095,0.0,0.0,0.0,0.0,0.0,0.0,0.0,0.0,0.0,0.0,0.0,0.0,0.0,0.0,0.0,0.0,0.0,0.0,0.0,0.0,0.0,0.0,0.0,0.0,1.1524,1.0829,0.9531,1.0673,1.0132,0.8164,0.7188,0.6698,0.6709,0.6861,0.6883,0.6896,0.7034,0.7092,0.7061,0.6814,0.6698,0.6678,0.6569,0.6422,0.63,0.6303,0.6494,0.6675,0.6562,0.588,0.5079,0.4974,0.4062,0.314,0.3141,0.314,0.3098,0.3098,0.247,0.1508,0.0296,0.0,0.0,0.0,0.0,0.0,0.0,0.0,0.0,0.0,0.0,0.0,0.0,-0.1034,-0.1732,-0.1616,-0.277,-0.3902,-0.4786,-0.465,-0.4842,-0.5702,-0.5636,-0.5525,-0.5405,-0.5395,-0.5395,-0.5395,-0.5395,-0.5395,-0.5395,-0.5395,-0.5395,-0.5395,-0.5395,-0.5395,-0.5428,-0.6297,-0.6719,1.0067,1.0053,1.0334,1.129,1.1866,1.2538,1.39,1.3966,1.4048,0.0,1.4776,1.4456,1.4707,0.0,0.0,0.0,0.0,0.0,0.0,0.0,0.0,0.0,0.0,0.0,0.0,0.0,0.0,0.0,0.0,0.0,0.0,0.0,0.0,0.0,0.0,0.0,0.0,0.0,1.2101,1.1471,1.091,0.9727,0.8049,0.7733,0.7282,0.6702,0.6749,0.677,0.677,0.6814,0.6831,0.682,0.6732,0.6634,0.6573,0.6528,0.6422,0.6313,0.6416,0.6508,0.6549,0.6614,0.644,0.6206,0.6168,0.5319,0.4522,0.5399,0.5025,0.4382,0.4351,0.4192,0.3478,0.159,0.1126,0.0916,0.017,0.0,0.0,0.0,0.0,0.0,0.0,0.0,0.0,0.0,-0.0319,-0.0797,-0.1492,-0.1943,-0.2575,-0.3517,-0.3577,-0.3593,-0.3754,-0.3713,-0.3897,-0.4392,-0.4417,-0.4722,-0.5362,-0.5395,-0.5395,-0.5395,-0.5395,-0.5395,-0.5395,-0.5395,-0.5719,-0.6334,-0.6593,-0.7046,0.9725,0.991,1.0401,1.1611,1.2271,1.2986,1.4235,0.0,0.0,0.0,0.0,1.4609,0.0,0.0,0.0,0.0,0.0,0.0,0.0,0.0,0.0,0.0,0.0,0.0,0.0,0.0,0.0,0.0,0.0,0.0,0.0,0.0,0.0,0.0,0.0,0.0,0.0,0.0,0.0,1.1915,1.1156,1.0088,0.8732,0.8055,0.7501,0.7126,0.6787,0.6887,0.7267,0.6795,0.6647,0.6688,0.6573,0.6545,0.6504,0.645,0.6375,0.6313,0.6399,0.6463,0.6518,0.6515,0.6563,0.66,0.6542,0.6034,0.5589,0.632,0.6037,0.5448,0.5453,0.547,0.4888,0.2721,0.1871,0.1427,0.0786,0.0293,0.0,0.0,0.0,0.0,0.0,0.0,0.0,0.0,0.0,-0.0236,-0.0863,-0.0972,-0.1345,-0.2382,-0.2446,-0.253,-0.2868,-0.2866,-0.2999,-0.3451,-0.348,-0.3747,-0.4317,-0.5024,-0.5395,-0.5395,-0.5395,-0.5395,-0.5395,-0.5395,-0.5621,-0.6068,-0.6138,-0.6424,0.9116,0.9684,1.0414,1.1678,1.2645,1.3547,1.4369,1.5177,1.5745,1.5671,0.0,0.0,0.0,0.0,0.0,0.0,0.0,0.0,0.0,0.0,0.0,0.0,0.0,0.0,0.0,0.0,0.0,0.0,0.0,0.0,0.0,0.0,0.0,0.0,0.0,0.0,0.0,0.0,0.0,0.0,1.1349,1.0891,0.9956,0.8327,0.7704,0.7906,0.7096,0.7327,0.8228,0.7064,0.6687,0.6733,0.6424,0.6347,0.6436,0.632,0.6279,0.6279,0.6293,0.6385,0.647,0.634,0.6385,0.6467,0.6323,0.6289,0.6296,0.6282,0.6289,0.63,0.63,0.6289,0.577,0.3863,0.2623,0.1861,0.174,0.0906,0.0166,0.0163,0.0081,0.0,0.0,0.0,0.0,0.0,0.0,0.0,0.0,0.0,-0.0377,-0.1352,-0.1295,-0.157,-0.2539,-0.2515,-0.2477,-0.2577,-0.2577,-0.2611,-0.2711,-0.435,-0.5259,-0.5259,-0.5359,-0.5395,-0.5395,-0.5395,-0.532,-0.5123,-0.5327,-0.5287,0.9807,0.999,1.0508,1.2181,1.34,1.4349,1.477,1.5062,1.5084,1.485,0.0,0.0,0.0,0.0,0.0,0.0,0.0,0.0,0.0,0.0,0.0,0.0,0.0,0.0,0.0,0.0,0.0,0.0,0.0,0.0,0.0,0.0,0.0,0.0,0.0,0.0,1.1389,1.1389,1.1275,0.0,1.1089,1.0983,1.0723,1.0049,0.9443,0.896,0.8775,0.8818,0.8971,0.7932,0.7433,0.7253,0.6403,0.6023,0.5956,0.6047,0.6078,0.6098,0.6255,0.632,0.634,0.631,0.632,0.6317,0.6125,0.6166,0.6276,0.6112,0.6166,0.63,0.63,0.6169,0.5995,0.5681,0.4787,0.3818,0.2953,0.1979,0.1272,0.1266,0.0593,0.0,0.0,0.0,0.0,0.0,0.0,0.0,0.0,0.0,-0.0073,-0.0322,-0.0318,-0.0382,-0.0612,-0.0607,-0.0873,-0.1541,-0.1608,-0.1941,-0.2678,-0.3747,-0.4317,-0.4317,-0.5024,-0.5395,-0.5395,-0.5395,-0.5378,-0.5344,-0.5378,-0.5378,0.945,1.0077,1.0962,1.2732,0.0,1.4736,1.475,1.4643,1.4456,0.0,0.0,0.0,0.0,0.0,0.0,0.0,0.0,0.0,0.0,0.0,0.0,0.0,0.0,0.0,0.0,0.0,0.0,0.0,0.0,0.0,0.0,0.0,0.0,0.0,0.0,0.0,1.0595,1.0595,1.0581,1.0575,1.0575,1.0722,1.0976,1.0431,0.9933,0.9556,0.9082,0.915,0.9519,0.8497,0.7778,0.7255,0.6714,0.6234,0.5813,0.5891,0.5922,0.5942,0.6098,0.6101,0.6088,0.6125,0.6101,0.6027,0.5945,0.6027,0.6132,0.6016,0.6142,0.6282,0.6169,0.6091,0.5993,0.604,0.5245,0.4367,0.3962,0.2984,0.2239,0.2303,0.1488,0.0784,0.0784,0.035,0.0,0.0,0.0,0.0,0.0,0.0,0.0,0.0,0.0,0.0,0.0,0.0,-0.0198,-0.0659,-0.0691,-0.0894,-0.1375,-0.2251,-0.2921,-0.3377,-0.421,-0.4632,-0.4632,-0.5055,-0.5216,-0.5152,-0.533,-0.5354,0.8748,1.0115,1.151,1.2994,1.4041,0.0,1.4349,1.4068,1.3768,0.0,0.0,0.0,0.0,0.0,0.0,0.0,0.0,0.0,0.0,0.0,0.0,0.0,0.0,0.0,0.0,0.0,0.0,0.0,0.0,0.0,0.0,0.0,0.0,0.0,0.0,0.9927,0.9715,0.9715,0.98,1.004,1.004,1.0294,1.0743,1.0134,0.9991,1.0124,0.9278,0.9388,1.0089,0.9069,0.8213,0.7522,0.735,0.6836,0.6181,0.621,0.6115,0.5997,0.6155,0.6014,0.5823,0.5912,0.5905,0.5796,0.5772,0.5871,0.5949,0.5925,0.6064,0.619,0.6023,0.5936,0.5892,0.5827,0.5078,0.4509,0.4836,0.4013,0.3222,0.3324,0.2518,0.1741,0.1587,0.0799,0.0186,0.0036,0.0,0.0,0.0,0.0,0.0,0.0,0.0,0.0,0.0,0.0,0.0,0.0,0.0,0.0,0.0,-0.0683,-0.1433,-0.2213,-0.3133,-0.3595,-0.3625,-0.4344,-0.47,-0.4744,-0.5045,-0.5166,0.8495,1.0206,1.1906,0.0,1.2966,1.3434,0.0,0.0,0.0,0.0,0.0,0.0,0.0,0.0,0.0,0.0,0.0,0.0,0.0,0.0,0.0,0.0,0.0,0.0,0.0,0.0,0.0,0.0,0.0,0.0,0.0,0.0,0.9809,0.974,0.974,0.0,0.9715,0.9715,0.9729,0.974,0.974,0.978,0.986,0.9774,1.0273,1.1183,1.1073,1.1073,1.1108,1.0124,0.9582,0.9259,0.8375,0.7923,0.7711,0.7832,0.7386,0.6763,0.6911,0.6459,0.5803,0.5827,0.5817,0.5779,0.5654,0.5718,0.5806,0.5684,0.5752,0.5857,0.5837,0.5742,0.5674,0.5776,0.5499,0.5364,0.5741,0.502,0.4295,0.431,0.3348,0.2311,0.1469,0.1208,0.087,0.0106,0.0,0.0,0.0,0.0,0.0,0.0,0.0,0.0,0.0,0.0,0.0,0.0,0.0,0.0,0.0,-0.0126,-0.0245,-0.0358,-0.2006,-0.286,-0.286,-0.2962,-0.3406,-0.4112,-0.4176,-0.4599,0.9078,1.0138,1.1035,0.0,1.2138,1.2458,1.2458,0.0,0.0,0.0,0.0,0.0,0.0,0.0,0.0,0.0,0.0,0.0,0.0,0.0,0.0,0.0,0.0,0.0,0.0,0.0,0.0,0.0,0.0,0.0,0.0,0.9715,0.9606,0.9439,0.9411,0.0,0.9192,0.9192,0.9272,0.9439,0.9599,0.9715,0.9715,0.9715,0.996,1.0448,1.0448,1.0541,1.0624,1.0193,0.9792,0.9438,0.8974,0.8478,0.8004,0.8073,0.7844,0.7541,0.7683,0.7095,0.631,0.6406,0.6033,0.5576,0.5515,0.5566,0.5671,0.5606,0.5691,0.5783,0.5701,0.5637,0.5586,0.5593,0.5491,0.5474,0.5722,0.5418,0.497,0.4452,0.3912,0.3215,0.2244,0.2095,0.1937,0.1578,0.1503,0.1321,0.0791,0.0723,0.0553,0.0063,0.0,0.0,0.0,0.0,0.0,0.0,0.0,0.0,0.0,0.0,0.0,0.0,-0.12,-0.1808,-0.1808,-0.2345,-0.2798,-0.3163,-0.3246,-0.3485,0.8978,0.0,0.991,1.075,1.1263,1.1591,0.0,0.0,0.0,0.0,0.0,0.0,0.0,0.0,0.0,0.0,0.0,0.0,0.0,0.0,0.0,0.0,0.0,0.0,0.0,0.0,0.0,0.0,0.0,0.0,0.9735,0.9572,0.9359,0.9111,0.9104,0.8998,0.8811,0.8804,0.8891,0.9104,0.9352,0.9459,0.9459,0.9459,0.9459,0.9466,0.9648,0.9806,1.0007,1.0007,0.9807,0.9491,0.9491,0.9171,0.8672,0.8672,0.8517,0.8349,0.8457,0.7834,0.7036,0.7154,0.6509,0.5785,0.598,0.597,0.5866,0.5866,0.5946,0.594,0.5628,0.5532,0.5539,0.5423,0.5395,0.5436,0.5555,0.5589,0.5376,0.4692,0.4542,0.4207,0.3186,0.3036,0.2947,0.272,0.2662,0.2402,0.171,0.1566,0.1291,0.0642,0.0548,0.0481,0.0291,0.0291,0.0204,0.0,0.0,0.0,0.0,0.0,0.0,0.0,-0.0538,-0.0811,-0.0811,-0.1518,-0.1974,-0.2188,-0.2285,-0.2481,0.0,0.8253,0.0,0.9613,1.0238,0.0,0.0,0.0,0.0,0.0,0.0,0.0,0.0,0.0,0.0,0.0,0.0,0.0,0.0,0.0,0.0,0.0,0.0,0.0,0.0,0.0,0.0,0.0,0.0,0.0,0.9788,0.9181,0.8844,0.8831,0.8831,0.8824,0.8804,0.8804,0.8818,0.8831,0.8844,0.8851,0.8851,0.8851,0.8851,0.8884,0.9446,0.9722,0.9735,0.9735,0.9844,1.0049,1.0049,1.0215,1.046,1.046,0.9945,0.9242,0.9253,0.8662,0.7929,0.7944,0.7349,0.6785,0.76,0.7284,0.6638,0.6638,0.6642,0.6453,0.5634,0.5405,0.5405,0.5395,0.5395,0.5436,0.5555,0.5589,0.5593,0.553,0.5416,0.5043,0.4092,0.3923,0.3654,0.2811,0.2587,0.2479,0.2444,0.2257,0.2131,0.2093,0.2085,0.1798,0.1096,0.1036,0.0739,0.0059,0.0,0.0,0.0,0.0,0.0,0.0,-0.0028,-0.0056,-0.0056,-0.0112,-0.0542,-0.1355,-0.1369,-0.1847,0.0,0.0,0.0,0.8607,0.9237,0.9793,0.0,0.0,0.0,0.0,0.0,0.0,0.0,0.0,0.0,0.0,0.0,0.0,0.0,0.0,0.0,0.0,0.0,0.0,0.0,0.0,0.0,0.0,0.0,0.0,1.044,1.021,0.9891,0.9465,0.9439,0.9237,0.8804,0.8804,0.8804,0.8804,0.8804,0.8804,0.8804,0.8804,0.8804,0.8818,0.9031,0.9225,0.9371,0.9371,0.9573,0.984,0.984,1.002,1.0274,1.0274,1.0207,1.0142,1.0142,0.9435,0.8557,0.8756,0.809,0.7326,0.7852,0.7795,0.7535,0.7535,0.7535,0.734,0.6461,0.6235,0.6235,0.6235,0.6235,0.6251,0.6285,0.587,0.5477,0.5477,0.5433,0.5292,0.4957,0.4891,0.4758,0.431,0.4196,0.3924,0.329,0.3152,0.2855,0.2251,0.2186,0.2091,0.1815,0.1814,0.1684,0.142,0.0968,0.0712,0.0712,0.0257,0.0,0.0,0.0,0.0,0.0,0.0,-0.0171,-0.0471,-0.0456,-0.0658,0.6036,0.0,0.0,0.0,0.0,0.9144,0.0,0.0,0.0,0.0,0.0,0.0,0.0,0.0,0.0,0.0,0.0,0.0,0.0,0.0,0.0,0.0,0.0,0.0,0.0,0.0,0.0,0.0,0.0,0.0,1.1141,1.0914,1.0491,0.9814,0.9788,0.9484,0.8811,0.8804,0.8804,0.8804,0.8804,0.8804,0.8804,0.8804,0.8804,0.8804,0.8804,0.8891,0.9071,0.9071,0.9237,0.9532,0.9532,0.9713,0.9973,0.9973,1.016,1.0432,1.0332,0.982,0.9248,0.9389,0.8696,0.7926,0.8511,0.8488,0.8276,0.8393,0.8452,0.8226,0.7372,0.7144,0.7144,0.7144,0.7144,0.7144,0.7144,0.6465,0.5752,0.5458,0.5395,0.5378,0.5324,0.5284,0.5233,0.5049,0.4985,0.4725,0.4065,0.3918,0.3659,0.3044,0.2982,0.2871,0.2619,0.2593,0.2482,0.2232,0.173,0.148,0.148,0.1006,0.0727,0.0727,0.0727,0.0727,0.0727,0.0252,0.0,0.0,0.0,0.0,0.0,0.0,0.0,0.0,0.0,0.0,0.0,0.0,0.0,0.0,0.0,0.0,0.0,0.0,0.0,0.0,0.0,0.0,0.0,0.0,0.0,0.0,0.0,0.0,0.0,0.0,0.0,0.0,0.0,1.1839,1.1839,1.1191,1.0542,0.9891,0.984,0.951,0.8857,0.8831,0.8831,0.8831,0.8811,0.8804,0.8804,0.8804,0.8804,0.8804,0.8804,0.8804,0.8804,0.8804,0.8944,0.9198,0.9198,0.9384,0.9695,0.9695,0.9853,1.006,0.978,0.9866,1.0047,0.9773,0.9136,0.8634,0.9743,0.9517,0.8915,0.9255,0.9332,0.9128,0.8243,0.8021,0.7994,0.8027,0.8027,0.8027,0.8027,0.7367,0.6519,0.5653,0.5458,0.5377,0.5187,0.5131,0.5049,0.4904,0.4785,0.4691,0.4684,0.4583,0.4491,0.4491,0.4491,0.4211,0.3483,0.3428,0.3093,0.2313,0.2259,0.2232,0.2232,0.2204,0.2202,0.2202,0.2202,0.2202,0.2202,0.0755,0.0056,0.0056,0.0029,0.003,0.4732,0.0,0.0,0.0,0.0,0.0,0.0,0.0,0.0,0.0,0.0,0.0,0.0,0.0,0.0,0.0,0.0,0.0,0.0,0.0,0.0,0.0,0.0,0.0,0.0,0.0,0.0,0.0,0.0,1.2608,1.2608,1.1907,1.1441,1.1266,1.0788,1.044,1.0244,0.9762,0.951,0.951,0.9035,0.8804,0.8804,0.8804,0.8804,0.8804,0.8804,0.8804,0.8804,0.8804,0.8851,0.8898,0.8898,0.9078,0.9331,0.9331,0.9552,0.9793,0.9713,0.9593,0.9477,0.9639,0.9389,0.9134,0.987,0.9925,0.9794,1.0153,1.0057,0.9674,0.8813,0.8281,0.8156,0.878,0.8941,0.8941,0.8941,0.8566,0.8043,0.7414,0.6756,0.6278,0.6069,0.5505,0.5012,0.4792,0.4718,0.4679,0.4566,0.4515,0.4491,0.4491,0.4491,0.4405,0.4211,0.4184,0.4098,0.3873,0.3317,0.301,0.301,0.248,0.2202,0.2202,0.2202,0.2202,0.2202,0.1786,0.1591,0.1592,0.1041,0.0511,0.4508,0.5003,0.0,0.0,0.0,0.0,0.0,0.8804,0.0,0.0,0.0,0.0,0.0,0.0,0.0,0.0,0.0,0.0,0.0,0.0,0.0,0.0,0.0,0.0,0.0,0.0,0.0,0.0,1.2905,1.2905,1.2905,1.2476,1.2129,1.1814,1.1416,1.1091,1.0788,1.0141,0.9943,1.0218,0.9536,0.9211,0.9211,0.9211,0.9061,0.8804,0.8804,0.8804,0.8804,0.8804,0.8804,0.8804,0.8804,0.8884,0.9031,0.9031,0.9217,0.9479,0.9359,0.9285,0.9217,0.9305,0.9198,0.9118,0.9577,0.9724,0.9784,1.0137,1.0067,0.984,0.9455,0.9104,0.9026,0.9691,0.973,0.9643,0.9643,0.9389,0.8908,0.7964,0.7302,0.6804,0.6636,0.6181,0.5785,0.5535,0.5494,0.5458,0.5375,0.5391,0.5391,0.5391,0.5391,0.525,0.4948,0.4921,0.4787,0.4515,0.407,0.379,0.379,0.34,0.3151,0.3151,0.3151,0.3151,0.3151,0.2508,0.2202,0.2204,0.1765,0.1317,0.4528,0.4921,0.5569,0.0,0.0,0.0,0.8507,0.8752,0.0,0.0,0.0,0.0,0.0,0.0,0.0,0.0,0.0,0.0,0.0,0.0,0.0,0.0,0.0,0.0,0.0,0.0,0.0,1.2905,1.2905,1.2905,1.2905,1.2905,1.2608,1.1947,1.1922,1.1649,1.1049,1.0372,1.0312,1.0889,1.0236,0.9909,0.9909,0.9909,0.9588,0.9035,0.9035,0.9035,0.9008,0.8936,0.8857,0.8804,0.8804,0.8804,0.8804,0.8804,0.8944,0.9124,0.8871,0.8951,0.9124,0.8891,0.8804,0.8864,0.9124,0.9211,0.9264,0.9559,0.9659,0.9733,0.996,1.0047,1.0134,1.0432,1.0261,1.0067,1.0067,0.984,0.9262,0.7944,0.7446,0.7199,0.7058,0.6966,0.6834,0.6618,0.6588,0.6588,0.6588,0.6588,0.6588,0.6588,0.6588,0.634,0.5678,0.5624,0.5382,0.4763,0.4736,0.4708,0.4625,0.4598,0.457,0.4491,0.4491,0.4491,0.4491,0.3121,0.2397,0.2313,0.2313,0.2267,0.0,0.0,0.0,0.0,0.0,0.0,0.775,0.8374,0.8804,0.0,0.0,0.0,0.0,0.0,0.0,0.0,0.0,0.0,0.0,0.0,0.0,0.0,0.0,0.0,0.0,0.0,1.2905,1.2905,1.2905,1.2905,1.2905,1.2905,1.2822,1.2691,1.2691,1.2618,1.2486,1.1774,1.1491,1.1591,1.0939,1.0593,1.0593,1.0593,1.0542,1.0415,1.0415,1.0415,1.0364,0.9814,0.929,0.8804,0.8804,0.8804,0.8804,0.8804,0.8844,0.8884,0.8824,0.8844,0.8858,0.8824,0.8804,0.8864,0.9124,0.9211,0.9224,0.9284,0.9499,0.9639,0.9431,0.9586,0.978,0.9869,0.9842,0.9766,0.9766,0.9532,0.9199,0.8934,0.8491,0.8108,0.7977,0.7362,0.6834,0.6618,0.6588,0.6588,0.6588,0.6588,0.6588,0.6588,0.6588,0.6534,0.6394,0.6394,0.634,0.6209,0.6182,0.5932,0.5324,0.53,0.5054,0.4519,0.4491,0.4491,0.4491,0.4211,0.3707,0.3093,0.3093,0.2768,0.0,0.0,0.0,0.5792,0.0,0.0,0.0,0.8533,0.8844,0.0,0.0,0.0,0.0,0.0,0.0,0.0,0.0,0.0,0.0,0.0,0.0,0.0,0.0,0.0,0.0,0.0,1.2905,1.2905,1.2905,1.2905,1.2905,1.2905,1.2905,1.2905,1.2905,1.2905,1.2905,1.2163,1.1972,1.2344,1.1649,1.1291,1.1291,1.1291,1.1116,1.0788,1.0788,1.0788,1.0762,1.044,1.009,0.9736,0.9061,0.9008,0.9263,0.8936,0.9008,0.9256,0.891,0.9008,0.9309,0.9309,0.951,0.9773,0.9573,0.9254,0.9079,0.9408,0.9628,0.9748,0.9748,0.9868,0.9946,0.9762,0.9566,0.9459,0.9459,0.9204,0.8998,0.8998,0.8775,0.8571,0.8522,0.8136,0.7816,0.7714,0.7696,0.7696,0.7696,0.7696,0.7696,0.7696,0.7696,0.7563,0.7182,0.7155,0.6993,0.6615,0.6588,0.6421,0.6064,0.6036,0.5905,0.5555,0.5555,0.5555,0.5555,0.5555,0.4976,0.3901,0.3901,0.3707,0.0,0.0,0.0,0.0,0.0,0.6939,0.0,0.0,0.0,0.9078,0.0,0.0,0.0,0.0,0.0,0.0,0.0,0.0,0.0,0.0,0.0,0.0,0.0,0.0,0.0,0.0,1.2905,1.2905,1.2905,1.2905,1.2905,1.2905,1.2905,1.2905,1.2905,1.2905,1.2905,1.232,1.232,1.2881,1.2295,1.1996,1.1996,1.1996,1.1724,1.12,1.12,1.12,1.12,1.104,1.099,1.0864,0.9666,0.951,0.9917,0.9387,0.9536,0.9917,0.9361,0.9536,0.9987,0.9987,1.0364,1.0686,1.0167,0.9614,0.9283,0.984,0.9987,1.0048,1.0329,1.0398,1.0304,0.9974,0.9709,0.9493,0.9493,0.9333,0.9185,0.9185,0.9185,0.9113,0.8831,0.8804,0.8804,0.8804,0.8804,0.8804,0.8804,0.8804,0.8804,0.8804,0.8804,0.8566,0.7969,0.791,0.767,0.7074,0.702,0.6966,0.6831,0.6669,0.6588,0.6588,0.6588,0.6588,0.6588,0.6588,0.6018,0.4897,0.4897,0.4897,0.0,0.0,0.0,0.0,0.6118,0.0,0.0,0.0,0.8818,0.8851,0.0,0.0,0.0,0.0,0.0,0.0,0.0,0.0,0.0,0.0,0.0,0.0,0.0,0.0,0.0,0.0,0.0,1.2905,1.2905,1.2905,1.2905,1.2905,1.2905,1.2905,1.2905,1.2905,1.2905,1.2822,1.2822,1.2905,1.2822,1.2774,1.2774,1.2774,1.2725,1.2666,1.2666,1.2666,1.2618,1.1956,1.169,1.1616,1.0864,1.0618,1.0686,1.0593,1.0618,1.0686,1.0593,1.0618,1.0695,1.0695,1.0737,1.0788,1.072,1.0636,1.0593,1.0661,1.0695,1.0703,1.0744,1.0752,1.0734,1.068,1.0656,1.0624,1.0624,1.0592,1.0559,1.0559,1.0559,1.0192,0.9008,0.8804,0.8804,0.8804,0.8804,0.8804,0.8804,0.8804,0.8804,0.8804,0.8804,0.8752,0.8672,0.8672,0.8646,0.8566,0.856,0.8262,0.7589,0.6939,0.6588,0.6588,0.6588,0.6588,0.6588,0.6588,0.6507,0.6372,0.6372,0.6372,0.0,0.0,0.0,0.0,0.0,0.0,0.0,0.0,0.8851,0.0,0.0,0.0,0.0,0.0,0.0,0.0,0.0,0.0,0.0,0.0,0.0,0.0,0.0,0.0,0.0,0.0,0.0,0.0,0.0,1.2905,1.2905,1.2905,1.2905,1.2905,1.2905,1.2905,1.2905,1.2905,1.2905,1.2905,1.2905,1.2905,1.2905,1.2905,1.2905,1.2905,1.2905,1.2905,1.2881,1.2559,1.2452,1.2403,1.2123,1.1758,1.1341,1.0939,1.104,1.1316,1.0939,1.104,1.1441,1.1891,1.1733,1.1391,1.1391,1.1116,1.0889,1.1266,1.1375,1.1384,1.1366,1.1391,1.1291,1.0889,1.0788,1.0788,1.0788,1.0788,1.0788,1.0788,1.0788,1.0618,1.0064,0.964,0.9387,0.9387,0.9061,0.8936,0.9335,0.9387,0.9543,0.9917,0.9961,0.9814,0.9413,0.9387,0.9211,0.8831,0.8804,0.8672,0.8348,0.8049,0.7883,0.7883,0.7883,0.7883,0.7883,0.7883,0.7883,0.7857,0.6993,0.6588,0.5955,0.0,0.0,0.0,0.0,0.0,0.0,0.0,0.0,0.0,0.0,0.0,0.0,0.0,0.0,0.0,0.0,0.0,0.0,0.0,0.0,0.0,0.0,0.0,0.0,0.0,0.0,0.0,1.2905,0.0,1.2905,1.2905,1.2905,1.2905,1.2905,1.2905,1.2905,1.2905,1.2905,1.2905,1.2905,1.2905,1.2905,1.2905,1.2905,1.2905,1.2905,1.2905,1.2905,1.2905,1.2905,1.2905,1.2905,1.2559,1.203,1.1559,1.1683,1.203,1.1534,1.1674,1.2187,1.2715,1.2535,1.2104,1.2104,1.1758,1.1484,1.1956,1.2098,1.2107,1.2113,1.2104,1.1981,1.1484,1.1384,1.1384,1.1384,1.1384,1.1384,1.1384,1.1384,1.1384,1.1384,1.0644,1.0064,1.0064,0.9666,0.951,1.0012,1.0064,1.0261,1.0745,1.0788,1.0593,1.0115,1.0064,0.9865,0.9387,0.9335,0.9335,0.9335,0.9335,0.9335,0.9335,0.9335,0.9335,0.9335,0.9335,0.9335,0.9309,0.7871,0.7208,0.0,0.0,0.0,0.7509,0.0,0.0,0.0,0.0,0.9124,0.0,0.0,0.0,0.0,0.0,0.8717,0.8462,0.0,0.0,0.0,0.0,0.0,0.0,0.0,0.0,0.0,0.0,0.0,0.0,1.2905,0.0,1.2905,1.2905,1.2905,1.2905,1.2905,1.2905,1.2905,1.2905,1.2905,1.2905,1.2905,1.2905,1.2905,1.2905,1.2905,1.2905,1.2905,1.2905,1.2905,1.2905,1.2905,1.2905,1.2905,1.2881,1.2847,1.2847,1.2856,1.2847,1.2832,1.2856,1.2881,1.2881,1.2881,1.2847,1.2847,1.2856,1.2832,1.2856,1.2847,1.2856,1.2847,1.2847,1.2856,1.2832,1.2832,1.2832,1.2832,1.2832,1.2832,1.2832,1.2832,1.2832,1.2832,1.1692,1.0771,1.0771,1.0745,1.0737,1.0771,1.0771,1.0788,1.0788,1.0788,1.0788,1.0771,1.0771,1.0762,1.0737,1.0737,1.0737,1.0737,1.0737,1.0737,1.0737,1.0737,1.0737,1.0737,1.0737,1.0737,1.0686,0.9361,0.8725,0.0,0.0,0.8103,0.8374,0.0,0.0,0.0,0.0,0.0,0.0,0.0,0.0,0.0,0.0,0.8778,0.8677,0.8744,0.0,0.0,0.0,0.0,0.0,0.0,0.0,0.0,0.0,0.0,1.2905,1.2905,1.2905,0.0,1.2905,1.2905,1.2905,1.2905,1.2905,1.2905,1.2905,1.2905,1.2905,1.2905,1.2905,1.2905,1.2905,1.2905,1.2905,1.2905,1.2905,1.2905,1.2905,1.2905,1.2905,1.2905,1.2905,1.2905,1.2905,1.2905,1.2905,1.2905,1.2905,1.2905,1.2905,1.2905,1.2905,1.2905,1.2905,1.2905,1.2905,1.2905,1.2905,1.2905,1.2905,1.2905,1.2905,1.2905,1.2905,1.2905,1.2905,1.2905,1.2905,1.2905,1.2905,1.2905,1.252,1.2015,1.1541,1.1091,1.0965,1.1391,1.1466,1.1649,1.2147,1.2181,1.199,1.1491,1.1065,1.0788,1.0788,1.0788,1.0788,1.0788,1.0788,1.0788,1.0788,1.0788,1.0788,1.0788,1.0788,1.0788,1.0788,1.0338,1.0115,0.8209,0.8427,0.0,0.0,0.8804,0.0,0.8804,0.0,0.0,0.0,0.0,0.0,0.0,0.0,0.0,0.8804,0.8804,0.8804,0.0,0.8804,0.0,0.0,0.0,0.0,0.0,0.0,1.2905,1.2905,1.2905,1.2905,0.0,0.0,1.2905,1.2905,1.2905,1.2905,1.2905,1.2905,1.2905,1.2905,1.2905,1.2905,1.2905,1.2905,1.2905,1.2905,1.2905,1.2905,1.2905,1.2905,1.2905,1.2905,1.2905,1.2905,1.2905,1.2905,1.2905,1.2905,1.2905,1.2905,1.2905,1.2905,1.2905,1.2905,1.2905,1.2905,1.2905,1.2905,1.2905,1.2905,1.2905,1.3065,1.3214,1.3214,1.3214,1.3286,1.3501,1.3382,1.3286,1.3501,1.3549,1.3549,1.3549,1.3549,1.3218,1.2335,1.1807,1.1708,1.2138,1.2187,1.2369,1.2856,1.2905,1.2715,1.2236,1.1792,1.1559,1.1559,1.1559,1.1559,1.1559,1.1559,1.1559,1.1559,1.1559,1.1559,1.1559,1.1756,1.1765,1.1559,1.1507,1.1507]}]]